[[{"header":{"parameterUnit":"m.s-1","parameterCategory":1,"la1":30.6,"la2":29.2853,"lo1":-89.7004,"lo2":-87.6739,"dy":0.0162,"dx":0.0183,"nx":112,"ny":82,"refTime":"2023-05-09T00:00:00:Z","depth":0,"parameterNumber":2,"parameterNumberName":"U-component_of_WINDS"},"data":[0.0,0.0,0.0,0.0,0.0,0.0,0.0,0.0,0.0,0.0,0.0,0.0,0.0,0.0,0.0,0.0,0.0,0.0,0.0,0.0,0.0,0.0,0.0,0.0,0.0,0.0,0.0,0.0,0.0,0.0,0.0,0.0,0.0,0.0,0.0,0.0,0.0,0.0,0.0,0.0,0.0,0.0,0.0,0.0,0.0,0.0,0.0,0.0,0.0,0.0,0.0,0.0,0.0,0.0,0.0,0.0,0.0,0.0,0.0,0.0,0.0,0.0,0.0,0.0,0.0,0.0,0.0,0.0,0.0,0.0,0.0,0.0,0.0,0.0,0.0,0.0,0.0,0.0,0.0,0.0,0.0,0.0,0.0,0.0,0.0,0.0,0.0,0.0,0.0,0.0,-0.9659,-1.1065,-1.2547,-1.3368,-1.3272,-1.2547,-1.185,-1.1226,0.0,0.0,0.0,0.0,0.0,0.0,0.0,0.0,0.0,0.0,0.0,0.0,0.0,0.0,0.0,0.0,0.0,0.0,0.0,0.0,0.0,0.0,0.0,0.0,0.0,0.0,0.0,0.0,0.0,0.0,0.0,0.0,0.0,0.0,0.0,0.0,0.0,0.0,0.0,0.0,0.0,0.0,0.0,0.0,0.0,0.0,0.0,0.0,0.0,0.0,0.0,0.0,0.0,0.0,0.0,0.0,0.0,0.0,0.0,0.0,0.0,0.0,0.0,0.0,0.0,0.0,0.0,0.0,0.0,0.0,0.0,0.0,0.0,0.0,0.0,0.0,0.0,0.0,0.0,0.0,0.0,0.0,0.0,0.0,0.0,0.0,0.0,0.0,0.0,0.0,0.0,0.0,0.0,0.0,0.0,0.0,0.0,0.0,0.0,0.0,0.0,0.0,0.0,0.0,-0.9899,-1.1529,-1.2509,-1.3072,-1.305,-1.2278,-1.1594,-1.1137,0.0,0.0,0.0,0.0,0.0,0.0,0.0,0.0,0.0,0.0,0.0,0.0,0.0,0.0,0.0,0.0,0.0,0.0,0.0,0.0,0.0,0.0,0.0,0.0,0.0,0.0,0.0,0.0,0.0,0.0,0.0,0.0,0.0,0.0,0.0,0.0,0.0,0.0,0.0,0.0,0.0,0.0,0.0,0.0,0.0,0.0,0.0,0.0,0.0,0.0,0.0,0.0,0.0,0.0,0.0,0.0,0.0,0.0,0.0,0.0,0.0,0.0,0.0,0.0,0.0,0.0,0.0,0.0,0.0,0.0,0.0,0.0,0.0,0.0,0.0,0.0,0.0,0.0,0.0,0.0,0.0,0.0,0.0,0.0,0.0,0.0,0.0,0.0,0.0,0.0,0.0,0.0,0.0,0.0,0.0,0.0,0.0,0.0,0.0,0.0,0.0,0.0,0.0,-0.9636,-1.0625,-1.1695,-1.2524,-1.2907,-1.265,-1.1991,-1.1213,-1.0334,-0.9394,0.0,0.0,0.0,0.0,0.0,0.0,0.0,0.0,0.0,0.0,0.0,0.0,0.0,0.0,0.0,0.0,0.0,0.0,0.0,0.0,0.0,0.0,0.0,0.0,0.0,0.0,0.0,0.0,0.0,0.0,0.0,0.0,0.0,0.0,0.0,0.0,0.0,0.0,0.0,0.0,0.0,0.0,0.0,0.0,0.0,0.0,0.0,0.0,0.0,0.0,0.0,0.0,0.0,0.0,0.0,0.0,0.0,0.0,0.0,0.0,0.0,0.0,0.0,0.0,0.0,0.0,0.0,0.0,0.0,0.0,0.0,0.0,0.0,0.0,0.0,0.0,0.0,0.0,0.0,0.0,0.0,0.0,0.0,0.0,0.0,0.0,0.0,0.0,0.0,0.0,0.0,0.0,0.0,0.0,0.0,0.0,0.0,0.0,0.0,0.0,0.0,0.0,-1.0201,-1.1079,-1.1576,-1.2266,-1.2532,-1.2169,-1.1594,-1.074,-0.9583,-0.8822,0.0,0.0,0.0,0.0,0.0,0.0,0.0,0.0,0.0,0.0,0.0,0.0,0.0,0.0,0.0,0.0,0.0,0.0,0.0,0.0,0.0,0.0,0.0,0.0,0.0,0.0,0.0,0.0,0.0,0.0,0.0,0.0,0.0,0.0,0.0,0.0,0.0,0.0,0.0,0.0,0.0,0.0,0.0,0.0,0.0,0.0,0.0,0.0,0.0,0.0,0.0,0.0,0.0,0.0,0.0,0.0,0.0,0.0,0.0,0.0,0.0,0.0,0.0,0.0,0.0,0.0,0.0,0.0,0.0,0.0,0.0,0.0,0.0,0.0,0.0,0.0,0.0,0.0,0.0,0.0,0.0,0.0,0.0,0.0,0.0,0.0,0.0,0.0,0.0,0.0,0.0,0.0,0.0,0.0,0.0,0.0,0.0,0.0,0.0,0.0,0.0,0.0,-0.9859,-1.0684,-1.1097,-1.1488,-1.1704,-1.1643,-1.0931,-1.0121,-0.9281,-0.8589,0.0,0.0,0.0,0.0,0.0,0.0,0.0,0.0,0.0,0.0,0.0,0.0,0.0,0.0,0.0,0.0,0.0,0.0,0.0,0.0,0.0,0.0,0.0,0.0,0.0,0.0,0.0,0.0,0.0,0.0,0.0,0.0,0.0,0.0,0.0,0.0,0.0,0.0,0.0,0.0,0.0,0.0,0.0,0.0,0.0,0.0,0.0,0.0,0.0,0.0,0.0,0.0,0.0,0.0,0.0,0.0,0.0,0.0,0.0,0.0,0.0,0.0,0.0,0.0,0.0,0.0,0.0,0.0,0.0,0.0,0.0,0.0,0.0,0.0,0.0,0.0,0.0,0.0,0.0,0.0,0.0,0.0,0.0,0.0,0.0,0.0,0.0,0.0,0.0,0.0,0.0,0.0,0.0,0.0,0.0,0.0,0.0,0.0,0.0,0.0,0.0,0.0,-0.9956,-1.0793,0.0,-1.1406,-1.1529,-1.1314,-1.0561,-0.9757,-0.8947,0.0,0.0,0.0,0.0,0.0,0.0,0.0,0.0,0.0,0.0,0.0,0.0,0.0,0.0,0.0,0.0,0.0,0.0,0.0,0.0,0.0,0.0,0.0,0.0,0.0,0.0,0.0,0.0,0.0,0.0,0.0,0.0,0.0,0.0,0.0,0.0,0.0,0.0,0.0,0.0,0.0,0.0,0.0,0.0,0.0,0.0,0.0,0.0,0.0,0.0,0.0,0.0,0.0,0.0,0.0,0.0,0.0,0.0,0.0,0.0,0.0,0.0,0.0,0.0,0.0,0.0,0.0,0.0,0.0,0.0,0.0,0.0,0.0,0.0,0.0,0.0,0.0,0.0,0.0,0.0,0.0,0.0,0.0,0.0,0.0,0.0,0.0,0.0,0.0,0.0,0.0,0.0,0.0,0.0,0.0,0.0,0.0,0.0,0.0,0.0,0.0,0.0,-0.8825,-0.9955,-1.0779,0.0,-1.1133,-1.1178,-1.0952,-1.0237,-0.9514,-0.8846,0.0,0.0,0.0,0.0,0.0,0.0,0.0,0.0,0.0,0.0,0.0,0.0,0.0,0.0,0.0,0.0,0.0,0.0,0.0,0.0,0.0,0.0,0.0,0.0,0.0,0.0,0.0,0.0,0.0,0.0,0.0,0.0,0.0,0.0,0.0,0.0,0.0,0.0,0.0,0.0,0.0,0.0,0.0,0.0,0.0,0.0,0.0,0.0,0.0,0.0,0.0,0.0,0.0,0.0,0.0,0.0,0.0,0.0,0.0,0.0,0.0,0.0,0.0,0.0,0.0,0.0,0.0,0.0,0.0,0.0,0.0,0.0,0.0,0.0,0.0,0.0,0.0,0.0,0.0,0.0,0.0,0.0,0.0,0.0,0.0,0.0,0.0,0.0,0.0,0.0,0.0,0.0,0.0,0.0,0.0,0.0,0.0,0.0,0.0,0.0,0.0,0.0,-0.8692,-0.9797,-1.0587,-1.0587,-1.0587,-1.0587,-1.0587,-0.998,-0.9416,0.0,0.0,0.0,0.0,0.0,0.0,0.0,0.0,0.0,0.0,0.0,0.0,0.0,0.0,0.0,0.0,0.0,0.0,0.0,0.0,0.0,0.0,0.0,0.0,0.0,0.0,0.0,0.0,0.0,0.0,0.0,0.0,0.0,0.0,0.0,0.0,0.0,0.0,0.0,0.0,0.0,0.0,0.0,0.0,0.0,0.0,0.0,0.0,0.0,0.0,0.0,0.0,0.0,0.0,0.0,0.0,0.0,0.0,0.0,0.0,0.0,0.0,0.0,0.0,0.0,0.0,0.0,0.0,0.0,0.0,0.0,0.0,0.0,0.0,0.0,0.0,0.0,0.0,0.0,0.0,0.0,0.0,0.0,0.0,0.0,0.0,0.0,0.0,0.0,0.0,0.0,0.0,0.0,0.0,0.0,0.0,0.0,0.0,0.0,0.0,0.0,0.0,0.0,-0.8692,-0.9797,-1.0587,-1.0587,-1.0587,-1.0587,-1.0587,-0.9592,-0.8926,-0.8807,0.0,0.0,0.0,0.0,0.0,0.0,0.0,0.0,0.0,0.0,0.0,0.0,0.0,0.0,0.0,0.0,0.0,0.0,0.0,0.0,0.0,0.0,0.0,0.0,0.0,0.0,0.0,0.0,0.0,0.0,0.0,0.0,0.0,0.0,0.0,0.0,0.0,0.0,0.0,0.0,0.0,0.0,0.0,0.0,0.0,0.0,0.0,0.0,0.0,0.0,0.0,0.0,0.0,0.0,0.0,0.0,0.0,0.0,0.0,0.0,0.0,0.0,0.0,0.0,0.0,0.0,0.0,0.0,0.0,0.0,0.0,0.0,0.0,0.0,0.0,0.0,0.0,0.0,0.0,0.0,0.0,0.0,0.0,0.0,0.0,0.0,0.0,0.0,0.0,0.0,0.0,0.0,0.0,0.0,0.0,0.0,0.0,0.0,0.0,0.0,0.0,0.0,-0.8692,-0.9797,-1.0587,-1.0587,-1.0587,-1.0587,-1.0587,-0.9566,-0.8906,-0.8906,0.0,0.0,0.0,0.0,0.0,0.0,0.0,0.0,0.0,0.0,0.0,0.0,0.0,0.0,0.0,0.0,0.0,0.0,0.0,0.0,0.0,0.0,0.0,0.0,0.0,0.0,0.0,0.0,0.0,0.0,0.0,0.0,0.0,0.0,0.0,0.0,0.0,0.0,0.0,0.0,0.0,0.0,0.0,0.0,0.0,0.0,0.0,0.0,0.0,0.0,0.0,0.0,0.0,0.0,0.0,0.0,0.0,0.0,0.0,0.0,0.0,0.0,0.0,0.0,0.0,0.0,0.0,0.0,0.0,0.0,0.0,0.0,0.0,0.0,0.0,0.0,0.0,0.0,0.0,0.0,0.0,0.0,0.0,0.0,0.0,0.0,0.0,0.0,0.0,0.0,0.0,0.0,0.0,0.0,0.0,0.0,0.0,0.0,0.0,0.0,0.0,0.0,-0.876,-0.979,-1.0543,-1.0543,-1.0543,-1.0543,-1.0543,-0.9728,-0.9185,-0.9156,0.0,0.0,0.0,0.0,0.0,0.0,0.0,0.0,0.0,0.0,0.0,0.0,0.0,0.0,0.0,0.0,0.0,0.0,0.0,0.0,0.0,0.0,0.0,0.0,0.0,0.0,0.0,0.0,0.0,0.0,0.0,0.0,0.0,0.0,0.0,0.0,0.0,0.0,0.0,0.0,0.0,0.0,0.0,0.0,0.0,0.0,0.0,0.0,0.0,0.0,0.0,0.0,0.0,0.0,0.0,0.0,0.0,0.0,0.0,0.0,-1.2122,-1.1528,0.0,0.0,0.0,0.0,0.0,0.0,0.0,0.0,0.0,0.0,0.0,0.0,0.0,0.0,0.0,0.0,0.0,0.0,0.0,0.0,0.0,0.0,0.0,0.0,0.0,0.0,0.0,0.0,0.0,0.0,0.0,0.0,0.0,0.0,0.0,0.0,0.0,0.0,0.0,0.0,-0.9097,-0.9738,-1.0207,-1.0207,-1.0207,-1.0207,-1.0207,-0.9603,-0.909,-0.8833,-0.8752,0.0,0.0,0.0,0.0,0.0,0.0,0.0,0.0,0.0,0.0,0.0,0.0,0.0,0.0,0.0,0.0,0.0,0.0,0.0,0.0,0.0,0.0,0.0,0.0,0.0,0.0,0.0,0.0,0.0,0.0,0.0,0.0,0.0,0.0,0.0,0.0,0.0,0.0,0.0,0.0,0.0,0.0,0.0,0.0,0.0,0.0,0.0,0.0,0.0,0.0,0.0,0.0,0.0,0.0,0.0,0.0,0.0,0.0,0.0,-1.3188,-1.2489,0.0,0.0,0.0,0.0,0.0,0.0,0.0,0.0,0.0,0.0,0.0,0.0,0.0,0.0,0.0,0.0,0.0,0.0,0.0,0.0,0.0,0.0,0.0,0.0,0.0,0.0,0.0,0.0,0.0,0.0,0.0,0.0,0.0,0.0,0.0,0.0,0.0,0.0,0.0,0.0,-0.92,-0.9716,-1.0104,-1.0104,-1.0104,-1.0104,-1.0104,-0.9559,-0.9126,-0.8958,-0.8796,0.0,0.0,0.0,0.0,0.0,0.0,0.0,0.0,0.0,0.0,0.0,0.0,0.0,0.0,0.0,0.0,0.0,0.0,0.0,0.0,0.0,0.0,0.0,0.0,0.0,0.0,0.0,0.0,0.0,0.0,0.0,0.0,0.0,0.0,0.0,0.0,0.0,0.0,0.0,0.0,0.0,0.0,0.0,0.0,0.0,0.0,0.0,0.0,0.0,0.0,0.0,0.0,0.0,-1.546,-1.5559,-1.5649,-1.5679,-1.5778,-1.5898,-1.484,-1.3979,-1.3277,-1.2681,0.0,0.0,0.0,0.0,0.0,0.0,0.0,0.0,0.0,0.0,0.0,0.0,0.0,0.0,0.0,0.0,0.0,0.0,0.0,0.0,0.0,0.0,-1.0341,-1.0282,-1.0311,-1.024,-0.9875,0.0,0.0,0.0,0.0,0.0,0.0,0.0,0.0,0.0,0.0,0.0,-0.9354,-0.9782,-1.0104,-1.0104,-1.0104,-1.0075,-1.0016,-0.9548,-0.9258,-0.9207,-0.895,-0.8774,0.0,0.0,0.0,0.0,0.0,0.0,0.0,0.0,0.0,0.0,0.0,0.0,0.0,0.0,0.0,0.0,0.0,0.0,0.0,0.0,0.0,0.0,0.0,0.0,0.0,0.0,0.0,0.0,0.0,0.0,0.0,0.0,-1.6819,-1.7297,0.0,0.0,0.0,0.0,0.0,0.0,0.0,0.0,0.0,0.0,0.0,0.0,0.0,-1.6417,-1.6713,-1.7108,-1.7122,-1.684,-1.7348,-1.7566,-1.7456,-1.7566,-1.7828,-1.8149,-1.7638,0.0,-1.4204,-1.3895,0.0,0.0,0.0,0.0,0.0,0.0,0.0,0.0,0.0,0.0,0.0,0.0,0.0,0.0,0.0,0.0,0.0,0.0,0.0,0.0,0.0,0.0,-1.134,-1.105,-1.1095,-1.1129,-1.0727,-1.009,-0.9588,-0.9588,-0.9588,-0.9599,0.0,0.0,0.0,0.0,0.0,0.0,-0.9943,-1.0046,-1.0104,-1.0104,-1.0104,-0.9987,-0.9702,-0.9599,-0.9446,-0.9214,-0.9163,-0.9009,-0.8699,-0.9024,0.0,0.0,0.0,0.0,0.0,0.0,0.0,0.0,0.0,0.0,0.0,0.0,0.0,0.0,0.0,0.0,0.0,0.0,0.0,0.0,0.0,0.0,0.0,0.0,0.0,0.0,0.0,0.0,0.0,-1.696,-1.7472,-1.7945,-1.7822,-1.7667,0.0,0.0,0.0,0.0,0.0,0.0,0.0,0.0,0.0,-1.8064,-1.7928,-1.8035,-1.8404,-1.8724,-1.8952,-1.9051,-1.9319,-1.9443,-1.937,-1.9443,-1.9551,-1.9707,-1.9521,-1.8598,-1.7073,-1.5899,-1.5213,-1.4887,0.0,0.0,0.0,0.0,-1.3351,-1.3002,-1.2722,-1.2488,-1.2381,-1.2696,0.0,0.0,0.0,0.0,0.0,0.0,0.0,-1.2043,-1.2595,-1.261,-1.2452,-1.2325,-1.2251,-1.2081,-1.1541,-1.1002,-1.047,-0.9985,-0.9885,-0.9826,-0.9617,-0.9588,0.0,0.0,0.0,-1.0009,-1.0331,-1.0375,-1.0375,-1.0375,-1.0207,-1.0046,-0.9899,-0.9716,-0.9555,-0.9431,-0.9424,-0.9358,-0.9219,-0.9343,-0.9424,0.0,0.0,0.0,0.0,0.0,0.0,0.0,0.0,0.0,0.0,0.0,0.0,0.0,0.0,0.0,0.0,0.0,0.0,0.0,0.0,0.0,0.0,0.0,0.0,0.0,0.0,0.0,0.0,-1.775,-1.8278,-1.8837,-1.8839,-1.8766,0.0,0.0,0.0,0.0,0.0,0.0,-1.8717,-1.8947,-1.9084,-1.9084,-1.9271,-1.9489,-1.9767,-2.0077,-2.041,-2.0732,-2.0889,-2.0938,-2.0938,-2.0938,-2.0997,-2.1094,-2.0987,-2.0596,-1.9971,-1.8032,-1.7027,-1.6661,-1.6019,-1.5678,-1.5543,-1.5287,-1.5009,-1.476,-1.4439,-1.4273,-1.4182,-1.4467,-1.4385,-1.4175,-1.4148,0.0,0.0,0.0,0.0,-1.3617,-1.4308,-1.435,-1.4172,-1.4016,-1.3794,-1.3395,-1.2708,-1.2211,-1.1594,-1.0549,-1.0287,-1.0148,-0.9907,-0.9863,0.0,0.0,0.0,-1.0346,-1.0667,-1.074,-1.074,-1.074,-1.0492,-1.0316,-1.0228,-0.9929,-0.9738,-0.9738,-0.9658,-0.9588,-0.9588,-0.9588,-0.9588,-0.9588,0.0,0.0,0.0,0.0,0.0,0.0,0.0,0.0,0.0,0.0,0.0,0.0,0.0,0.0,0.0,0.0,0.0,0.0,0.0,0.0,0.0,0.0,0.0,0.0,0.0,0.0,0.0,0.0,0.0,-2.0213,-1.9955,0.0,0.0,0.0,0.0,-1.9393,-1.9762,-2.0092,-2.038,-2.0558,-2.0671,-2.0671,-2.0575,-2.0517,-2.0537,-2.0947,-2.1142,-2.1171,-2.1621,-2.1816,-2.1816,-2.1816,-2.2041,-2.2393,-2.1992,-2.2021,-2.2187,-2.0039,-1.8682,-1.7906,-1.7857,-1.7779,-1.7634,-1.7411,-1.7182,-1.6917,-1.6702,-1.6555,-1.6388,-1.6147,-1.5898,-1.5633,-1.5237,-1.5232,0.0,0.0,-1.5313,-1.5724,-1.5802,-1.634,-1.6777,-1.6272,-1.5791,-1.526,-1.4514,-1.3819,-1.2846,-1.133,-1.0806,-1.0558,-1.0543,0.0,-1.0572,-1.0558,-1.0565,-1.0711,-1.1041,-1.1078,-1.1078,-1.1078,-1.1063,-1.0931,-1.0587,-1.0265,-1.0075,-1.0075,-0.9782,-0.9588,-0.9588,-0.9588,-0.9588,-0.9588,-0.9588,0.0,0.0,0.0,0.0,0.0,0.0,0.0,0.0,0.0,0.0,0.0,0.0,0.0,0.0,0.0,0.0,0.0,0.0,0.0,0.0,0.0,0.0,0.0,0.0,0.0,0.0,0.0,0.0,-2.1166,-2.1166,0.0,-2.1709,-2.1312,-2.1107,-2.1373,-2.1659,-2.186,-2.1988,-2.2209,-2.232,-2.2268,-2.2278,-2.2236,-2.2227,-2.234,-2.2418,-2.2418,-2.2574,-2.2652,-2.2652,-2.2652,-2.273,-2.2867,-2.2711,-2.2627,-2.2451,-2.168,-2.0684,-1.9619,-1.9346,-1.9036,-1.8757,-1.8543,-1.84,-1.8301,-1.8103,-1.7985,-1.792,-1.7668,-1.7546,-1.7415,-1.7087,-1.6992,-1.7001,-1.7167,-1.7198,-1.7259,-1.7625,-1.7733,-1.7779,-1.7561,-1.7196,-1.675,-1.6209,-1.5527,-1.4773,-1.3978,-1.2764,-1.1805,-1.1495,-1.1428,-1.1442,-1.1487,-1.1485,-1.1529,-1.1646,-1.1692,-1.1611,-1.1445,-1.1232,-1.1056,-1.0938,-1.0602,-1.0411,-1.0411,-1.0302,-1.0148,-0.9936,-0.9929,-0.9826,-0.9595,-0.9588,-0.9716,0.0,0.0,0.0,0.0,0.0,0.0,0.0,0.0,0.0,0.0,0.0,0.0,0.0,0.0,0.0,0.0,0.0,0.0,0.0,0.0,0.0,0.0,0.0,0.0,0.0,0.0,-2.1248,-2.278,-2.2876,-2.3053,-2.3634,-2.3214,-2.2896,-2.2978,-2.316,-2.3189,-2.3156,-2.3438,-2.3584,-2.352,-2.3584,-2.3584,-2.352,-2.3383,-2.3359,-2.3315,-2.3169,-2.3169,-2.3305,-2.3159,-2.3179,-2.3305,-2.3159,-2.2935,-2.2682,-2.2682,-2.2129,-2.1222,-2.0752,-2.041,-2.0166,-2.0023,-1.9985,-1.9956,-1.9649,-1.9362,-1.9075,-1.8962,-1.8814,-1.8686,-1.85,-1.8368,-1.8356,-1.8621,-1.8651,-1.8659,-1.9009,-1.9079,-1.9005,-1.8929,-1.8554,-1.8114,-1.7698,-1.7015,-1.6339,-1.5931,-1.4438,-1.3078,-1.2611,-1.245,-1.2352,-1.2336,-1.2237,-1.2164,-1.2164,-1.2164,-1.2047,-1.1758,-1.1531,-1.1355,-1.1276,-1.0968,-1.0777,-1.0777,-1.0646,-1.0492,-1.0272,-1.0265,-1.0163,-0.9943,-0.9943,-1.0018,-1.0182,0.0,0.0,0.0,0.0,0.0,0.0,0.0,0.0,0.0,0.0,0.0,0.0,0.0,0.0,0.0,0.0,0.0,0.0,0.0,0.0,0.0,0.0,0.0,-2.1135,-2.1994,-2.3256,-2.5034,-2.502,-2.506,-2.5528,-2.4882,-2.4396,-2.4192,-2.4192,-2.4112,-2.3887,-2.4277,-2.4492,-2.4482,-2.4482,-2.4463,-2.4434,-2.4033,-2.3828,-2.3809,-2.3379,-2.3398,-2.3799,-2.3369,-2.3364,-2.3769,-2.334,-2.311,-2.3091,-2.3091,-2.2857,-2.249,-2.207,-2.1894,-2.1885,-2.1885,-2.1875,-2.1807,-2.1346,-2.0625,-1.9932,-1.9932,-1.9658,-1.9326,-1.9326,-1.9326,-1.9326,-1.9326,-1.9619,-1.9932,-1.9932,-2.0244,-2.0566,-2.0342,-1.9831,-1.9297,-1.8906,-1.8223,-1.7539,-1.7125,-1.5692,-1.4423,-1.3943,-1.3579,-1.3306,-1.3088,-1.2782,0.0,-1.2536,-1.2521,-1.2397,-1.2069,-1.2025,-1.1926,-1.165,-1.1335,-1.1151,-1.1151,-1.085,-1.0646,-1.0631,-1.0652,-1.0609,-1.0587,-1.0594,-1.0516,-1.0308,0.0,0.0,0.0,0.0,0.0,0.0,0.0,0.0,0.0,0.0,0.0,0.0,0.0,0.0,0.0,0.0,0.0,0.0,0.0,0.0,0.0,0.0,-2.2977,-2.3101,-2.3908,-2.4939,-2.6202,-2.6319,-2.6435,-2.6852,-2.6396,-2.6131,-2.6202,-2.6172,-2.6172,-2.6133,-2.624,-2.6162,-2.5859,-2.585,-2.5537,-2.4893,-2.4822,-2.456,-2.4248,-2.4121,-2.4131,-2.4238,-2.4121,-2.3965,-2.3779,-2.3662,-2.3428,-2.3091,-2.3091,-2.3023,-2.2877,-2.251,-2.2158,-2.1885,-2.1885,-2.168,-2.1356,-2.1239,-2.0859,-2.0429,-2.0429,-2.0341,-2.0253,-2.0253,-2.0253,-2.0253,-2.0253,-2.0331,-2.0429,-2.0429,-2.0517,-2.0566,-2.0342,-2.0012,-1.9693,-1.942,-1.8867,-1.8324,-1.8079,-1.7119,-1.6078,-1.511,-1.4759,-1.4479,-1.4146,-1.4027,0.0,-1.3616,-1.3375,-1.3104,-1.2775,-1.2499,-1.2317,-1.2262,-1.2175,-1.2123,-1.2123,-1.2036,-1.1882,-1.1648,-1.1414,-1.11,-1.0594,-1.0697,-1.0731,0.0,0.0,0.0,0.0,0.0,0.0,0.0,0.0,0.0,0.0,0.0,0.0,0.0,0.0,0.0,0.0,0.0,0.0,0.0,0.0,0.0,0.0,-2.3804,-2.5098,-2.5858,-2.6095,-2.6539,-2.7641,-2.7814,-2.7922,-2.8234,-2.769,-2.7361,-2.7285,-2.7119,-2.7012,-2.7012,-2.7012,-2.6904,-2.666,-2.6484,-2.6143,-2.5673,-2.5302,-2.4941,-2.4687,-2.4502,-2.4512,-2.4687,-2.4502,-2.4385,-2.4307,-2.3945,-2.3652,-2.3398,-2.3169,-2.3091,-2.3071,0.0,0.0,0.0,0.0,-2.2031,-2.1504,-2.1504,-2.1094,-2.0605,-2.0605,-2.0693,-2.084,-2.084,-2.0977,-2.1124,-2.0898,-2.084,-2.0801,-2.0654,-2.0527,-2.045,-2.0342,-2.0108,-1.9863,-1.9754,-1.932,-1.8882,-1.8683,-1.787,0.0,-1.5959,-1.5456,-1.5089,-1.4709,-1.4553,-1.4438,-1.4247,-1.4056,-1.3777,-1.3448,-1.3126,-1.2877,-1.2738,-1.2565,0.0,0.0,0.0,-1.2263,-1.1976,-1.1797,0.0,0.0,0.0,-1.1227,-1.1171,-1.1288,0.0,0.0,-1.0426,-1.031,0.0,0.0,0.0,0.0,0.0,0.0,0.0,0.0,0.0,0.0,0.0,0.0,0.0,0.0,0.0,0.0,-2.5747,-2.6998,-2.8706,-2.8289,-2.8178,-2.9089,-2.9311,-2.9396,-2.9406,-2.8785,-2.8203,-2.7832,-2.7402,-2.7158,-2.7158,-2.7109,0.0,0.0,0.0,-2.6367,-2.6318,-2.5537,-2.5194,-2.5137,-2.4746,-2.4766,-2.5127,-2.4746,-2.4746,-2.5077,-2.4268,-2.3906,-2.3828,-2.3344,-2.314,-2.3091,-2.3091,-2.3091,-2.3091,-2.3091,-2.2637,-2.1953,-2.1953,0.0,0.0,-2.0752,-2.0986,-2.1268,-2.1268,-2.1582,-2.1807,-2.1416,-2.1229,-2.1103,-2.0742,-2.0449,-2.0303,-2.0225,-2.0029,-1.9863,-1.9824,-1.9508,-1.9192,-1.9002,-1.808,-1.7098,-1.6517,-1.5779,-1.5227,-1.4911,-1.467,-1.4535,-1.4535,-1.4506,-1.4367,-1.4083,-1.3717,0.0,-1.3069,-1.2744,-1.2494,-1.2279,-1.2279,-1.2197,-1.1957,-1.195,-1.1936,-1.1901,-1.1901,-1.1833,-1.1703,-1.1669,-1.1465,-1.1035,-1.0902,-1.0767,0.0,0.0,0.0,0.0,0.0,0.0,0.0,0.0,0.0,0.0,0.0,0.0,0.0,0.0,0.0,-2.6972,-2.7815,-2.8594,-2.95,-2.9843,-2.9988,-2.9843,-2.9848,-2.9786,-2.9564,-2.9108,-2.876,-2.8682,-2.8281,-2.8047,-2.8047,-2.7725,-2.7373,-2.7021,-2.6602,-2.6221,-2.582,-2.5645,-2.5557,-2.5557,-2.5469,0.0,-2.5605,-2.5469,-2.5332,-2.5106,-2.494,-2.4619,-2.4258,-2.3838,-2.3457,-2.3091,-2.3091,-2.3091,-2.3091,-2.3091,-2.2822,-2.2393,-2.2393,-2.206,-2.1631,-2.1631,-2.1689,-2.1758,-2.1758,-2.1816,0.0,-2.1787,-2.1504,-2.1131,-2.0904,-2.0554,-2.0186,-1.9833,-1.9715,-1.9597,-1.946,-1.9112,-1.8812,-1.878,-1.7716,-1.673,-1.6435,-1.5838,-1.5223,-1.4816,-1.4684,-1.4648,-1.4648,-1.4471,-1.4294,-1.4231,-1.3949,-1.3593,-1.3276,-1.3191,-1.3051,-1.2775,-1.2754,-1.2642,-1.2319,-1.2305,-1.2186,-1.1901,-1.1799,-1.1737,-1.1703,-1.1526,-1.1396,-1.1336,-1.1075,-1.0941,0.0,0.0,0.0,0.0,0.0,0.0,0.0,0.0,0.0,0.0,0.0,-2.4219,0.0,0.0,-2.7059,-2.87,-2.9465,-2.9964,-3.0369,-3.0751,-3.0715,-3.0167,-3.0325,-3.0317,-2.9959,-2.9687,-2.9375,-2.8955,-2.8721,-2.8516,-2.8301,-2.8096,-2.7783,-2.7353,-2.6924,-2.6494,-2.6064,-2.5801,-2.5693,-2.5693,-2.5693,-2.5693,-2.5693,-2.5693,-2.5567,-2.5391,-2.5213,-2.4988,-2.4687,-2.4053,-2.3662,-2.3437,-2.3179,-2.3091,-2.3091,-2.3091,-2.2828,-2.251,-2.251,-2.2236,-2.1885,-2.1885,-2.2031,-2.2197,-2.2197,-2.2344,-2.2471,-2.2256,-2.2041,-2.1736,-2.1167,-2.0736,-2.0326,-1.9841,-1.9597,-1.9429,-1.9301,-1.9073,-1.8812,-1.874,-1.7878,-1.7049,-1.6476,-1.585,-1.5228,-1.4776,-1.4692,-1.4692,-1.4692,-1.4559,-1.451,-1.451,-1.423,-1.3985,-1.3791,-1.3553,-1.3324,-1.3217,-1.3096,-1.2996,-1.2808,-1.2681,-1.2531,-1.2337,-1.2116,-1.2006,-1.2006,-1.1899,-1.179,-1.1643,-1.1496,-1.1356,0.0,0.0,0.0,0.0,0.0,0.0,0.0,0.0,-2.4529,-2.4974,-2.553,-2.6382,-2.762,-2.8162,-2.8887,-3.018,-3.0771,-3.1131,-3.1297,-3.1257,-3.0952,-3.0358,-3.0663,-3.0742,-3.0371,-3.0244,-2.9883,-2.9101,-2.8965,-2.874,-2.831,-2.8213,-2.8018,-2.7728,-2.7168,-2.6728,-2.6396,-2.5908,-2.5693,-2.5693,-2.5693,-2.5693,-2.5693,-2.5693,-2.5693,-2.5664,-2.5352,-2.5194,-2.5067,-2.4326,-2.3935,-2.375,-2.3364,-2.3169,-2.3091,-2.3091,-2.2877,-2.2637,-2.2637,-2.2412,-2.2129,-2.2129,-2.2353,-2.2637,-2.2637,-2.2828,-2.3023,-2.2734,-2.2578,-2.2311,-2.1588,-2.0984,-2.0491,-2.0071,-1.9643,-1.9301,-1.9301,-1.9152,-1.8962,-1.8772,-1.8193,-1.7456,-1.6632,-1.5891,-1.5228,-1.4734,-1.4608,-1.4573,-1.4573,-1.4573,-1.4573,-1.4573,-1.44,-1.4226,-1.4164,-1.372,-1.3423,-1.3423,-1.3279,-1.3213,-1.3213,-1.2973,-1.2844,-1.2784,-1.2549,-1.2365,-1.2305,-1.2365,-1.2238,-1.1993,-1.2047,-1.1886,-2.0488,-2.099,-2.1787,-2.2656,-2.3267,-2.3857,0.0,0.0,-2.6449,-2.6905,-2.7966,-2.9021,-2.958,-3.0067,-3.0688,-3.1595,-3.1599,-3.1656,-3.2115,-3.1368,-3.075,-3.0633,-3.0798,-3.0869,-3.082,-3.0439,-3.0,-2.9531,-2.9141,-2.874,-2.831,-2.7939,-2.7767,-2.7718,-2.6885,-2.6435,-2.6387,-2.5908,-2.5693,-2.5693,-2.5693,-2.5693,-2.5693,-2.5693,-2.5693,-2.5684,-2.5635,-2.5439,-2.5106,-2.5008,-2.4519,-2.3779,-2.374,-2.3486,-2.3091,-2.3091,-2.3062,-2.3023,-2.3023,-2.2994,-2.2955,-2.2955,-2.2984,-2.3023,-2.3023,-2.3052,-2.3081,-2.3042,-2.276,-2.2448,-2.2148,-2.1352,-2.0526,-2.0326,-1.9777,-1.9301,-1.9301,-1.9152,-1.9002,-1.8962,-1.8273,-1.7529,-1.7041,-1.609,-1.5186,-1.4524,-1.4286,-1.4173,-1.4173,-1.4173,-1.4173,-1.4173,-1.4139,-1.4011,-1.3708,-1.3414,-1.3246,-1.3246,-1.3206,-1.3213,-1.3213,-1.318,-1.3026,-1.279,-1.275,-1.2603,-1.2305,-1.2603,-1.2583,-1.2258,-1.2563,-1.2388,-2.0731,-2.1694,-2.2832,0.0,-2.4716,-2.5661,-2.6268,-2.7314,-2.8286,-2.8752,-2.9518,-3.0336,-3.105,-3.134,-3.1692,0.0,-3.2323,-3.2179,-3.1927,-3.1527,-3.0886,-3.0052,-2.9994,-3.0089,-3.0154,-2.9951,-2.9648,-2.9228,-2.9023,-2.874,-2.831,-2.8125,-2.792,-2.7728,-2.7366,-2.7012,-2.6758,-2.6572,-2.6357,-2.6113,-2.6113,-2.5986,-2.5693,-2.5693,-2.5693,-2.5693,-2.5693,-2.5586,-2.5439,-2.5223,-2.4707,-2.4131,-2.3887,-2.3525,-2.3091,-2.3091,-2.3091,-2.3091,-2.3091,-2.3091,-2.3091,-2.3091,-2.3091,-2.3091,-2.3091,-2.3091,-2.3091,-2.3091,-2.2974,-2.2779,-2.245,-2.1824,-2.114,-2.0608,-2.004,-1.9604,-1.9356,-1.9222,-1.9112,-1.8851,-1.8698,-1.8266,-1.7274,-1.6726,-1.602,-1.5028,-1.4443,-1.4088,-1.4088,-1.4088,-1.4088,-1.4088,-1.4088,-1.4035,-1.3915,-1.3788,-1.3721,-1.3721,-1.3721,-1.3721,-1.3721,-1.3554,-1.336,-1.3273,-1.3106,-1.2953,-1.2832,-1.2953,-1.2953,-1.2826,-1.2811,-1.265,-2.1435,-2.2697,0.0,-2.5037,-2.6216,-2.7324,-2.8087,-2.9073,-2.9973,-3.0315,-3.0739,-3.1226,-3.1764,-3.1857,-3.2012,-3.2411,-3.2483,-3.2303,-3.1794,-3.1416,-3.0746,-2.9509,-2.9049,-2.8858,-2.8892,-2.918,-2.9258,-2.8945,-2.8916,-2.874,-2.831,-2.8291,-2.8154,-2.7851,-2.7777,-2.7562,-2.7197,-2.707,-2.6865,-2.6562,-2.6445,-2.6221,-2.5869,-2.5742,-2.5693,-2.5693,-2.5693,-2.5693,-2.5664,-2.5391,-2.4922,-2.4385,-2.4082,-2.3623,-2.3091,-2.3091,-2.3091,-2.3091,-2.3091,-2.3091,-2.3091,-2.3091,-2.3091,-2.3091,-2.3091,-2.3091,-2.3091,-2.3091,-2.3091,-2.3023,-2.2678,-2.2169,-2.1632,-2.1017,-2.0462,-2.0008,-1.9705,-1.9632,-1.952,-1.9173,-1.9191,-1.891,-1.7738,-1.7215,-1.6608,-1.5468,-1.4679,-1.4175,-1.4095,-1.4088,-1.4088,-1.4088,-1.4088,-1.4088,-1.4088,-1.4088,-1.4088,-1.4088,-1.4088,-1.4088,-1.4088,-1.3881,-1.3686,-1.36,-1.34,-1.3287,-1.3213,-1.3287,-1.3287,-1.3206,-1.306,-1.2991,-2.2873,0.0,-2.5492,-2.6884,-2.7872,-2.8907,-3.0274,-3.0967,-3.1319,-3.1329,-3.1692,-3.1878,-3.1474,-3.1391,-3.1536,-3.1936,-3.2008,-3.1998,-3.1988,-3.0984,-2.9977,-2.9285,-2.8191,-2.7367,0.0,-2.8213,-2.8935,-2.8916,-2.8916,-2.874,-2.831,-2.8291,-2.8281,-2.8271,-2.7881,-2.7708,-2.7699,-2.7226,-2.7012,-2.6992,-2.6582,-2.6387,-2.6357,-2.5937,-2.5693,-2.5693,-2.5693,-2.5693,-2.5693,-2.5674,-2.5157,-2.4414,-2.4404,-2.3842,-2.3091,-2.3091,-2.3091,-2.3091,-2.3091,-2.3091,-2.3091,-2.3091,-2.3091,-2.3091,-2.3091,-2.3091,-2.3091,-2.3091,-2.3091,-2.3047,-2.2828,-2.2303,-2.173,-2.1512,-2.0957,-2.0493,-2.0484,-2.0484,-2.04,-2.0199,-1.9818,-1.9264,-1.8483,-1.7458,-1.6448,-1.5698,-1.495,-1.4402,-1.4122,-1.4088,-1.4088,-1.4088,-1.4088,-1.4088,-1.4088,-1.4088,-1.4088,-1.4088,-1.4088,-1.4088,-1.4088,-1.4082,-1.3941,-1.3613,-1.3593,-1.3453,-1.3213,-1.3453,-1.3447,-1.322,-1.3447,-1.3427,-2.3552,0.0,-2.7087,-2.8325,-2.9539,-3.0646,-3.1412,-3.1702,-3.1733,-3.1443,-3.1008,-3.0543,-3.0087,-3.0005,-3.0046,-3.0201,-3.089,-3.1289,-3.0976,-3.061,-2.9922,-2.8758,-2.7794,0.0,0.0,0.0,0.0,-2.8066,-2.8086,-2.8144,-2.8281,-2.8291,-2.8291,-2.8291,-2.8154,-2.8086,-2.8086,-2.793,-2.7578,-2.7012,-2.6299,-2.5957,-2.5947,-2.5752,-2.5693,-2.5693,-2.5693,-2.5693,-2.5693,-2.5693,-2.5167,-2.4414,-2.4414,-2.3851,-2.3091,-2.3091,-2.3091,-2.3091,-2.3091,-2.3091,-2.3091,-2.3091,-2.3091,-2.3091,-2.3091,-2.3013,-2.2925,-2.3057,-2.2882,-2.2662,-2.275,-2.2391,-2.1905,-2.1571,-2.1179,-2.0842,-2.0576,-2.0521,-2.0395,-2.0023,-2.0014,-1.9704,-1.8563,-1.7951,-1.7062,-1.5462,-1.4656,-1.4202,-1.4095,-1.4088,-1.4088,-1.4088,-1.4088,-1.4088,-1.4088,-1.4088,-1.4088,-1.4088,-1.4088,-1.4088,-1.4088,-1.4088,-1.4041,-1.3941,-1.3941,-1.3888,-1.3794,-1.3888,-1.3888,-1.3788,-1.3646,-1.3547,-2.5008,-2.6865,-2.8663,-2.9901,-3.0994,-3.1913,-3.225,-3.2187,-3.1842,-3.107,-3.0162,-2.9326,-2.869,-2.8564,-2.8679,-2.9013,-2.9992,-3.0716,-3.0579,-3.0443,-2.9901,-2.8581,-2.769,-2.7022,0.0,0.0,0.0,-2.7669,-2.7718,-2.7904,-2.8271,-2.8291,-2.8291,-2.8291,-2.8291,-2.8291,-2.8291,-2.8291,-2.7861,-2.7012,-2.6309,-2.584,-2.5693,-2.5693,-2.5693,-2.5693,-2.5693,-2.5693,-2.5693,-2.5693,-2.5167,-2.4414,-2.4414,-2.3851,-2.3091,-2.3091,-2.3091,-2.3091,-2.3091,-2.3091,-2.3091,-2.3091,-2.3091,-2.3091,-2.3091,-2.2969,-2.2847,-2.2969,-2.2706,-2.2441,-2.253,-2.2318,-2.2031,-2.1664,-2.1425,-2.122,-2.0964,-2.0909,-2.0832,-2.0452,-2.043,-2.0146,-1.9073,-1.8208,-1.7117,-1.554,-1.4798,-1.4322,-1.4115,-1.4088,-1.4088,-1.4088,-1.4088,-1.4088,-1.4088,-1.4088,-1.4088,-1.4088,-1.4088,-1.4088,-1.4088,-1.4088,-1.4088,-1.4088,-1.4088,-1.4088,-1.4088,-1.4088,-1.4088,-1.4082,-1.3895,-1.376,-2.7178,-2.8722,-3.0129,-3.1493,-3.2164,-3.2535,-3.2836,-3.2476,-3.17,-3.0306,-2.9183,-2.8158,0.0,0.0,-2.7342,-2.8285,-2.9299,-3.0157,-3.0657,-3.0525,-2.9962,0.0,0.0,0.0,0.0,0.0,0.0,-2.766,0.0,-2.7904,-2.8271,-2.8291,-2.8291,-2.8291,-2.8291,-2.8291,-2.8291,-2.8252,-2.7822,-2.7012,-2.6562,-2.6143,-2.5693,-2.5693,-2.5693,-2.5693,-2.5693,-2.5693,-2.5693,-2.5664,-2.5195,-2.4414,-2.4394,-2.3832,-2.3091,-2.3091,-2.3091,-2.3091,-2.3091,-2.3091,-2.3091,-2.3091,-2.3091,-2.3091,-2.3091,-2.2969,-2.2803,-2.2803,-2.2618,-2.2353,-2.2141,-2.2097,-2.2008,-2.1785,-2.1696,-2.1696,-2.1696,-2.1696,-2.1651,-2.1437,-2.1024,-2.0473,-1.9973,-1.8223,-1.6651,-1.5918,-1.5345,-1.4821,-1.4188,-1.4108,-1.4108,-1.4088,-1.4088,-1.4088,-1.4088,-1.4088,-1.4088,-1.4088,-1.4088,-1.4088,-1.4088,-1.4088,-1.4088,-1.4088,-1.4088,-1.4088,-1.4088,-1.4088,-1.4088,-1.4088,-1.4088,-1.4088,-2.8593,-3.0174,-3.1677,-3.2188,-3.2395,-3.244,-3.2585,-3.1698,-3.0507,-2.9262,-2.7551,-2.6097,0.0,0.0,0.0,-2.6119,-2.7679,0.0,-2.9651,-3.0035,0.0,-2.9509,0.0,-2.8064,-2.7331,-2.719,0.0,0.0,-2.7718,-2.7904,-2.8271,-2.8291,-2.8291,-2.8291,-2.8291,-2.8291,-2.8291,-2.7656,-2.7226,-2.7002,-2.626,-2.5801,-2.5693,-2.5693,-2.5693,-2.5693,-2.5693,-2.5693,-2.5664,-2.5371,-2.4912,-2.4385,-2.4072,-2.3613,-2.3091,-2.3091,-2.3091,-2.3091,-2.3091,-2.3091,-2.3091,-2.3091,-2.3091,-2.3091,-2.3091,-2.2969,-2.2803,-2.2803,-2.2495,-2.2141,-2.2097,-2.1963,-2.1785,-2.1741,-2.1696,-2.1696,-2.1696,-2.1696,-2.1651,-2.1437,-2.0708,-1.9928,-1.9471,-1.8187,-1.6943,-1.6162,-1.5606,-1.507,-1.4482,-1.4409,-1.4322,-1.4108,-1.4088,-1.4088,-1.4088,-1.4088,-1.4088,-1.4088,-1.4088,-1.4088,-1.4088,-1.4088,-1.4088,-1.4088,-1.4088,-1.4088,-1.4088,-1.4088,-1.4088,-1.4088,-1.4088,-1.4088,-3.0858,-3.202,-3.311,-3.3412,-3.3072,-3.2641,-3.2421,-3.1199,-2.9643,-2.8132,-2.6367,0.0,-2.4401,0.0,0.0,0.0,0.0,0.0,-2.9976,-3.058,-3.0693,0.0,-2.9337,0.0,-2.8106,-2.802,-2.8041,0.0,-2.7878,-2.7904,-2.8271,-2.8291,-2.8291,-2.8291,-2.8291,-2.8291,-2.8291,-2.7441,-2.7012,-2.7002,-2.6093,-2.5693,-2.5693,-2.5693,-2.5693,-2.5693,-2.5693,-2.5693,-2.5654,-2.5254,-2.4814,-2.4375,-2.3955,-2.3525,-2.3091,-2.3091,-2.3091,-2.3091,-2.3091,-2.3091,-2.3091,-2.3091,-2.3091,-2.3091,-2.3091,-2.2969,-2.2803,-2.2662,-2.2362,-2.2052,-2.1963,-2.183,-2.1696,-2.1696,-2.1696,-2.1696,-2.1696,-2.1696,-2.1651,-2.1437,-2.0984,-2.0388,-1.9533,-1.8481,-1.75,-1.6629,-1.6058,-1.5517,-1.4963,-1.4683,-1.4456,-1.4295,-1.4162,-1.4088,-1.4088,-1.4088,-1.4088,-1.4088,-1.4088,-1.4088,-1.4088,-1.4088,-1.4088,-1.4088,-1.4088,-1.4088,-1.4088,-1.4088,-1.4088,-1.4088,-1.4088,-1.4088,-3.3486,-3.4016,-3.4372,-3.4707,-3.3779,-3.2612,-3.2083,-3.0572,-2.8744,-2.6888,0.0,-2.4104,-2.3517,-2.3923,-2.4854,-2.6347,0.0,-3.0136,-3.0723,-3.1417,-3.1475,-3.0395,-2.9854,-2.9404,-2.9106,-2.8931,-2.8834,-2.8781,-2.817,-2.7963,-2.8271,-2.8291,-2.8291,-2.8291,-2.8291,-2.8291,-2.8291,-2.7441,-2.7012,-2.7002,-2.6093,-2.5693,-2.5693,-2.5693,-2.5693,-2.5693,-2.5693,-2.5693,-2.5654,-2.5254,-2.4844,-2.4463,-2.4033,-2.3643,-2.3266,-2.3266,-2.3266,-2.3266,-2.3266,-2.3266,-2.3247,-2.313,-2.3091,-2.311,-2.3169,-2.3057,-2.29,-2.2682,-2.2478,-2.2246,-2.1922,-2.1814,-2.176,-2.1705,-2.1696,-2.1696,-2.1696,-2.1733,-2.1724,-2.1563,-2.1561,-2.12,-1.9887,-1.8988,-1.811,-1.716,-1.6555,-1.6035,-1.5531,-1.4977,-1.4609,-1.4529,-1.4295,-1.4128,-1.4088,-1.4088,-1.4088,-1.4088,-1.4088,-1.4088,-1.4088,-1.4088,-1.4088,-1.4088,-1.4088,-1.4088,-1.4088,-1.4088,-1.4088,-1.4088,-1.4088,-1.4088,-3.5613,-3.5534,-3.5309,-3.4687,-3.3019,-3.1276,-3.048,-2.8622,0.0,0.0,-2.3829,-2.2693,-2.2429,-2.2729,-2.3486,-2.4869,0.0,0.0,0.0,0.0,-3.1294,0.0,0.0,0.0,0.0,0.0,0.0,0.0,-2.8711,-2.8436,-2.8291,-2.8291,-2.8291,-2.8291,-2.8291,-2.8291,-2.8291,-2.7441,-2.7012,-2.7002,-2.6093,-2.5693,-2.5693,-2.5693,-2.5693,-2.5693,-2.5693,-2.5693,-2.5654,-2.5254,-2.5067,-2.4912,-2.4473,-2.4258,-2.4153,-2.4153,-2.4153,-2.4153,-2.4153,-2.4153,-2.4082,-2.3325,-2.3091,-2.3159,-2.3564,-2.3637,-2.366,-2.3782,-2.3602,-2.3287,-2.2684,-2.2363,-2.2099,-2.1769,-2.1696,-2.1696,-2.1696,-2.1952,-2.2181,-2.2135,-2.1869,-2.1292,-2.0352,-1.9171,-1.8156,-1.738,-1.6636,-1.6103,-1.5758,-1.5458,-1.5057,-1.4569,-1.4476,-1.4349,-1.4108,-1.4088,-1.4088,-1.4088,-1.4088,-1.4088,-1.4088,-1.4088,-1.4088,-1.4088,-1.4088,-1.4088,-1.4088,-1.4088,-1.4088,-1.4088,-1.4088,-1.4088,-3.7196,-3.711,-3.6771,-3.5826,-3.3646,-3.1395,-3.0108,0.0,0.0,0.0,-2.3016,-2.2104,-2.1801,0.0,0.0,0.0,0.0,0.0,0.0,0.0,0.0,0.0,0.0,0.0,0.0,0.0,0.0,-2.9637,-2.9363,-2.9019,-2.8301,-2.8291,-2.8291,-2.8291,-2.8291,-2.8291,-2.8291,-2.7666,-2.7353,-2.7344,-2.6709,-2.6396,-2.6396,-2.6182,-2.6074,-2.6064,-2.5791,-2.5693,-2.5654,-2.5254,-2.5116,-2.5077,-2.459,-2.4414,-2.4414,-2.4414,-2.4414,-2.4414,-2.4414,-2.4414,-2.4346,-2.389,-2.3799,-2.3793,-2.4053,-2.4111,-2.4114,-2.4088,-2.3914,-2.3578,-2.3149,-2.2834,-2.2556,-2.2373,-2.2327,-2.2327,-2.2327,-2.2638,-2.2849,-2.2648,-2.2229,-2.1684,-2.0937,-1.9586,-1.835,-1.7598,-1.6864,-1.6265,-1.5825,-1.5705,-1.5458,-1.5023,-1.4836,-1.4629,-1.4335,-1.4309,-1.4249,-1.4095,-1.4088,-1.4088,-1.4088,-1.4088,-1.4088,-1.4088,-1.4088,-1.4088,-1.4088,-1.4088,-1.4088,-1.4088,-1.4088,-1.4088,-3.8427,-3.8409,-3.7976,-3.6933,-3.4277,-3.1482,-2.9725,-2.7054,0.0,0.0,-2.2252,-2.168,-2.1385,0.0,-2.3851,0.0,0.0,0.0,0.0,0.0,0.0,0.0,0.0,0.0,0.0,0.0,0.0,-3.0214,-2.9784,-2.9182,-2.8364,-2.8291,-2.8291,-2.8291,-2.8291,-2.8291,-2.8291,-2.7881,-2.7718,-2.7708,-2.7217,-2.7012,-2.7002,-2.667,-2.6523,-2.6494,-2.6064,-2.583,-2.584,-2.5391,-2.5215,-2.5176,-2.4834,-2.4697,-2.4697,-2.4697,-2.4697,-2.4697,-2.4697,-2.4697,-2.4697,-2.4697,-2.457,-2.4434,-2.4531,-2.456,-2.4524,-2.4444,-2.4192,-2.3881,-2.3598,-2.325,-2.3014,-2.2931,-2.2904,-2.2931,-2.3014,-2.3222,-2.3302,-2.2992,-2.25,-2.1921,-2.1232,-1.9868,-1.8582,-1.7753,-1.7044,-1.6393,-1.5872,-1.5784,-1.5745,-1.5511,-1.5231,-1.4981,-1.4643,-1.4616,-1.4516,-1.4289,-1.4275,-1.4249,-1.4182,-1.4182,-1.4155,-1.4088,-1.4088,-1.4088,-1.4088,-1.4088,-1.4088,-1.4088,-1.4088,-1.4088,-3.9383,-3.9103,-3.8067,-3.7049,-3.3988,-3.0564,-2.8176,0.0,0.0,-2.1903,-2.1297,-2.1043,-2.1119,-2.2026,-2.3075,0.0,0.0,-2.7085,0.0,0.0,0.0,0.0,0.0,0.0,0.0,0.0,0.0,-3.0795,-2.9542,-2.866,-2.8301,-2.8291,-2.8291,-2.8291,-2.8291,-2.8291,-2.8291,-2.7881,-2.7718,-2.7708,-2.7217,-2.7012,-2.7012,-2.6973,-2.6953,-2.6934,-2.6514,-2.6328,-2.6299,-2.5859,-2.5625,-2.5625,-2.5586,-2.5567,-2.5567,-2.5567,-2.5567,-2.5567,-2.5567,-2.5567,-2.5567,-2.5567,-2.5068,-2.4492,-2.4893,-2.5057,-2.5088,-2.546,-2.5169,-2.4684,-2.4316,-2.3829,-2.3352,-2.2995,-2.2904,-2.3004,-2.3361,-2.3278,-2.3141,-2.3105,-2.2522,-2.1713,-2.0733,-1.969,-1.8619,-1.751,-1.6911,-1.6393,-1.5872,-1.5784,-1.5771,-1.5792,-1.5531,-1.5237,-1.4995,-1.4968,-1.4955,-1.4928,-1.4928,-1.4763,-1.4489,-1.4482,-1.4355,-1.4088,-1.4088,-1.4088,-1.4088,-1.4088,-1.4088,-1.4088,-1.4088,-1.4088,-3.8362,-3.8717,-3.8253,-3.6759,-3.3962,-3.083,-2.791,0.0,-2.3202,-2.2038,-2.1703,-2.1599,-2.1425,-2.2237,-2.2979,-2.3113,-2.4593,0.0,0.0,0.0,0.0,0.0,0.0,0.0,0.0,0.0,-3.1464,-3.0619,-2.9554,-2.8943,-2.8952,-2.8545,-2.8291,-2.8291,-2.8291,-2.8291,-2.8291,-2.8125,-2.8047,-2.8047,-2.7861,-2.7783,-2.7773,-2.7519,-2.7402,-2.7373,-2.668,-2.6387,-2.6357,-2.5869,-2.5693,-2.5693,-2.5693,-2.5693,-2.5693,-2.5693,-2.5693,-2.5693,-2.5693,-2.5693,-2.5693,-2.5693,-2.545,-2.5196,-2.542,-2.5469,-2.5508,-2.5635,-2.544,-2.505,-2.4733,-2.4296,-2.3868,-2.3712,-2.3675,-2.3721,-2.3877,-2.3708,-2.3462,-2.3256,-2.242,-2.1582,-2.1035,-1.9732,-1.8517,-1.7717,-1.706,-1.6471,-1.5852,-1.5784,-1.5784,-1.5784,-1.5678,-1.5538,-1.5251,-1.5224,-1.515,-1.5022,-1.5008,-1.483,-1.4529,-1.4522,-1.4382,-1.4095,-1.4088,-1.4088,-1.4088,-1.4088,-1.4088,-1.4088,-1.4088,-1.4182,-3.6566,-3.7325,-3.7254,-3.5729,-3.3178,-3.0274,0.0,0.0,-2.3123,-2.2116,-2.1958,-2.1962,-2.1837,-2.2428,-2.2921,-2.2828,-2.3979,-2.5101,0.0,0.0,0.0,0.0,0.0,0.0,0.0,-3.17,-3.1269,-3.0578,-2.9659,-2.9226,-2.9525,-2.875,-2.835,-2.8476,-2.8359,-2.8291,-2.8291,-2.8291,-2.8291,-2.8291,-2.8291,-2.8291,-2.8281,-2.7988,-2.7851,-2.7812,-2.708,-2.6699,-2.6543,-2.6103,-2.581,-2.5693,-2.5693,-2.5693,-2.5693,-2.5693,-2.5693,-2.5693,-2.5693,-2.5693,-2.5693,-2.5693,-2.5693,-2.5693,-2.5693,-2.5693,-2.5693,-2.5693,-2.5489,-2.5235,-2.4883,-2.4538,-2.4251,-2.4202,-2.4202,-2.4202,-2.4202,-2.3954,-2.3596,-2.3229,-2.2212,-2.1304,-2.0899,-1.9583,-1.837,-1.7811,-1.719,-1.6599,-1.5999,-1.5959,-1.5925,-1.5791,-1.5784,-1.5698,-1.5538,-1.5524,-1.5438,-1.5237,-1.5217,-1.509,-1.479,-1.4776,-1.4643,-1.4355,-1.4262,-1.4215,-1.4215,-1.4128,-1.4128,-1.4215,-1.4215,-1.4376,-3.4007,-3.4786,-3.4727,-3.3767,-3.1275,-2.8432,0.0,0.0,-2.2536,-2.1822,-2.1745,-2.1888,-2.2215,-2.2457,-2.2756,-2.322,-2.3629,0.0,0.0,0.0,0.0,0.0,0.0,0.0,0.0,-3.171,-3.1075,-3.0838,-2.9711,-2.9323,-2.9776,-2.8848,-2.8476,-2.8896,-2.8506,-2.8291,-2.8291,-2.8291,-2.8291,-2.8291,-2.8291,-2.8291,-2.8291,-2.8291,-2.8281,-2.8262,-2.7832,-2.7402,-2.6973,-2.6553,-2.6133,-2.5693,-2.5693,-2.5693,-2.5693,-2.5693,-2.5693,-2.5693,-2.5693,-2.5693,-2.5693,-2.5693,-2.5693,-2.5693,-2.5693,-2.5693,-2.5693,-2.5693,-2.5489,-2.5186,-2.4637,-2.448,-2.444,-2.4251,-2.4202,-2.4202,-2.4202,-2.3805,-2.3297,-2.2979,-2.1818,-2.0703,-2.0112,-1.91,-1.8174,-1.7597,-1.7256,-1.6905,-1.6355,-1.6266,-1.6152,-1.5865,-1.5784,-1.5784,-1.5778,-1.5778,-1.5771,-1.5771,-1.5771,-1.5691,-1.5398,-1.5391,-1.5251,-1.5008,-1.4663,-1.4516,-1.4516,-1.4229,-1.4235,-1.4516,-1.4516,-1.4676,-3.0897,-3.1582,-3.1496,-3.1015,-2.9324,-2.7229,-2.5147,0.0,-2.2982,-2.2312,-2.2542,-2.2816,-2.2798,-2.293,-2.3084,-2.3091,-2.3335,-2.3798,0.0,0.0,0.0,0.0,0.0,0.0,0.0,0.0,-3.1023,-3.0557,-2.9946,-2.9776,-3.0163,-2.9283,-2.8779,-2.8916,-2.8506,-2.8291,-2.8291,-2.8291,-2.8291,-2.8291,-2.8291,-2.8291,-2.8291,-2.8291,-2.8291,-2.8271,-2.7851,-2.7412,-2.6982,-2.6562,-2.6133,-2.5693,-2.5693,-2.5693,-2.5693,-2.5693,-2.5693,-2.5693,-2.5693,-2.5693,-2.5693,-2.5693,-2.5693,-2.5693,-2.5693,-2.5693,-2.5693,-2.5693,-2.5489,-2.5235,-2.4883,-2.4637,-2.443,-2.4251,-2.4202,-2.4202,-2.4202,-2.3805,-2.3247,-2.2728,-2.1674,-2.068,-1.9905,-1.9008,-1.8229,-1.7673,-1.732,-1.7009,-1.6607,-1.6567,-1.6453,-1.6166,-1.6132,-1.6052,-1.5798,-1.5784,-1.5784,-1.5784,-1.5784,-1.5698,-1.5404,-1.5398,-1.5257,-1.5015,-1.4914,-1.4823,-1.4823,-1.4774,-1.478,-1.4874,-1.5023,-1.517,0.0,-2.8022,-2.8073,-2.7626,-2.6472,0.0,0.0,0.0,-2.2579,-2.2359,-2.2665,-2.2927,-2.2815,-2.2889,-2.2927,-2.2889,-2.3075,-2.3538,0.0,0.0,0.0,0.0,0.0,0.0,0.0,-3.0969,-3.0868,-3.0443,-2.9968,-2.9853,-3.0178,-2.9307,-2.8868,-2.8916,-2.8506,-2.8291,-2.8291,-2.8291,-2.8291,-2.8291,-2.8291,-2.8291,-2.8291,-2.8291,-2.8291,-2.8281,-2.8018,-2.7656,0.0,-2.6797,-2.6367,-2.5967,-2.5752,-2.5693,-2.5693,-2.5693,-2.5693,-2.5693,-2.5693,-2.5693,-2.5693,-2.5693,-2.5693,-2.5693,-2.5693,-2.5693,-2.5693,-2.5693,-2.5586,-2.5391,-2.4981,-2.4784,-2.4587,-2.4251,-2.4202,-2.4202,-2.4202,-2.3805,-2.3247,-2.2627,-2.1564,-2.0498,-1.968,-1.8848,-1.8105,-1.766,-1.7477,-1.7259,-1.6914,-1.6874,-1.676,-1.6466,-1.6339,-1.6199,-1.6012,-1.5892,-1.5784,-1.5784,-1.5784,-1.5752,-1.5565,-1.5558,-1.5478,-1.5297,-1.5184,-1.5169,-1.5169,-1.5169,-1.5169,-1.5182,-1.5424,-1.5558,0.0,-2.4292,0.0,0.0,0.0,0.0,0.0,0.0,0.0,-2.1954,-2.2209,-2.236,-2.2392,-2.2402,-2.2478,-2.2703,-2.2889,0.0,0.0,0.0,0.0,0.0,0.0,0.0,-3.1368,-3.1011,-3.0713,-3.0443,-2.9952,-2.9735,-2.9776,-2.9156,-2.8794,-2.8906,-2.8506,-2.8291,-2.8291,-2.8291,-2.8291,-2.8291,-2.8291,-2.8291,-2.8291,-2.8291,-2.8291,-2.8291,-2.8291,-2.8037,-2.764,-2.7178,-2.6748,-2.6299,-2.5849,-2.5693,-2.5693,-2.5693,-2.5693,-2.5693,-2.5693,-2.5693,-2.5693,-2.5693,-2.5693,-2.5693,-2.5693,-2.5693,-2.5693,-2.5693,-2.5693,-2.5586,-2.5088,-2.4932,-2.4794,-2.435,-2.4202,-2.4202,-2.4202,-2.3805,-2.3247,-2.2627,-2.1454,-2.0285,-1.9428,-1.8593,-1.7911,-1.7635,-1.7582,-1.7482,-1.7266,-1.7233,-1.7119,-1.6767,-1.648,-1.6342,-1.6321,-1.5999,-1.5784,-1.5784,-1.5784,-1.5784,-1.5784,-1.5784,-1.5784,-1.5784,-1.5565,-1.5431,-1.5431,-1.5431,-1.5431,-1.5431,-1.5705,-1.5784,-2.017,0.0,-2.1991,-2.2235,-2.1716,-2.1149,0.0,0.0,0.0,0.0,0.0,0.0,0.0,-2.2628,-2.2703,-2.2889,-2.2964,-2.3495,0.0,0.0,0.0,0.0,0.0,-3.1715,-3.1351,-3.1385,-3.1116,-3.0443,-3.041,-3.0222,-2.9796,-2.9445,-2.911,-2.8916,-2.8506,-2.8291,-2.8291,-2.8291,-2.8291,-2.8291,-2.8291,-2.8291,-2.8291,-2.8291,-2.8291,-2.8291,-2.8291,-2.7861,-2.7168,-2.706,-2.6572,-2.583,-2.5732,-2.5693,-2.5693,-2.5693,-2.5693,-2.5693,-2.5693,-2.5693,-2.5693,-2.5693,-2.5693,-2.5693,-2.5693,-2.5693,-2.5693,-2.5693,-2.5693,-2.5635,-2.5284,-2.503,-2.4833,-2.4489,-2.4301,-2.4202,-2.4202,-2.3805,-2.3247,-2.2627,-2.1573,-2.0506,-1.948,-1.8743,-1.816,-1.7687,-1.7582,-1.7555,-1.7488,-1.7534,-1.742,-1.7125,-1.678,-1.6513,-1.6342,-1.5999,-1.5784,-1.5784,-1.5784,-1.5784,-1.5784,-1.5784,-1.5784,-1.5784,-1.5758,-1.5732,-1.5732,-1.5732,-1.5732,-1.5732,-1.5751,-1.5784,-1.8849,-1.9429,-2.0207,-2.0505,-2.0264,-2.0024,0.0,0.0,0.0,0.0,0.0,0.0,0.0,0.0,0.0,-2.2815,-2.3037,0.0,0.0,0.0,0.0,0.0,-3.2382,-3.2523,0.0,-3.1658,-3.1259,-3.0443,-3.0464,-3.0283,-2.9761,-2.9397,-2.9029,-2.8554,-2.8354,-2.8291,-2.8291,-2.8291,-2.8291,-2.8291,-2.8096,-2.8008,-2.8008,-2.8008,-2.8008,-2.8008,-2.8008,-2.7744,-2.7285,-2.6885,-2.6455,-2.6016,-2.5762,-2.5693,-2.5693,-2.5693,-2.5693,-2.5693,-2.5693,-2.5693,-2.5693,-2.5693,-2.5693,-2.5693,-2.5693,-2.5693,-2.5693,-2.5693,-2.5693,-2.5635,-2.5391,-2.5088,-2.4833,-2.4578,-2.4341,-2.4202,-2.4202,-2.3805,-2.3247,-2.2627,-2.1514,-2.0395,-1.948,-1.8698,-1.8062,-1.7635,-1.7582,-1.7582,-1.7582,-1.7582,-1.7522,-1.742,-1.7088,-1.6787,-1.65,-1.6199,-1.5972,-1.5791,-1.5784,-1.5784,-1.5784,-1.5784,-1.5784,-1.5784,-1.5784,-1.5784,-1.5784,-1.5784,-1.5784,-1.5784,-1.5784,-1.5784,-1.8517,-1.8704,-1.9015,-1.9088,-1.9108,-1.9202,-1.9596,0.0,0.0,0.0,0.0,0.0,0.0,0.0,0.0,0.0,0.0,0.0,0.0,0.0,0.0,0.0,-3.3587,0.0,-3.2561,-3.2026,-3.1373,-3.0557,-3.0443,-3.0235,-2.9606,-2.9219,-2.8755,-2.8125,-2.8098,-2.8135,-2.8193,-2.8262,-2.8262,-2.8193,-2.7832,-2.7679,-2.7568,-2.7568,-2.7568,-2.7568,-2.7568,-2.7581,-2.7412,-2.6689,-2.6348,-2.625,-2.5879,-2.5693,-2.5693,-2.5693,-2.5693,-2.5693,-2.5693,-2.5693,-2.5693,-2.5693,-2.5693,-2.5693,-2.5693,-2.5693,-2.5693,-2.5693,-2.5693,-2.5645,-2.544,-2.5137,-2.4833,-2.4637,-2.439,-2.4202,-2.4202,-2.3805,-2.3247,-2.2627,-2.1404,-2.0233,-1.9428,-1.8593,-1.7911,-1.7635,-1.7582,-1.7582,-1.7582,-1.7582,-1.7582,-1.7582,-1.7373,-1.7079,-1.6734,-1.644,-1.6146,-1.5798,-1.5784,-1.5784,-1.5784,-1.5784,-1.5784,-1.5784,-1.5784,-1.5784,-1.5784,-1.5784,-1.5784,-1.5784,-1.5784,-1.5784,-1.8434,-1.8465,-1.8611,-1.9005,-1.9108,-1.9119,-1.9191,0.0,0.0,0.0,0.0,0.0,0.0,0.0,0.0,0.0,0.0,0.0,0.0,0.0,0.0,-3.3065,0.0,-3.2995,-3.2762,-3.2493,-3.1885,-3.0827,-3.0724,-3.0412,-2.9659,-2.8936,-2.8445,-2.8105,-2.7518,-2.7393,-2.7806,-2.8115,-2.8115,-2.7816,-2.7748,-2.7471,-2.7119,-2.7119,-2.7119,-2.7119,-2.7119,-2.6914,-2.6572,-2.6445,-2.6172,-2.5781,-2.5713,-2.5693,-2.5693,-2.5693,-2.5693,-2.5693,-2.5693,-2.5693,-2.5693,-2.5693,-2.5693,-2.5693,-2.5693,-2.5693,-2.5693,-2.5693,-2.5693,-2.5684,-2.5645,-2.5284,-2.4883,-2.4833,-2.4489,-2.4202,-2.4202,-2.3805,-2.3247,-2.2627,-2.1404,-2.0233,-1.9428,-1.8593,-1.7911,-1.7635,-1.7582,-1.7582,-1.7582,-1.7582,-1.7582,-1.7582,-1.7373,-1.7079,-1.6734,-1.644,-1.6146,-1.5798,-1.5784,-1.5784,-1.5784,-1.5784,-1.5784,-1.5784,-1.5784,-1.5784,-1.5784,-1.5784,-1.5784,-1.5784,-1.5784,-1.5784,-1.803,-1.8195,-1.8528,-1.8984,-1.9108,-1.917,-1.9419,0.0,0.0,0.0,0.0,0.0,0.0,0.0,-2.3406,0.0,0.0,-2.7822,-2.9704,-3.0811,-3.1851,0.0,0.0,-3.2883,-3.2409,-3.2128,-3.1629,-3.0661,-3.0557,-3.0245,-2.9466,-2.8858,-2.8215,-2.7632,-2.7196,-2.7002,-2.6973,-2.7393,-2.7627,-2.7708,-2.7197,-2.6865,-2.668,-2.668,-2.668,-2.668,-2.668,-2.6562,-2.6367,-2.6133,-2.5869,-2.5693,-2.5693,-2.5693,-2.5693,-2.5693,-2.5693,-2.5693,-2.5693,-2.5693,-2.5693,-2.5693,-2.5693,-2.5693,-2.5693,-2.5693,-2.5693,-2.5693,-2.5693,-2.5693,-2.5693,-2.5391,-2.5088,-2.4932,-2.4637,-2.4291,-2.4053,-2.3546,-2.2937,-2.2232,-2.1003,-1.9828,-1.9153,-1.8318,-1.7747,-1.7635,-1.7582,-1.7582,-1.7582,-1.7582,-1.7582,-1.7582,-1.7514,-1.7313,-1.7025,-1.6673,-1.6313,-1.5811,-1.5784,-1.5784,-1.5784,-1.5784,-1.5784,-1.5784,-1.5784,-1.5784,-1.5784,-1.5784,-1.5784,-1.5784,-1.5784,-1.5784,-1.7544,-1.7895,-1.834,-1.8828,-1.9108,-1.9357,0.0,0.0,0.0,0.0,0.0,0.0,0.0,-2.2538,0.0,-2.6249,-2.7441,-2.8721,-3.051,-3.1561,-3.229,-3.2623,-3.2746,-3.2561,-3.1874,-3.1618,-3.1219,-3.0443,-3.0286,-2.9973,-2.9321,-2.8594,-2.7864,-2.724,-2.6852,-2.6611,-2.6387,-2.6611,-2.6934,-2.7415,-2.6699,-2.6338,-2.624,-2.624,-2.624,-2.624,-2.624,-2.624,-2.6211,-2.583,-2.5693,-2.5693,-2.5693,-2.5693,-2.5693,-2.5693,-2.5693,-2.5693,-2.5693,-2.5693,-2.5693,-2.5693,-2.5693,-2.5693,-2.5693,-2.5693,-2.5693,-2.5693,-2.5693,-2.5693,-2.5693,-2.5489,-2.5235,-2.5039,-2.4735,-2.4381,-2.3945,-2.3338,-2.2627,-2.1768,-2.0542,-1.9465,-1.8833,-1.8101,-1.7582,-1.7582,-1.7582,-1.7582,-1.7582,-1.7582,-1.7582,-1.7582,-1.7582,-1.7514,-1.7226,-1.6874,-1.6486,-1.5965,-1.5818,-1.5784,-1.5784,-1.5784,-1.5784,-1.5784,-1.5784,-1.5784,-1.5784,-1.5784,-1.5784,-1.5784,-1.5784,-1.5784,-1.7058,-1.7399,-1.7854,-1.8319,-1.9108,0.0,-1.9793,-2.041,0.0,-2.1611,0.0,0.0,0.0,-2.3636,-2.5083,-2.7273,-2.8006,-2.9063,-3.097,0.0,-3.1262,-3.1966,-3.1852,-3.1567,-3.127,-3.123,-3.1013,-3.0443,-2.9992,-2.9628,-2.9301,-2.8005,-2.728,-2.722,-2.631,-2.6006,-2.6387,-2.6016,-2.6045,-2.6484,-2.6416,-2.6172,-2.5732,-2.5732,-2.5732,-2.5732,-2.5732,-2.5732,-2.5732,-2.5703,-2.5693,-2.5693,-2.5693,-2.5693,-2.5693,-2.5693,-2.5693,-2.5693,-2.5693,-2.5693,-2.5693,-2.5693,-2.5693,-2.5693,-2.5693,-2.5693,-2.5693,-2.5693,-2.5693,-2.5693,-2.5693,-2.5489,-2.5284,-2.5284,-2.4883,-2.443,-2.4134,-2.3479,-2.2568,-2.154,-2.0431,-1.9413,-1.8579,-1.795,-1.7582,-1.7582,-1.7582,-1.7582,-1.7582,-1.7582,-1.7582,-1.7582,-1.7582,-1.7514,-1.7226,-1.6874,-1.6573,-1.6259,-1.5979,-1.5784,-1.5784,-1.5784,-1.5784,-1.5784,-1.5784,-1.5784,-1.5784,-1.5784,-1.5784,-1.5784,-1.5784,-1.5784,-1.6944,-1.7347,-1.7802,-1.8268,-1.9282,0.0,0.0,-2.1311,-2.219,-2.2946,-2.3091,0.0,0.0,0.0,-2.553,-2.7416,-2.8285,-2.9362,-3.1001,-3.1011,-3.1025,-3.1454,-3.1281,-3.0972,-3.0713,-3.0703,-3.0431,-2.9786,-2.9548,-2.9143,-2.8483,-2.7826,-2.7225,-2.6758,-2.6248,-2.5947,-2.5977,-2.5771,-2.5771,-2.5986,-2.5986,-2.5849,-2.5693,-2.5693,-2.5693,-2.5693,-2.5693,-2.5693,-2.5693,-2.5693,-2.5693,-2.5693,-2.5693,-2.5693,-2.5693,-2.5693,-2.5693,-2.5693,-2.5693,-2.5693,-2.5693,-2.5693,-2.5693,-2.5693,-2.5693,-2.5693,-2.5693,-2.5693,-2.5693,-2.5693,-2.5693,-2.5635,-2.5489,-2.5333,-2.5137,-2.4784,-2.4035,-2.3229,-2.2266,-2.1038,-1.9916,-1.8938,-1.8272,-1.7845,-1.7582,-1.7582,-1.7582,-1.7582,-1.7582,-1.7582,-1.7582,-1.7582,-1.7582,-1.7514,-1.7226,-1.7099,-1.6854,-1.656,-1.6266,-1.6019,-1.5791,-1.5784,-1.5784,-1.5784,-1.5784,-1.5919,-1.6106,-1.6106,-1.6199,-1.6373,-1.6373,-1.6373,-1.6893,-1.7347,-1.7843,-1.8486,0.0,0.0,-2.1477,-2.2249,-2.3021,-2.3846,-2.4029,-2.4079,-2.4079,0.0,0.0,0.0,-2.8415,-2.9431,-3.0895,-3.0817,-3.0713,-3.092,-3.0724,-3.0464,-3.0297,-3.0161,-2.9839,-2.9332,-2.9032,-2.8587,-2.7955,-2.7557,-2.71,-2.6506,-2.6245,-2.5965,-2.5693,-2.5693,-2.5693,-2.5693,-2.5693,-2.5693,-2.5693,-2.5693,-2.5693,-2.5693,-2.5693,-2.5693,-2.5693,-2.5693,-2.5693,-2.5693,-2.5693,-2.5693,-2.5693,-2.5693,-2.5693,-2.5693,-2.5693,-2.5693,-2.5693,-2.5693,-2.5693,-2.5693,-2.5693,-2.5693,-2.5693,-2.5693,-2.5693,-2.5693,-2.5693,-2.5693,-2.5635,-2.5489,-2.5333,-2.5039,-2.4035,-2.3179,-2.2165,-2.0688,-1.9613,-1.8736,-1.801,-1.7747,-1.7582,-1.7582,-1.7662,-1.7695,-1.7595,-1.7669,-1.7695,-1.7595,-1.7582,-1.7554,-1.7353,-1.734,-1.7213,-1.6867,-1.671,-1.642,-1.6119,-1.6057,-1.6057,-1.6057,-1.6057,-1.6206,-1.6413,-1.6413,-1.6513,-1.6707,-1.6707,-1.6707,-1.6903,-1.7358,-1.7926,-1.8847,0.0,0.0,-2.2493,-2.3165,-2.3676,-2.4135,-2.4345,-2.4415,-2.4405,-2.4776,0.0,-2.7679,-2.8388,-2.9212,-3.0596,-3.0557,-3.0391,-3.0391,-3.0141,-2.9994,-2.9984,-2.957,-2.9301,-2.929,-2.8442,-2.7924,-2.7865,-2.727,-2.6805,-2.6496,-2.6245,-2.5965,-2.5693,-2.5693,-2.5693,-2.5693,-2.5684,-2.5684,-2.5693,-2.5684,-2.5684,-2.5684,-2.5684,-2.5684,-2.5684,-2.5693,-2.5693,-2.5693,-2.5693,-2.5693,-2.5693,-2.5693,-2.5693,-2.5693,-2.5693,-2.5693,-2.5693,-2.5693,-2.5693,-2.5693,-2.5693,-2.5693,-2.5693,-2.5693,-2.5693,-2.5693,-2.5693,-2.5693,-2.5693,-2.5693,-2.5489,-2.5088,-2.4282,-2.3479,-2.2367,-2.049,-1.968,-1.8907,-1.7793,-1.7582,-1.7582,-1.7582,-1.7849,-1.7882,-1.7622,-1.7856,-1.7869,-1.7615,-1.7582,-1.7582,-1.7582,-1.7582,-1.7514,-1.7226,-1.7206,-1.7072,-1.6714,-1.6707,-1.6707,-1.6707,-1.6707,-1.6707,-1.6707,-1.6707,-1.6714,-1.6714,-1.6714,-1.6714,-1.7368,-1.7965,0.0,-1.8813,0.0,0.0,0.0,-2.3432,0.0,0.0,-2.5859,-2.5755,-2.5444,-2.5494,0.0,-2.7175,-2.7911,-2.8726,-2.9797,-3.0036,-3.0141,-3.0141,-3.0047,-2.987,-2.9539,-2.9384,-2.9032,-2.838,-2.8079,-2.779,-2.7469,-2.7287,-2.6976,-2.6496,-2.64,-2.6159,-2.5693,-2.5693,-2.5693,-2.5684,-2.542,-2.543,-2.5674,-2.541,-2.5273,-2.5273,-2.5273,-2.5273,-2.5293,-2.5557,-2.5693,-2.5693,-2.5693,-2.5693,-2.5693,-2.5693,-2.5693,-2.5693,-2.5693,-2.5693,-2.5693,-2.5693,-2.5693,-2.5693,-2.5693,-2.5693,-2.5693,-2.5693,-2.5693,-2.5693,-2.5693,-2.5693,-2.5693,-2.5693,-2.5635,-2.5333,-2.4578,-2.361,-2.2391,-2.0688,-1.9613,-1.8677,-1.774,-1.7582,-1.7582,-1.7582,-1.7849,-1.7962,-1.7869,-1.7796,-1.7689,-1.7595,-1.7582,-1.7582,-1.7582,-1.7582,-1.7549,-1.7514,-1.7507,-1.7228,-1.6727,-1.6707,-1.6707,-1.6707,-1.6707,-1.6807,-1.7065,-1.7065,-1.7172,-1.7321,-1.7321,-1.7321,-1.7739,-1.8332,0.0,-1.9377,-2.0541,-2.1889,-2.3209,0.0,0.0,0.0,-2.6288,-2.6139,-2.605,-2.5881,0.0,-2.6833,-2.7361,-2.7985,-2.8911,-2.9178,-2.9343,-2.9446,-2.9446,-2.9332,-2.9063,-2.8866,-2.8524,-2.7917,-2.7759,-2.7541,-2.732,-2.7309,-2.7071,-2.6496,-2.6496,-2.6255,-2.5693,-2.5557,-2.5469,-2.5469,-2.5019,-2.4951,-2.5157,-2.4932,-2.4805,-2.4805,-2.4805,-2.4805,-2.4834,-2.5098,-2.5265,-2.5469,-2.5469,-2.5586,-2.5693,-2.5693,-2.5693,-2.5693,-2.5693,-2.5693,-2.5693,-2.5693,-2.5693,-2.5693,-2.5693,-2.5693,-2.5693,-2.5693,-2.5693,-2.5693,-2.5693,-2.5693,-2.5693,-2.5693,-2.5635,-2.5333,-2.4529,-2.3569,-2.24,-2.0783,-1.9769,-1.8914,-1.8081,-1.797,-1.7943,-1.7943,-1.8003,-1.8035,-1.8155,-1.7849,-1.7582,-1.7582,-1.7582,-1.7582,-1.7582,-1.7582,-1.7582,-1.7582,-1.7582,-1.7422,-1.7068,-1.7054,-1.7054,-1.7054,-1.7054,-1.7141,-1.7373,-1.7373,-1.7467,-1.7582,-1.7582,-1.7582,-1.8105,0.0,0.0,-2.0229,-2.1382,0.0,-2.4656,-2.5287,-2.56,-2.626,0.0,-2.5869,-2.6318,-2.6035,-2.5918,-2.6646,-2.6755,-2.7102,-2.7975,-2.8196,-2.8297,-2.8507,-2.8568,-2.8597,-2.8556,-2.8173,-2.7903,-2.7862,-2.7489,-2.7309,-2.7309,-2.7309,-2.7051,-2.6436,-2.6436,-2.6186,-2.5567,-2.5215,-2.5057,-2.5047,-2.457,-2.4365,-2.4365,-2.4365,-2.4365,-2.4365,-2.4365,-2.4385,-2.4414,-2.4414,-2.4648,-2.5057,-2.5096,-2.5322,-2.5635,-2.5674,-2.5693,-2.5693,-2.5693,-2.5693,-2.5693,-2.5693,-2.5693,-2.5693,-2.5693,-2.5693,-2.5693,-2.5693,-2.5693,-2.5693,-2.5693,-2.5693,-2.5693,-2.5635,-2.544,-2.5039,-2.4233,-2.3429,-2.2367,-2.079,-2.0091,-1.948,-1.8629,-1.8509,-1.8553,-1.8531,-1.8277,-1.8142,-1.849,-1.8003,-1.7622,-1.7622,-1.7602,-1.7582,-1.7582,-1.7582,-1.7582,-1.7582,-1.7582,-1.7582,-1.7582,-1.7582,-1.7582,-1.7582,-1.7582,-1.7582,-1.7582,-1.7582,-1.7582,-1.7582,-1.7582,-1.7582,-1.8576,-1.9109,0.0,0.0,-2.1874,-2.3717,-2.4861,-2.539,-2.5791,-2.6279,-2.6309,-2.6279,-2.6367,-2.6035,-2.5879,-2.6408,-2.6665,-2.7003,-2.7481,-2.7945,-2.8247,-2.8297,-2.8457,-2.8473,-2.811,-2.7976,-2.7779,-2.7427,-2.7361,-2.7309,-2.7309,-2.7309,-2.6907,-2.5983,-2.5973,-2.5521,-2.4707,-2.46,-2.456,-2.4551,-2.4131,-2.3926,-2.3926,-2.3926,-2.3926,-2.3926,-2.3926,-2.4111,-2.4414,-2.4414,-2.4473,-2.459,-2.4979,-2.5127,-2.5254,-2.5557,-2.5693,-2.5693,-2.5693,-2.5693,-2.5693,-2.5693,-2.5693,-2.5693,-2.5693,-2.5693,-2.5693,-2.5693,-2.5693,-2.5693,-2.5693,-2.5693,-2.5586,-2.5186,-2.5039,-2.4784,-2.3985,-2.3129,-2.2165,-2.079,-2.0301,-1.9747,-1.8683,-1.8666,-1.8835,-1.8791,-1.8584,-1.8497,-1.8791,-1.831,-1.7896,-1.7896,-1.7729,-1.7582,-1.7582,-1.7582,-1.7582,-1.7582,-1.7582,-1.7582,-1.7582,-1.7582,-1.7582,-1.7582,-1.7582,-1.7582,-1.7582,-1.7582,-1.7582,-1.7582,-1.7582,-1.7582,-1.8619,0.0,0.0,-2.1303,0.0,-2.4316,-2.5185,-2.5566,-2.5752,-2.6025,-2.6074,-2.6143,-2.6348,-2.6035,-2.5762,-2.6045,-2.6173,-2.6379,-2.6745,-2.7022,-2.7269,-2.7574,-2.7672,-2.7737,-2.7624,-2.7603,-2.751,-2.733,-2.7102,-2.6978,-2.6978,-2.677,-2.6311,-2.552,-2.552,-2.5169,-2.4414,-2.4219,-2.4111,-2.4111,-2.3682,-2.3477,-2.3477,-2.3477,-2.3477,-2.3477,-2.3477,-2.3603,-2.3764,-2.3764,-2.3926,-2.416,-2.459,-2.4883,-2.5174,-2.5566,-2.5693,-2.5693,-2.5693,-2.5693,-2.5693,-2.5693,-2.5693,-2.5693,-2.5693,-2.5693,-2.5693,-2.5693,-2.5693,-2.5693,-2.5693,-2.5586,-2.5382,-2.4833,-2.4627,-2.4282,-2.3329,-2.2476,-2.1615,-2.0534,-2.0227,-1.9981,-1.9238,-1.9223,-1.9292,-1.9169,-1.8885,-1.8751,-1.8905,-1.8531,-1.8203,-1.8009,-1.7849,-1.7742,-1.7595,-1.7582,-1.7582,-1.7582,-1.7582,-1.7582,-1.7582,-1.7582,-1.7582,-1.7582,-1.7582,-1.7582,-1.7582,-1.7582,-1.7582,-1.7582,-1.7582,-1.7582,-1.8428,0.0,-2.0446,-2.2484,-2.3627,0.0,-2.5274,-2.5518,-2.5625,-2.5625,-2.5635,-2.5801,-2.6211,-2.5977,-2.5693,-2.5693,-2.5693,-2.5781,-2.6004,-2.6052,-2.6245,-2.6699,-2.6805,-2.6938,-2.7119,-2.7142,-2.7101,-2.7101,-2.6713,-2.6501,-2.6501,-2.6127,-2.5673,-2.5113,-2.4997,-2.468,-2.4092,-2.374,-2.3574,-2.3564,-2.3227,-2.3091,-2.3091,-2.3091,-2.3091,-2.3091,-2.3091,-2.3091,-2.3091,-2.3091,-2.3305,-2.3721,-2.4141,-2.4531,-2.4912,-2.543,-2.5625,-2.5635,-2.5664,-2.5693,-2.5693,-2.5693,-2.5693,-2.5693,-2.5693,-2.5693,-2.5693,-2.5693,-2.5693,-2.5693,-2.5693,-2.5489,-2.5137,-2.4529,-2.4084,-2.3578,-2.2577,-2.1776,-2.1011,-2.0189,-2.0104,-2.004,-1.9823,-1.9793,-1.9707,-1.9424,-1.9158,-1.8998,-1.8998,-1.8744,-1.847,-1.8169,-1.8049,-1.7889,-1.7682,-1.7615,-1.7582,-1.7582,-1.7582,-1.7582,-1.7582,-1.7582,-1.7582,-1.7582,-1.7582,-1.7582,-1.7582,-1.7582,-1.7582,-1.7582,-1.7582,-1.7582,0.0,0.0,-2.0987,0.0,-2.3242,-2.4004,0.0,0.0,-2.5156,0.0,-2.5469,-2.5703,-2.5762,-2.5732,-2.5693,-2.5693,-2.5693,-2.5684,-2.5732,-2.5965,-2.6149,-2.6197,-2.64,-2.6544,-2.6592,-2.6439,-2.6355,-2.6355,-2.6145,-2.5968,-2.5968,-2.5906,-2.5474,-2.4615,-2.4243,-2.3634,-2.2764,-2.2705,-2.2676,-2.2685,-2.2945,-2.3091,-2.3091,-2.3091,-2.3091,-2.3091,-2.3091,-2.3091,-2.3091,-2.3091,-2.313,-2.3227,-2.3701,-2.3906,-2.4053,-2.4863,-2.5156,-2.5215,-2.5605,-2.5693,-2.5693,-2.5693,-2.5693,-2.5693,-2.5693,-2.5693,-2.5693,-2.5693,-2.5693,-2.5693,-2.5693,-2.5489,-2.5039,-2.4035,-2.3229,-2.2526,-2.1928,-2.1377,-2.0712,-1.9887,-1.9798,-1.9838,-1.9815,-1.9811,-1.9707,-1.9424,-1.9332,-1.9305,-1.9305,-1.9052,-1.8851,-1.8755,-1.8337,-1.8009,-1.7935,-1.7736,-1.7582,-1.7582,-1.7582,-1.7582,-1.7582,-1.7582,-1.7582,-1.7582,-1.7582,-1.7582,-1.7582,-1.7582,-1.7582,-1.7582,-1.7582,-1.7582,-1.833,-1.947,-2.071,0.0,-2.2703,-2.3555,-2.3975,0.0,-2.4697,-2.4697,-2.4863,-2.5068,-2.5322,-2.5361,-2.5283,-2.4992,-2.4953,-2.4953,-2.4953,-2.5085,-2.5216,-2.5367,-2.5471,-2.5611,-2.5762,-2.5684,-2.5665,-2.5665,-2.532,-2.51,-2.51,-2.4632,-2.4145,-2.3607,-2.3178,-2.269,-2.2158,-2.2158,-2.2275,-2.251,-2.2705,-2.2867,-2.3091,-2.2847,-2.2877,-2.3091,-2.3091,-2.3091,-2.3091,-2.3091,-2.3091,-2.314,-2.3623,-2.3789,-2.3867,-2.4473,-2.4863,-2.5145,-2.5293,-2.5527,-2.5693,-2.5693,-2.5693,-2.5693,-2.5693,-2.5693,-2.5693,-2.5693,-2.5693,-2.5693,-2.5693,-2.5391,-2.4833,-2.3926,-2.2979,-2.203,-2.1224,-2.0609,-2.0208,-2.0006,-1.9986,-2.0068,-2.004,-2.0064,-1.9931,-1.9482,-1.9424,-1.9424,-1.9424,-1.9252,-1.9112,-1.8945,-1.8684,-1.8397,-1.8015,-1.7869,-1.7769,-1.7595,-1.7582,-1.7582,-1.7582,-1.7582,-1.7582,-1.7582,-1.7582,-1.7582,-1.7582,-1.7582,-1.7582,-1.7582,-1.7582,-1.7582,0.0,0.0,-2.0327,-2.0986,-2.2002,-2.284,0.0,0.0,-2.3935,0.0,-2.4102,-2.4287,-2.4404,-2.4678,-2.4795,-2.4473,-2.4414,-2.4414,-2.4414,-2.4414,-2.446,-2.4654,-2.47,-2.4802,-2.4985,-2.4931,-2.4917,-2.4917,-2.444,-2.4173,-2.4173,-2.3448,-2.2952,-2.2742,-2.2264,-2.1955,-2.1719,-2.1719,-2.1934,-2.2353,-2.2353,-2.2519,-2.2769,-2.249,-2.2519,-2.2779,-2.2886,-2.2935,-2.2945,-2.3052,-2.3091,-2.312,-2.3496,-2.3623,-2.3672,-2.4102,-2.4463,-2.4822,-2.5037,-2.5283,-2.5538,-2.5654,-2.5693,-2.5693,-2.5693,-2.5693,-2.5693,-2.5693,-2.5693,-2.5693,-2.5693,-2.5284,-2.4686,-2.3836,-2.2778,-2.1674,-2.0565,-1.9946,-1.9702,-2.0003,-2.0124,-2.0248,-2.0295,-2.0279,-2.0104,-1.9591,-1.9424,-1.9424,-1.9424,-1.9424,-1.9279,-1.9058,-1.8965,-1.8718,-1.8149,-1.8035,-1.7916,-1.7602,-1.7582,-1.7582,-1.7582,-1.7582,-1.7582,-1.7582,-1.7582,-1.7582,-1.7582,-1.7582,-1.7582,-1.7582,-1.7582,-1.7582,0.0,-1.9447,0.0,-2.023,0.0,0.0,0.0,0.0,-2.2607,-2.2607,-2.3252,-2.3584,-2.2793,-2.3633,-2.4443,-2.4424,-2.4414,-2.4414,-2.4414,-2.4414,-2.4414,-2.4414,-2.4414,-2.4424,-2.4414,-2.428,-2.4177,-2.4177,-2.3611,-2.3257,-2.3257,-2.2876,-2.2501,-2.2234,-2.1839,-2.149,-2.1229,-2.1229,-2.1484,-2.1924,-2.1924,-2.1934,-2.1953,-2.1924,-2.1934,-2.1973,-2.2373,-2.2549,-2.2578,-2.2925,-2.3091,-2.3091,-2.312,-2.313,-2.3179,-2.3662,-2.3838,-2.3975,-2.4832,-2.5135,-2.5176,-2.5596,-2.5693,-2.5693,-2.5693,-2.5693,-2.5693,-2.5693,-2.5693,-2.5693,-2.5693,-2.5284,-2.4627,-2.3578,-2.2476,-2.1369,-2.0034,-1.9532,-1.9426,-1.9779,-2.0033,-2.0237,-2.0307,-2.0316,-2.0155,-1.9815,-1.9533,-1.9424,-1.9424,-1.9424,-1.9417,-1.9403,-1.9092,-1.8798,-1.8497,-1.8155,-1.7916,-1.7602,-1.7582,-1.7582,-1.7582,-1.7582,-1.7582,-1.7582,-1.7582,-1.7582,-1.7582,-1.7582,-1.7582,-1.7582,-1.7582,-1.7582,0.0,0.0,0.0,-1.9293,-2.0102,-2.0823,-2.0603,-2.1233,-2.1802,-2.1689,-2.2158,-2.2471,-2.2168,-2.293,-2.3437,-2.2881,-2.2793,-2.2793,-2.2793,-2.2793,-2.2793,-2.2793,-2.3027,-2.3193,-2.3193,-2.3345,-2.335,-2.3075,-2.2857,-2.2646,-2.2379,-2.1945,-2.1667,-2.1546,-2.1184,-2.0919,-2.081,-2.0801,-2.1025,-2.1465,-2.1465,-2.1611,-2.1875,-2.1592,-2.1465,-2.1475,-2.158,-2.196,-2.2549,-2.2925,-2.3091,-2.3091,-2.3091,-2.3091,-2.311,-2.3276,-2.3545,-2.3838,-2.4141,-2.4609,-2.5145,-2.5254,-2.5508,-2.5693,-2.5693,-2.5693,-2.5693,-2.5693,-2.5693,-2.5693,-2.5693,-2.5284,-2.448,-2.2677,-2.1463,-2.0447,-1.9628,-1.9383,-1.9426,-1.9749,-2.0018,-2.023,-2.0285,-2.0309,-2.022,-1.9873,-1.9591,-1.9424,-1.9424,-1.9424,-1.9424,-1.9424,-1.9272,-1.9085,-1.8791,-1.8497,-1.8203,-1.7903,-1.7695,-1.7582,-1.7582,-1.7582,-1.7582,-1.7582,-1.7582,-1.7582,-1.7582,-1.7582,-1.7582,-1.7582,-1.7582,-1.7582,-1.7544,0.0,0.0,0.0,0.0,-2.0088,-1.9916,0.0,-2.0926,-2.0967,-2.1262,-2.1526,-2.1577,-2.2073,-2.2373,-2.1953,-2.1885,-2.1885,-2.1885,-2.1885,-2.1885,-2.1885,-2.2129,-2.2305,-2.2305,-2.2549,-2.2607,-2.2324,-2.2168,-2.1963,-2.168,-2.125,-2.1016,-2.1016,-2.0723,-2.0605,-2.0605,-2.0605,-2.0713,-2.1016,-2.1016,-2.1162,-2.1435,-2.1143,-2.1016,-2.1016,-2.1132,-2.1522,-2.2129,-2.2652,-2.2886,-2.2896,-2.3042,-2.3091,-2.3091,-2.3091,-2.3276,-2.3594,-2.374,-2.416,-2.4734,-2.5018,-2.5273,-2.5537,-2.5645,-2.5693,-2.5693,-2.5693,-2.5693,-2.5693,-2.5693,-2.503,-2.3926,-2.2123,-2.0901,-1.9931,-1.9428,-1.9279,-1.9426,-1.9749,-1.993,-2.0124,-2.0238,-2.0203,-2.0059,-1.983,-1.9581,-1.9424,-1.9424,-1.9424,-1.9424,-1.9424,-1.9424,-1.9245,-1.8951,-1.8657,-1.8364,-1.8009,-1.7756,-1.7582,-1.7582,-1.7582,-1.7582,-1.7582,-1.7582,-1.7582,-1.7582,-1.7582,-1.7582,-1.7582,-1.7582,-1.7582,0.0,0.0,0.0,0.0,0.0,0.0,-1.9228,0.0,-1.9931,-2.0383,-2.0635,-2.0838,-2.0906,-2.1056,-2.1357,-2.1818,-2.1887,-2.1846,-2.1846,-2.1846,-2.1846,-2.1846,-2.1855,-2.1865,-2.1865,-2.1875,-2.1875,-2.1865,-2.1475,-2.119,-2.1181,-2.0801,-2.0605,-2.0605,-2.0605,-2.0605,-2.0605,-2.0605,-2.0605,-2.0605,-2.0605,-2.0605,-2.0605,-2.0605,-2.0605,-2.0625,-2.1025,-2.1171,-2.1239,-2.2139,-2.25,-2.2549,-2.2916,-2.3081,-2.3091,-2.3091,-2.3091,-2.3159,-2.3623,-2.3779,-2.3926,-2.4812,-2.5096,-2.5146,-2.5538,-2.5674,-2.5693,-2.5693,-2.5693,-2.5693,-2.5684,-2.448,-2.3029,-2.1979,-2.0901,-1.9983,-1.9428,-1.9331,-1.9419,-1.9742,-1.9808,-1.9864,-2.0117,-1.9987,-1.9808,-1.9808,-1.956,-1.941,-1.941,-1.9403,-1.9403,-1.9352,-1.941,-1.9239,-1.8951,-1.8657,-1.8364,-1.8009,-1.7756,-1.7582,-1.7582,-1.7582,-1.7582,-1.7582,-1.7582,-1.7582,-1.7582,-1.7582,-1.7582,-1.7582,-1.7582,-1.7582,-1.7999,0.0,0.0,0.0,0.0,0.0,0.0,0.0,-1.9667,-2.0014,-2.0336,-2.0699,-2.1039,-2.1044,-2.1017,-2.1174,-2.1056,-2.0967,-2.0967,-2.0967,-2.0967,-2.0967,-2.1221,-2.1375,-2.1375,-2.1699,-2.1758,-2.1435,-2.1268,-2.1054,-2.0762,-2.0674,-2.0605,-2.0605,-2.0605,-2.0605,-2.0605,-2.0605,-2.0605,-2.0605,-2.0605,-2.0605,-2.0605,-2.0605,-2.0605,-2.0615,-2.0742,-2.0752,-2.082,-2.1699,-2.2236,-2.2519,-2.2637,-2.2828,-2.3091,-2.3091,-2.3091,-2.311,-2.3227,-2.3525,-2.3828,-2.4072,-2.4607,-2.5135,-2.5215,-2.5478,-2.5693,-2.5693,-2.5693,-2.5586,-2.5235,-2.4381,-2.3329,-2.2224,-2.1165,-2.0256,-1.9739,-1.9428,-1.9301,-1.9448,-1.9654,-1.9738,-1.9557,-1.9679,-1.9752,-1.9533,-1.9219,-1.9045,-1.9045,-1.8865,-1.8811,-1.9025,-1.9045,-1.9011,-1.8931,-1.8657,-1.8364,-1.8009,-1.7756,-1.7582,-1.7582,-1.7582,-1.7582,-1.7582,-1.7582,-1.7582,-1.7582,-1.7582,-1.7582,-1.7582,-1.7582,-1.7582,0.0,0.0,0.0,0.0,0.0,0.0,-1.8942,-1.9147,-1.9442,-1.9798,-1.9986,-2.0228,-2.0673,-2.0577,-2.0524,-2.0713,-2.0542,-2.0486,-2.0576,-2.0605,-2.0605,-2.0605,-2.0791,-2.0957,-2.0957,-2.1191,-2.123,-2.0977,-2.0957,-2.084,-2.0615,-2.0605,-2.0605,-2.0605,-2.0605,-2.0605,-2.0605,-2.0605,-2.0605,-2.0605,-2.0605,-2.0605,-2.0605,-2.0605,-2.0605,-2.0605,-2.0605,-2.0605,-2.0644,-2.1163,-2.1592,-2.197,-2.2373,-2.2656,-2.2857,-2.3033,-2.3091,-2.3091,-2.3091,-2.3257,-2.3545,-2.373,-2.4131,-2.4646,-2.5008,-2.5254,-2.5498,-2.5635,-2.5693,-2.5586,-2.5186,-2.4381,-2.3479,-2.2476,-2.1377,-2.0367,-1.9835,-1.948,-1.9279,-1.9279,-1.938,-1.9396,-1.9313,-1.9359,-1.9396,-1.9235,-1.9014,-1.8878,-1.8758,-1.8597,-1.8557,-1.8724,-1.8744,-1.8744,-1.8744,-1.847,-1.823,-1.8002,-1.7756,-1.7582,-1.7582,-1.7582,-1.7582,-1.7582,-1.7582,-1.7649,-1.7776,-1.7776,-1.7776,-1.7769,-1.7642,-1.7582,0.0,0.0,0.0,0.0,0.0,0.0,-1.9108,-1.9108,-1.9233,-1.9699,-1.9654,-1.9659,-2.0063,-1.9965,-1.9962,-2.04,-2.0324,-2.0315,-2.0585,-2.0605,-2.0605,-2.0605,-2.0605,-2.0605,-2.0605,-2.0605,-2.0605,-2.0605,-2.0605,-2.0605,-2.0605,-2.0605,-2.0605,-2.0605,-2.0605,-2.0605,-2.0605,-2.0605,-2.0605,-2.0605,-2.0605,-2.0605,-2.0605,-2.0605,-2.0605,-2.0605,-2.0605,-2.0605,-2.0605,-2.0605,-2.083,-2.1278,-2.2129,-2.2471,-2.2568,-2.2945,-2.3091,-2.3091,-2.3091,-2.3091,-2.3159,-2.3594,-2.375,-2.3926,-2.4744,-2.5008,-2.5078,-2.5478,-2.5577,-2.5567,-2.5314,-2.4501,-2.3529,-2.2728,-2.1522,-2.0411,-1.9887,-1.9524,-1.9272,-1.9279,-1.9078,-1.8955,-1.9128,-1.9,-1.8865,-1.8816,-1.8825,-1.8731,-1.8477,-1.841,-1.8404,-1.8437,-1.8444,-1.8444,-1.8444,-1.8142,-1.7975,-1.7942,-1.7736,-1.7582,-1.7582,-1.7582,-1.7582,-1.7582,-1.7615,-1.7789,-1.8042,-1.8009,-1.7995,-1.7982,-1.7729,-1.7582,0.0,0.0,0.0,0.0,0.0,0.0,-1.9108,-1.9108,-1.9233,-1.9699,-1.9758,-1.9858,-2.0267,-2.0181,-2.0067,-2.0159,-2.0337,-2.0552,-2.0798,-2.0693,-2.0605,-2.0605,-2.0605,-2.0605,-2.0605,-2.0605,-2.0605,-2.0605,-2.0605,-2.0605,-2.0605,-2.0605,-2.0605,-2.0605,-2.0605,-2.0605,-2.0605,-2.0605,-2.0605,-2.0605,-2.0605,-2.0605,-2.0605,-2.0605,-2.0605,-2.0605,-2.0605,-2.0605,-2.0605,-2.0605,-2.083,-2.1249,-2.1807,-2.2217,-2.2568,-2.2945,-2.3091,-2.3091,-2.3091,-2.3091,-2.311,-2.3198,-2.3506,-2.3818,-2.3984,-2.4277,-2.456,-2.4648,-2.4932,-2.5157,-2.4881,-2.4442,-2.3827,-2.3029,-2.1827,-2.066,-2.0138,-1.9628,-1.9227,-1.9026,-1.8921,-1.8786,-1.831,-1.8412,-1.851,-1.8238,-1.8183,-1.8142,-1.8082,-1.7916,-1.7856,-1.8049,-1.8075,-1.8075,-1.8075,-1.8029,-1.7889,-1.7689,-1.7615,-1.7582,-1.7582,-1.7582,-1.7582,-1.7582,-1.7829,-1.8103,-1.8404,-1.8109,-1.7995,-1.7982,-1.7729,-1.7582,0.0,0.0,0.0,-1.945,0.0,0.0,0.0,-1.945,-1.945,-1.945,-1.945,-1.9513,-1.9706,-1.9679,-1.9692,-1.9918,-1.9976,-2.0101,-2.0434,-2.0657,-2.0741,-2.0741,-2.0654,-2.0605,-2.0605,-2.0605,-2.0605,-2.0605,-2.0605,-2.0605,-2.0605,-2.0605,-2.0605,-2.0605,-2.0605,-2.0605,-2.0605,-2.0605,-2.0605,-2.0605,-2.0605,-2.0605,-2.0605,-2.0605,-2.0605,-2.0605,-2.0605,-2.0605,-2.0605,-2.0605,-2.0742,-2.0947,-2.1387,-2.1826,-2.2246,-2.2676,-2.2916,-2.3091,-2.3091,-2.3091,-2.3091,-2.3091,-2.3247,-2.3506,-2.3721,-2.4082,-2.4414,-2.4414,-2.4643,-2.485,-2.4574,-2.4084,-2.3529,-2.2878,-2.1674,-2.0617,-2.0189,-1.968,-1.9168,-1.875,-1.8646,-1.859,-1.8328,-1.8265,-1.8205,-1.805,-1.7995,-1.7935,-1.7836,-1.7675,-1.7642,-1.7796,-1.7816,-1.7816,-1.7816,-1.7816,-1.7749,-1.7595,-1.7582,-1.7582,-1.7582,-1.7582,-1.7655,-1.7809,-1.8116,-1.841,-1.8704,-1.841,-1.827,-1.8257,-1.7796,-1.7582,0.0,0.0,0.0,0.0,0.0,-2.0224,0.0,0.0,0.0,-1.944,-1.9295,0.0,0.0,0.0,0.0,-1.9596,0.0,0.0,0.0,-2.0441,0.0,-2.0658,-2.0524,-2.0399,-2.0361,-2.0361,-2.0361,-2.0361,-2.0429,-2.0478,-2.0478,-2.0556,-2.0605,-2.0605,-2.0605,-2.0605,-2.0605,-2.0605,-2.0605,-2.0605,-2.0605,-2.0605,-2.0605,-2.0605,-2.0605,-2.0605,-2.0605,-2.0605,-2.0605,-2.0605,-2.0605,-2.0644,-2.1025,-2.1445,-2.1816,-2.2324,-2.2734,-2.2984,-2.3062,-2.3091,-2.3091,-2.3091,-2.3091,-2.3159,-2.3555,-2.3896,-2.417,-2.417,-2.4375,-2.4488,-2.4155,-2.3678,-2.3129,-2.2476,-2.142,-2.0411,-2.0086,-1.9576,-1.9063,-1.8534,-1.837,-1.8296,-1.8338,-1.8117,-1.7902,-1.7902,-1.7902,-1.7816,-1.7615,-1.7582,-1.7582,-1.7582,-1.7582,-1.7582,-1.7582,-1.7582,-1.7582,-1.7582,-1.7582,-1.7582,-1.7582,-1.7642,-1.7789,-1.7989,-1.839,-1.8691,-1.8925,-1.8631,-1.849,-1.8477,-1.7862,-1.7582,0.0,0.0,0.0,0.0,-1.9834,0.0,0.0,0.0,-2.0338,-2.025,0.0,0.0,0.0,0.0,0.0,0.0,0.0,0.0,-1.9831,-2.0053,-2.0091,-1.9793,-1.972,-1.9637,-1.947,-1.9434,-1.9434,-1.9434,-1.9775,-1.999,-1.999,-2.0352,-2.0605,-2.0605,-2.0605,-2.0605,-2.0605,-2.0605,-2.0605,-2.0605,-2.0605,-2.0605,-2.0605,-2.0605,-2.0605,-2.0605,-2.0605,-2.0605,-2.0605,-2.0605,-2.0605,-2.0644,-2.1025,-2.122,-2.1366,-2.2217,-2.2539,-2.2637,-2.2964,-2.3091,-2.3091,-2.3091,-2.3091,-2.311,-2.3149,-2.3198,-2.3237,-2.3237,-2.3632,-2.3962,-2.3448,-2.3305,-2.3029,-2.2021,-2.1121,-2.0359,-1.9835,-1.9324,-1.8862,-1.8475,-1.822,-1.7971,-1.7734,-1.7688,-1.7635,-1.7635,-1.7635,-1.7622,-1.7589,-1.7582,-1.7582,-1.7582,-1.7582,-1.7582,-1.7582,-1.7582,-1.7582,-1.7582,-1.7582,-1.7582,-1.7582,-1.7849,-1.7955,-1.7995,-1.8535,-1.8891,-1.8925,-1.8631,-1.849,-1.8477,-1.7862,-1.7582,0.0,0.0,0.0,0.0,0.0,0.0,-2.0845,0.0,-2.0715,0.0,0.0,0.0,0.0,0.0,0.0,0.0,-1.944,0.0,0.0,0.0,-1.9598,-1.9843,0.0,0.0,-1.9323,-1.9287,-1.9287,-1.9287,-1.9453,-1.9658,-1.9902,-2.0088,-2.0303,-2.0595,-2.0605,-2.0605,-2.0605,-2.0605,-2.0605,-2.0605,-2.0605,-2.0605,-2.0605,-2.0605,-2.0605,-2.0605,-2.0605,-2.0605,-2.0605,-2.0605,-2.0605,-2.0625,-2.0771,-2.1006,-2.1268,-2.1924,-2.2305,-2.2578,-2.2945,-2.3091,-2.3091,-2.3091,-2.3091,-2.3091,-2.3091,-2.3091,-2.3091,-2.3091,-2.3445,-2.3645,-2.2923,-2.2784,-2.2577,-2.1471,-2.0763,-2.0145,-1.9783,-1.9279,-1.8817,-1.8482,-1.8167,-1.7911,-1.7635,-1.7582,-1.7582,-1.7582,-1.7582,-1.7582,-1.7582,-1.7582,-1.7582,-1.7582,-1.7582,-1.7582,-1.7582,-1.7582,-1.7582,-1.7582,-1.7582,-1.7662,-1.7842,-1.7922,-1.8155,-1.8495,-1.8741,-1.9011,-1.9178,-1.8885,-1.8657,-1.8477,-1.7862,-1.7582,-1.953,0.0,0.0,0.0,0.0,0.0,0.0,0.0,0.0,0.0,0.0,0.0,0.0,0.0,0.0,-1.9813,0.0,-1.9253,0.0,-1.9108,0.0,0.0,0.0,0.0,0.0,-1.8689,-1.8738,-1.8821,-1.8903,-1.918,-1.9717,-1.9853,-2.0117,-2.0595,-2.0605,-2.0605,-2.0605,-2.0605,-2.0605,-2.0605,-2.0605,-2.0605,-2.0605,-2.0605,-2.0605,-2.0605,-2.0605,-2.0605,-2.0605,-2.0605,-2.0605,-2.0605,-2.0605,-2.084,-2.1249,-2.1728,-2.2148,-2.2578,-2.2945,-2.3091,-2.3091,-2.3091,-2.3091,-2.3091,-2.3091,-2.3091,-2.312,-2.3237,-2.3541,-2.3589,-2.2786,-2.2588,-2.2274,-2.107,-2.0454,-2.0034,-1.968,-1.9168,-1.8698,-1.8422,-1.8115,-1.7852,-1.7635,-1.7582,-1.7582,-1.7582,-1.7582,-1.7582,-1.7582,-1.7582,-1.7582,-1.7582,-1.7582,-1.7582,-1.7582,-1.7582,-1.7582,-1.7582,-1.7582,-1.7722,-1.7975,-1.8069,-1.8404,-1.8911,-1.9005,-1.9152,-1.9424,-1.9065,-1.8778,-1.8477,-1.7956,-1.7662,0.0,0.0,0.0,-2.0943,0.0,0.0,0.0,0.0,-2.1776,0.0,0.0,0.0,0.0,0.0,-2.0265,-1.9865,-1.9782,0.0,0.0,0.0,0.0,0.0,0.0,0.0,0.0,-1.7155,-1.7229,-1.7645,-1.7904,-1.8418,-1.9268,-1.9697,-2.0117,-2.0595,-2.0605,-2.0605,-2.0605,-2.0605,-2.0605,-2.0605,-2.0605,-2.0605,-2.0605,-2.0605,-2.0605,-2.0605,-2.0605,-2.0605,-2.0605,-2.0605,-2.0605,-2.0605,-2.0605,-2.084,-2.1249,-2.1728,-2.2148,-2.2578,-2.2945,-2.3091,-2.3091,-2.3091,-2.3091,-2.3091,-2.3091,-2.3091,-2.3179,-2.3652,-2.389,-2.3851,-2.3217,-2.2987,-2.2476,-2.0865,-2.03,-1.9983,-1.9428,-1.8848,-1.8422,-1.8422,-1.795,-1.7635,-1.7582,-1.7582,-1.7582,-1.7582,-1.7582,-1.7582,-1.7582,-1.7582,-1.7582,-1.7582,-1.7582,-1.7582,-1.7582,-1.7582,-1.7582,-1.7582,-1.7582,-1.7722,-1.7975,-1.8323,-1.8617,-1.8918,-1.9205,-1.9417,-1.9424,-1.9065,-1.8778,-1.8484,-1.8176,-1.7869,-2.0467,-2.0612,-2.0881,-2.1073,-2.1342,0.0,0.0,0.0,0.0,0.0,0.0,0.0,0.0,0.0,-2.0379,-2.0224,-1.9696,-1.9285,0.0,0.0,0.0,0.0,0.0,0.0,0.0,0.0,0.0,-1.7211,-1.753,-1.7923,-1.8408,-1.9121,-1.9697,-2.0117,-2.0458,-2.0605,-2.0605,-2.0605,-2.0605,-2.0605,-2.0605,-2.0605,-2.0605,-2.0605,-2.0605,-2.0605,-2.0605,-2.0605,-2.0605,-2.0605,-2.0605,-2.0605,-2.0605,-2.084,-2.1249,-2.1728,-2.2148,-2.2578,-2.2945,-2.3091,-2.3091,-2.3091,-2.3091,-2.3091,-2.3091,-2.3091,-2.3188,-2.3662,-2.3909,-2.3898,-2.3476,-2.3292,-2.2778,-2.1377,-2.0712,-2.0205,-1.968,-1.9116,-1.8653,-1.8422,-1.8115,-1.7799,-1.7635,-1.7582,-1.7582,-1.7582,-1.7582,-1.7582,-1.7582,-1.7582,-1.7582,-1.7582,-1.7582,-1.7582,-1.7582,-1.7582,-1.7582,-1.7582,-1.7582,-1.7809,-1.8323,-1.8437,-1.8718,-1.9205,-1.9319,-1.9424,-1.9424,-1.9265,-1.9065,-1.8771,-1.8477,-1.807,-2.0953,-2.1135,-2.1362,-2.1362,-2.159,-2.1807,-2.1807,0.0,-2.1807,0.0,0.0,0.0,0.0,0.0,-2.0565,-2.0245,-1.973,-1.9295,0.0,-1.8849,0.0,0.0,0.0,0.0,0.0,0.0,-1.6819,-1.6826,-1.7171,-1.7579,-1.7978,-1.8828,-1.9482,-1.9902,-2.038,-2.0605,-2.0605,-2.0605,-2.0605,-2.0605,-2.0605,-2.0605,-2.0605,-2.0605,-2.0605,-2.0605,-2.0605,-2.0605,-2.0605,-2.0605,-2.0605,-2.0605,-2.0605,-2.084,-2.1249,-2.1728,-2.2246,-2.273,-2.3003,-2.3091,-2.3091,-2.3091,-2.3091,-2.3091,-2.3091,-2.3091,-2.3218,-2.3848,-2.4072,-2.4132,-2.4046,-2.3744,-2.3129,-2.1878,-2.1027,-2.0367,-1.9835,-1.9279,-1.8817,-1.8482,-1.8167,-1.7911,-1.7635,-1.7582,-1.7582,-1.7582,-1.7582,-1.7582,-1.7582,-1.7582,-1.7582,-1.7582,-1.7582,-1.7582,-1.7582,-1.7582,-1.7582,-1.7582,-1.7689,-1.7969,-1.847,-1.8591,-1.8871,-1.9417,-1.9424,-1.9424,-1.9424,-1.9424,-1.9158,-1.8764,-1.8577,-1.8163]},{"header":{"parameterUnit":"m.s-1","parameterCategory":1,"la1":30.6,"la2":29.2853,"lo1":-89.7004,"lo2":-87.6739,"dy":0.0162,"dx":0.0183,"nx":112,"ny":82,"refTime":"2023-05-09T00:00:00:Z","depth":0,"parameterNumber":3,"parameterNumberName":"V-component_of_WINDS"},"data":[0.0,0.0,0.0,0.0,0.0,0.0,0.0,0.0,0.0,0.0,0.0,0.0,0.0,0.0,0.0,0.0,0.0,0.0,0.0,0.0,0.0,0.0,0.0,0.0,0.0,0.0,0.0,0.0,0.0,0.0,0.0,0.0,0.0,0.0,0.0,0.0,0.0,0.0,0.0,0.0,0.0,0.0,0.0,0.0,0.0,0.0,0.0,0.0,0.0,0.0,0.0,0.0,0.0,0.0,0.0,0.0,0.0,0.0,0.0,0.0,0.0,0.0,0.0,0.0,0.0,0.0,0.0,0.0,0.0,0.0,0.0,0.0,0.0,0.0,0.0,0.0,0.0,0.0,0.0,0.0,0.0,0.0,0.0,0.0,0.0,0.0,0.0,0.0,0.0,0.0,2.1011,2.3329,2.6085,2.7792,2.7903,2.6453,2.5269,2.4633,0.0,0.0,0.0,0.0,0.0,0.0,0.0,0.0,0.0,0.0,0.0,0.0,0.0,0.0,0.0,0.0,0.0,0.0,0.0,0.0,0.0,0.0,0.0,0.0,0.0,0.0,0.0,0.0,0.0,0.0,0.0,0.0,0.0,0.0,0.0,0.0,0.0,0.0,0.0,0.0,0.0,0.0,0.0,0.0,0.0,0.0,0.0,0.0,0.0,0.0,0.0,0.0,0.0,0.0,0.0,0.0,0.0,0.0,0.0,0.0,0.0,0.0,0.0,0.0,0.0,0.0,0.0,0.0,0.0,0.0,0.0,0.0,0.0,0.0,0.0,0.0,0.0,0.0,0.0,0.0,0.0,0.0,0.0,0.0,0.0,0.0,0.0,0.0,0.0,0.0,0.0,0.0,0.0,0.0,0.0,0.0,0.0,0.0,0.0,0.0,0.0,0.0,0.0,0.0,2.2103,2.5009,2.6902,2.7954,2.7986,2.6557,2.5367,2.4652,0.0,0.0,0.0,0.0,0.0,0.0,0.0,0.0,0.0,0.0,0.0,0.0,0.0,0.0,0.0,0.0,0.0,0.0,0.0,0.0,0.0,0.0,0.0,0.0,0.0,0.0,0.0,0.0,0.0,0.0,0.0,0.0,0.0,0.0,0.0,0.0,0.0,0.0,0.0,0.0,0.0,0.0,0.0,0.0,0.0,0.0,0.0,0.0,0.0,0.0,0.0,0.0,0.0,0.0,0.0,0.0,0.0,0.0,0.0,0.0,0.0,0.0,0.0,0.0,0.0,0.0,0.0,0.0,0.0,0.0,0.0,0.0,0.0,0.0,0.0,0.0,0.0,0.0,0.0,0.0,0.0,0.0,0.0,0.0,0.0,0.0,0.0,0.0,0.0,0.0,0.0,0.0,0.0,0.0,0.0,0.0,0.0,0.0,0.0,0.0,0.0,0.0,0.0,2.1835,2.3725,2.5514,2.7089,2.7837,2.7439,2.6388,2.511,2.3555,2.2132,0.0,0.0,0.0,0.0,0.0,0.0,0.0,0.0,0.0,0.0,0.0,0.0,0.0,0.0,0.0,0.0,0.0,0.0,0.0,0.0,0.0,0.0,0.0,0.0,0.0,0.0,0.0,0.0,0.0,0.0,0.0,0.0,0.0,0.0,0.0,0.0,0.0,0.0,0.0,0.0,0.0,0.0,0.0,0.0,0.0,0.0,0.0,0.0,0.0,0.0,0.0,0.0,0.0,0.0,0.0,0.0,0.0,0.0,0.0,0.0,0.0,0.0,0.0,0.0,0.0,0.0,0.0,0.0,0.0,0.0,0.0,0.0,0.0,0.0,0.0,0.0,0.0,0.0,0.0,0.0,0.0,0.0,0.0,0.0,0.0,0.0,0.0,0.0,0.0,0.0,0.0,0.0,0.0,0.0,0.0,0.0,0.0,0.0,0.0,0.0,0.0,0.0,2.3251,2.4956,2.5697,2.6992,2.7579,2.7014,2.6116,2.47,2.2645,2.1903,0.0,0.0,0.0,0.0,0.0,0.0,0.0,0.0,0.0,0.0,0.0,0.0,0.0,0.0,0.0,0.0,0.0,0.0,0.0,0.0,0.0,0.0,0.0,0.0,0.0,0.0,0.0,0.0,0.0,0.0,0.0,0.0,0.0,0.0,0.0,0.0,0.0,0.0,0.0,0.0,0.0,0.0,0.0,0.0,0.0,0.0,0.0,0.0,0.0,0.0,0.0,0.0,0.0,0.0,0.0,0.0,0.0,0.0,0.0,0.0,0.0,0.0,0.0,0.0,0.0,0.0,0.0,0.0,0.0,0.0,0.0,0.0,0.0,0.0,0.0,0.0,0.0,0.0,0.0,0.0,0.0,0.0,0.0,0.0,0.0,0.0,0.0,0.0,0.0,0.0,0.0,0.0,0.0,0.0,0.0,0.0,0.0,0.0,0.0,0.0,0.0,0.0,2.344,2.517,2.5907,2.6738,2.7241,2.7182,2.5829,2.4284,2.2687,2.2017,0.0,0.0,0.0,0.0,0.0,0.0,0.0,0.0,0.0,0.0,0.0,0.0,0.0,0.0,0.0,0.0,0.0,0.0,0.0,0.0,0.0,0.0,0.0,0.0,0.0,0.0,0.0,0.0,0.0,0.0,0.0,0.0,0.0,0.0,0.0,0.0,0.0,0.0,0.0,0.0,0.0,0.0,0.0,0.0,0.0,0.0,0.0,0.0,0.0,0.0,0.0,0.0,0.0,0.0,0.0,0.0,0.0,0.0,0.0,0.0,0.0,0.0,0.0,0.0,0.0,0.0,0.0,0.0,0.0,0.0,0.0,0.0,0.0,0.0,0.0,0.0,0.0,0.0,0.0,0.0,0.0,0.0,0.0,0.0,0.0,0.0,0.0,0.0,0.0,0.0,0.0,0.0,0.0,0.0,0.0,0.0,0.0,0.0,0.0,0.0,0.0,0.0,2.3887,2.5739,0.0,2.6709,2.6997,2.6494,2.5031,2.3483,2.1937,0.0,0.0,0.0,0.0,0.0,0.0,0.0,0.0,0.0,0.0,0.0,0.0,0.0,0.0,0.0,0.0,0.0,0.0,0.0,0.0,0.0,0.0,0.0,0.0,0.0,0.0,0.0,0.0,0.0,0.0,0.0,0.0,0.0,0.0,0.0,0.0,0.0,0.0,0.0,0.0,0.0,0.0,0.0,0.0,0.0,0.0,0.0,0.0,0.0,0.0,0.0,0.0,0.0,0.0,0.0,0.0,0.0,0.0,0.0,0.0,0.0,0.0,0.0,0.0,0.0,0.0,0.0,0.0,0.0,0.0,0.0,0.0,0.0,0.0,0.0,0.0,0.0,0.0,0.0,0.0,0.0,0.0,0.0,0.0,0.0,0.0,0.0,0.0,0.0,0.0,0.0,0.0,0.0,0.0,0.0,0.0,0.0,0.0,0.0,0.0,0.0,0.0,2.1438,2.4183,2.6104,0.0,2.6549,2.6657,2.6117,2.4638,2.3182,2.1894,0.0,0.0,0.0,0.0,0.0,0.0,0.0,0.0,0.0,0.0,0.0,0.0,0.0,0.0,0.0,0.0,0.0,0.0,0.0,0.0,0.0,0.0,0.0,0.0,0.0,0.0,0.0,0.0,0.0,0.0,0.0,0.0,0.0,0.0,0.0,0.0,0.0,0.0,0.0,0.0,0.0,0.0,0.0,0.0,0.0,0.0,0.0,0.0,0.0,0.0,0.0,0.0,0.0,0.0,0.0,0.0,0.0,0.0,0.0,0.0,0.0,0.0,0.0,0.0,0.0,0.0,0.0,0.0,0.0,0.0,0.0,0.0,0.0,0.0,0.0,0.0,0.0,0.0,0.0,0.0,0.0,0.0,0.0,0.0,0.0,0.0,0.0,0.0,0.0,0.0,0.0,0.0,0.0,0.0,0.0,0.0,0.0,0.0,0.0,0.0,0.0,0.0,2.1514,2.4248,2.6204,2.6204,2.6204,2.6204,2.6204,2.4701,2.3454,0.0,0.0,0.0,0.0,0.0,0.0,0.0,0.0,0.0,0.0,0.0,0.0,0.0,0.0,0.0,0.0,0.0,0.0,0.0,0.0,0.0,0.0,0.0,0.0,0.0,0.0,0.0,0.0,0.0,0.0,0.0,0.0,0.0,0.0,0.0,0.0,0.0,0.0,0.0,0.0,0.0,0.0,0.0,0.0,0.0,0.0,0.0,0.0,0.0,0.0,0.0,0.0,0.0,0.0,0.0,0.0,0.0,0.0,0.0,0.0,0.0,0.0,0.0,0.0,0.0,0.0,0.0,0.0,0.0,0.0,0.0,0.0,0.0,0.0,0.0,0.0,0.0,0.0,0.0,0.0,0.0,0.0,0.0,0.0,0.0,0.0,0.0,0.0,0.0,0.0,0.0,0.0,0.0,0.0,0.0,0.0,0.0,0.0,0.0,0.0,0.0,0.0,0.0,2.1514,2.4248,2.6204,2.6204,2.6204,2.6204,2.6204,2.3741,2.2093,2.1867,0.0,0.0,0.0,0.0,0.0,0.0,0.0,0.0,0.0,0.0,0.0,0.0,0.0,0.0,0.0,0.0,0.0,0.0,0.0,0.0,0.0,0.0,0.0,0.0,0.0,0.0,0.0,0.0,0.0,0.0,0.0,0.0,0.0,0.0,0.0,0.0,0.0,0.0,0.0,0.0,0.0,0.0,0.0,0.0,0.0,0.0,0.0,0.0,0.0,0.0,0.0,0.0,0.0,0.0,0.0,0.0,0.0,0.0,0.0,0.0,0.0,0.0,0.0,0.0,0.0,0.0,0.0,0.0,0.0,0.0,0.0,0.0,0.0,0.0,0.0,0.0,0.0,0.0,0.0,0.0,0.0,0.0,0.0,0.0,0.0,0.0,0.0,0.0,0.0,0.0,0.0,0.0,0.0,0.0,0.0,0.0,0.0,0.0,0.0,0.0,0.0,0.0,2.1514,2.4248,2.6204,2.6204,2.6204,2.6204,2.6204,2.3604,2.1975,2.1975,0.0,0.0,0.0,0.0,0.0,0.0,0.0,0.0,0.0,0.0,0.0,0.0,0.0,0.0,0.0,0.0,0.0,0.0,0.0,0.0,0.0,0.0,0.0,0.0,0.0,0.0,0.0,0.0,0.0,0.0,0.0,0.0,0.0,0.0,0.0,0.0,0.0,0.0,0.0,0.0,0.0,0.0,0.0,0.0,0.0,0.0,0.0,0.0,0.0,0.0,0.0,0.0,0.0,0.0,0.0,0.0,0.0,0.0,0.0,0.0,0.0,0.0,0.0,0.0,0.0,0.0,0.0,0.0,0.0,0.0,0.0,0.0,0.0,0.0,0.0,0.0,0.0,0.0,0.0,0.0,0.0,0.0,0.0,0.0,0.0,0.0,0.0,0.0,0.0,0.0,0.0,0.0,0.0,0.0,0.0,0.0,0.0,0.0,0.0,0.0,0.0,0.0,2.1613,2.423,2.6095,2.6095,2.6095,2.6095,2.6095,2.4002,2.2662,2.259,0.0,0.0,0.0,0.0,0.0,0.0,0.0,0.0,0.0,0.0,0.0,0.0,0.0,0.0,0.0,0.0,0.0,0.0,0.0,0.0,0.0,0.0,0.0,0.0,0.0,0.0,0.0,0.0,0.0,0.0,0.0,0.0,0.0,0.0,0.0,0.0,0.0,0.0,0.0,0.0,0.0,0.0,0.0,0.0,0.0,0.0,0.0,0.0,0.0,0.0,0.0,0.0,0.0,0.0,0.0,0.0,0.0,0.0,0.0,0.0,2.3349,2.2995,0.0,0.0,0.0,0.0,0.0,0.0,0.0,0.0,0.0,0.0,0.0,0.0,0.0,0.0,0.0,0.0,0.0,0.0,0.0,0.0,0.0,0.0,0.0,0.0,0.0,0.0,0.0,0.0,0.0,0.0,0.0,0.0,0.0,0.0,0.0,0.0,0.0,0.0,0.0,0.0,2.2445,2.4103,2.5262,2.5262,2.5262,2.5262,2.5262,2.3694,2.2427,2.1794,2.1595,0.0,0.0,0.0,0.0,0.0,0.0,0.0,0.0,0.0,0.0,0.0,0.0,0.0,0.0,0.0,0.0,0.0,0.0,0.0,0.0,0.0,0.0,0.0,0.0,0.0,0.0,0.0,0.0,0.0,0.0,0.0,0.0,0.0,0.0,0.0,0.0,0.0,0.0,0.0,0.0,0.0,0.0,0.0,0.0,0.0,0.0,0.0,0.0,0.0,0.0,0.0,0.0,0.0,0.0,0.0,0.0,0.0,0.0,0.0,2.4353,2.3863,0.0,0.0,0.0,0.0,0.0,0.0,0.0,0.0,0.0,0.0,0.0,0.0,0.0,0.0,0.0,0.0,0.0,0.0,0.0,0.0,0.0,0.0,0.0,0.0,0.0,0.0,0.0,0.0,0.0,0.0,0.0,0.0,0.0,0.0,0.0,0.0,0.0,0.0,0.0,0.0,2.2699,2.4049,2.5009,2.5009,2.5009,2.5009,2.5009,2.3586,2.2518,2.2101,2.1703,0.0,0.0,0.0,0.0,0.0,0.0,0.0,0.0,0.0,0.0,0.0,0.0,0.0,0.0,0.0,0.0,0.0,0.0,0.0,0.0,0.0,0.0,0.0,0.0,0.0,0.0,0.0,0.0,0.0,0.0,0.0,0.0,0.0,0.0,0.0,0.0,0.0,0.0,0.0,0.0,0.0,0.0,0.0,0.0,0.0,0.0,0.0,0.0,0.0,0.0,0.0,0.0,0.0,2.7606,2.7641,2.7589,2.7572,2.7606,2.7605,2.6431,2.5613,2.5103,2.4622,0.0,0.0,0.0,0.0,0.0,0.0,0.0,0.0,0.0,0.0,0.0,0.0,0.0,0.0,0.0,0.0,0.0,0.0,0.0,0.0,0.0,0.0,2.5355,2.521,2.5283,2.5185,2.4364,0.0,0.0,0.0,0.0,0.0,0.0,0.0,0.0,0.0,0.0,0.0,2.3079,2.4212,2.5009,2.5009,2.5009,2.4936,2.4791,2.3632,2.2843,2.2717,2.2083,2.1649,0.0,0.0,0.0,0.0,0.0,0.0,0.0,0.0,0.0,0.0,0.0,0.0,0.0,0.0,0.0,0.0,0.0,0.0,0.0,0.0,0.0,0.0,0.0,0.0,0.0,0.0,0.0,0.0,0.0,0.0,0.0,0.0,2.7581,2.8296,0.0,0.0,0.0,0.0,0.0,0.0,0.0,0.0,0.0,0.0,0.0,0.0,0.0,2.7663,2.8373,2.9115,2.9582,2.9765,3.0353,3.0656,3.0696,3.0656,3.0956,3.1515,3.0705,0.0,2.569,2.5725,0.0,0.0,0.0,0.0,0.0,0.0,0.0,0.0,0.0,0.0,0.0,0.0,0.0,0.0,0.0,0.0,0.0,0.0,0.0,0.0,0.0,0.0,2.6716,2.6033,2.6459,2.6784,2.5978,2.474,2.3806,2.3806,2.3806,2.3759,0.0,0.0,0.0,0.0,0.0,0.0,2.461,2.4864,2.5009,2.5009,2.5009,2.4719,2.4013,2.3759,2.3379,2.2735,2.2608,2.2228,2.1532,2.2264,0.0,0.0,0.0,0.0,0.0,0.0,0.0,0.0,0.0,0.0,0.0,0.0,0.0,0.0,0.0,0.0,0.0,0.0,0.0,0.0,0.0,0.0,0.0,0.0,0.0,0.0,0.0,0.0,0.0,2.7541,2.8234,2.8929,2.873,2.855,0.0,0.0,0.0,0.0,0.0,0.0,0.0,0.0,0.0,2.9841,3.006,3.0541,3.1321,3.2107,3.2743,3.3249,3.3546,3.3677,3.3719,3.3677,3.3863,3.4134,3.3812,3.2293,2.9948,2.839,2.7587,2.7276,0.0,0.0,0.0,0.0,2.656,2.6732,2.6823,2.6933,2.709,2.7461,0.0,0.0,0.0,0.0,0.0,0.0,0.0,2.6579,2.74,2.7994,2.83,2.7929,2.8174,2.829,2.7607,2.6561,2.5513,2.4635,2.4465,2.432,2.3878,2.3806,0.0,0.0,0.0,2.4773,2.557,2.5679,2.5679,2.5679,2.5262,2.4864,2.4502,2.4049,2.365,2.3343,2.3324,2.3161,2.2817,2.3125,2.3324,0.0,0.0,0.0,0.0,0.0,0.0,0.0,0.0,0.0,0.0,0.0,0.0,0.0,0.0,0.0,0.0,0.0,0.0,0.0,0.0,0.0,0.0,0.0,0.0,0.0,0.0,0.0,0.0,2.8475,2.9251,3.0145,3.0075,2.9959,0.0,0.0,0.0,0.0,0.0,0.0,3.077,3.1612,3.2077,3.2077,3.2715,3.3334,3.3895,3.4687,3.5351,3.591,3.609,3.6174,3.6174,3.6174,3.6276,3.6445,3.6259,3.5673,3.459,3.1469,3.0019,2.9598,2.8458,2.8066,2.8186,2.8303,2.8452,2.8582,2.8724,2.8784,2.8917,2.9255,2.8772,2.8047,2.7842,0.0,0.0,0.0,0.0,2.7997,2.9094,2.9834,3.0221,3.0057,3.0095,2.9997,2.9402,2.868,2.7648,2.5945,2.5461,2.5117,2.452,2.4411,0.0,0.0,0.0,2.5606,2.6403,2.65,2.65,2.65,2.5968,2.5534,2.5316,2.4574,2.4103,2.4103,2.3904,2.3806,2.3806,2.3806,2.3806,2.3806,0.0,0.0,0.0,0.0,0.0,0.0,0.0,0.0,0.0,0.0,0.0,0.0,0.0,0.0,0.0,0.0,0.0,0.0,0.0,0.0,0.0,0.0,0.0,0.0,0.0,0.0,0.0,0.0,0.0,3.2348,3.1934,0.0,0.0,0.0,0.0,3.157,3.2329,3.3111,3.3918,3.4813,3.5268,3.5268,3.5369,3.5447,3.5481,3.6282,3.6711,3.6761,3.7449,3.7787,3.7787,3.7787,3.8176,3.8785,3.8091,3.8142,3.843,3.4709,3.2357,3.1092,3.1007,3.1029,3.1089,3.117,3.1319,3.1485,3.1578,3.1633,3.1566,3.0854,3.0058,2.9248,2.8507,2.8798,0.0,0.0,2.9417,3.0612,3.0681,3.1811,3.275,3.2108,3.2108,3.2083,3.1483,3.0856,2.9811,2.7694,2.6663,2.6131,2.6095,0.0,2.6084,2.6131,2.6149,2.6427,2.7242,2.7333,2.7333,2.7333,2.7296,2.6971,2.6204,2.5407,2.4936,2.4936,2.4212,2.3806,2.3806,2.3806,2.3806,2.3806,2.3806,0.0,0.0,0.0,0.0,0.0,0.0,0.0,0.0,0.0,0.0,0.0,0.0,0.0,0.0,0.0,0.0,0.0,0.0,0.0,0.0,0.0,0.0,0.0,0.0,0.0,0.0,0.0,0.0,3.3872,3.3872,0.0,3.5167,3.4609,3.4528,3.5395,3.6226,3.6834,3.7143,3.7988,3.8466,3.8473,3.849,3.8514,3.8497,3.8792,3.8928,3.8928,3.9199,3.9334,3.9334,3.9334,3.9469,3.9706,3.9436,3.9191,3.8886,3.755,3.5825,3.3981,3.3508,3.3055,3.2652,3.2774,3.2855,3.2932,3.2997,3.3039,3.2919,3.2122,3.1654,3.1257,3.0433,3.042,3.075,3.097,3.1511,3.2121,3.2546,3.3175,3.3615,3.3377,3.3478,3.3595,3.3512,3.3015,3.2417,3.1768,2.9889,2.8237,2.7752,2.7675,2.788,2.8431,2.8516,2.8625,2.8915,2.8938,2.8739,2.8238,2.7713,2.7278,2.6989,2.624,2.5769,2.5769,2.5497,2.5117,2.4592,2.4574,2.432,2.3824,2.3806,2.4049,0.0,0.0,0.0,0.0,0.0,0.0,0.0,0.0,0.0,0.0,0.0,0.0,0.0,0.0,0.0,0.0,0.0,0.0,0.0,0.0,0.0,0.0,0.0,0.0,0.0,0.0,3.4005,3.6456,3.6788,3.7344,3.8661,3.8162,3.8012,3.8623,3.9219,3.9564,3.9607,4.0392,4.0849,4.084,4.0849,4.0849,4.084,4.0603,4.046,4.0485,4.0231,4.0231,4.0468,4.0214,4.0248,4.0468,4.0214,3.9825,3.9385,3.9385,3.8328,3.6664,3.5943,3.5351,3.4928,3.5033,3.5055,3.5004,3.4819,3.4397,3.3887,3.3345,3.3002,3.2693,3.2124,3.1975,3.2116,3.2662,3.305,3.3403,3.3857,3.4243,3.4552,3.4593,3.453,3.452,3.4735,3.4314,3.397,3.4163,3.2333,3.0625,3.0165,2.9873,2.9913,3.0532,3.0382,3.0201,3.0201,3.0201,2.9911,2.9101,2.854,2.8105,2.7821,2.7061,2.659,2.659,2.6349,2.5968,2.5425,2.5407,2.5153,2.461,2.461,2.4875,2.544,0.0,0.0,0.0,0.0,0.0,0.0,0.0,0.0,0.0,0.0,0.0,0.0,0.0,0.0,0.0,0.0,0.0,0.0,0.0,0.0,0.0,0.0,0.0,3.3822,3.5197,3.7218,4.016,4.0629,4.0994,4.1761,4.1308,4.1006,4.1172,4.1172,4.1242,4.1373,4.2049,4.2422,4.2405,4.2405,4.2371,4.232,4.1627,4.1271,4.1238,4.0493,4.0527,4.1221,4.0476,4.057,4.117,4.0426,4.013,4.0096,4.0096,3.969,3.8954,3.8227,3.7922,3.7905,3.7905,3.7889,3.777,3.7066,3.5814,3.4523,3.4523,3.4049,3.3474,3.3474,3.3474,3.3474,3.3474,3.3981,3.4523,3.4523,3.5064,3.5622,3.5773,3.5321,3.4903,3.5095,3.4728,3.4422,3.463,3.3844,3.3172,3.325,3.2682,3.2224,3.2292,3.1636,0.0,3.1125,3.1089,3.0781,2.9965,2.9857,2.9518,2.8744,2.7966,2.7514,2.7514,2.6771,2.6349,2.6312,2.6283,2.6258,2.6204,2.6222,2.6275,2.6336,0.0,0.0,0.0,0.0,0.0,0.0,0.0,0.0,0.0,0.0,0.0,0.0,0.0,0.0,0.0,0.0,0.0,0.0,0.0,0.0,0.0,0.0,3.6771,3.697,3.8261,4.0105,4.2653,4.2948,4.3564,4.5022,4.4589,4.4473,4.5155,4.5218,4.5218,4.5263,4.5449,4.5314,4.479,4.4773,4.4231,4.3115,4.2885,4.254,4.1999,4.1779,4.1796,4.1982,4.1779,4.1508,4.1187,4.0984,4.0578,4.0096,4.0096,3.9977,3.9723,3.8988,3.8379,3.7905,3.7905,3.755,3.7083,3.688,3.6129,3.5295,3.5295,3.5143,3.4991,3.4991,3.4991,3.4991,3.4991,3.5126,3.5295,3.5295,3.5447,3.5622,3.5773,3.5735,3.5711,3.586,3.5956,3.606,3.6162,3.6195,3.59,3.496,3.4665,3.4634,3.4793,3.4609,0.0,3.3701,3.3103,3.2433,3.1618,3.1034,3.0581,3.0351,3.0133,3.0007,3.0007,2.9789,2.9409,2.883,2.825,2.7387,2.6222,2.6812,2.7156,0.0,0.0,0.0,0.0,0.0,0.0,0.0,0.0,0.0,0.0,0.0,0.0,0.0,0.0,0.0,0.0,0.0,0.0,0.0,0.0,0.0,0.0,3.8373,4.0558,4.1787,4.2169,4.3202,4.5551,4.6176,4.6817,4.7813,4.7363,4.7035,4.7259,4.6972,4.6786,4.6786,4.6786,4.6599,4.6177,4.5872,4.528,4.4356,4.3713,4.32,4.276,4.2439,4.2455,4.276,4.2439,4.2236,4.21,4.1474,4.0967,4.0527,4.0231,4.0096,4.0062,0.0,0.0,0.0,0.0,3.8159,3.7246,3.7246,3.6535,3.56,3.56,3.5842,3.6096,3.6096,3.6332,3.6495,3.6197,3.6096,3.6028,3.5684,3.5644,3.5689,3.5773,3.5905,3.6019,3.6101,3.6335,3.6564,3.6667,3.7048,0.0,3.6486,3.6193,3.6094,3.6293,3.6019,3.5623,3.5152,3.4682,3.4099,3.3284,3.2488,3.1872,3.1528,3.1197,0.0,0.0,0.0,3.0835,3.0402,2.9948,0.0,0.0,0.0,2.9059,2.9101,2.96,0.0,0.0,2.7609,2.7485,0.0,0.0,0.0,0.0,0.0,0.0,0.0,0.0,0.0,0.0,0.0,0.0,0.0,0.0,0.0,0.0,4.181,4.4273,4.7074,4.6505,4.655,4.8532,4.9513,5.003,5.0047,4.9483,4.8849,4.8206,4.7462,4.7039,4.7039,4.6955,0.0,0.0,0.0,4.5669,4.5585,4.4231,4.3527,4.3538,4.2861,4.2895,4.3521,4.2861,4.2861,4.3325,4.2033,4.1407,4.1271,4.0536,4.018,4.0096,4.0096,4.0096,4.0096,4.0096,3.9208,3.8024,3.8024,0.0,0.0,3.5853,3.6349,3.6931,3.6931,3.7381,3.777,3.7094,3.6863,3.6643,3.5926,3.5779,3.5795,3.5839,3.5949,3.6019,3.6041,3.6212,3.6381,3.6502,3.6968,3.7411,3.7649,3.7287,3.6988,3.7138,3.654,3.6089,3.6089,3.6017,3.5672,3.4966,3.4166,0.0,3.2552,3.1841,3.1415,3.1374,3.1374,3.1364,3.1352,3.1334,3.1297,3.1206,3.1206,3.1232,3.1302,3.1314,3.0973,3.032,2.9453,2.9087,0.0,0.0,0.0,0.0,0.0,0.0,0.0,0.0,0.0,0.0,0.0,0.0,0.0,0.0,0.0,4.3164,4.5169,4.7006,4.8854,5.0038,5.0656,5.0538,5.0671,5.082,5.095,5.0289,4.9813,4.9678,4.8984,4.8578,4.8578,4.802,4.7411,4.6802,4.6075,4.5415,4.4835,4.453,4.4378,4.4378,4.4225,0.0,4.435,4.4225,4.3876,4.3375,4.3088,4.2642,4.2016,4.1288,4.0629,4.0096,4.0096,4.0096,4.0096,4.0096,3.9529,3.8785,3.8785,3.821,3.7466,3.7466,3.7567,3.7686,3.7686,3.7787,0.0,3.7736,3.7246,3.6785,3.6667,3.6237,3.5861,3.6058,3.6122,3.6187,3.6216,3.6423,3.6623,3.6661,3.7143,3.7577,3.7685,3.7771,3.7917,3.8099,3.8004,3.7913,3.7913,3.7332,3.6877,3.6713,3.5985,3.518,3.436,3.4142,3.3777,3.3172,3.3117,3.2826,3.2196,3.216,3.185,3.1206,3.1245,3.1289,3.1302,3.1347,3.1311,3.1146,3.0326,2.9959,0.0,0.0,0.0,0.0,0.0,0.0,0.0,0.0,0.0,0.0,0.0,3.8758,0.0,0.0,4.3409,4.593,4.7732,4.9258,5.0543,5.1816,5.2404,5.1729,5.1999,5.2116,5.176,5.142,5.0879,5.0152,4.9746,4.939,4.9018,4.8663,4.8122,4.7378,4.6633,4.5889,4.5145,4.4801,4.4615,4.4615,4.4615,4.4615,4.4615,4.4615,4.4395,4.3978,4.3561,4.3172,4.276,4.166,4.0984,4.0595,4.0248,4.0096,4.0096,4.0096,3.9639,3.8988,3.8988,3.8514,3.7905,3.7905,3.8159,3.8447,3.8447,3.87,3.892,3.8548,3.8176,3.7743,3.7034,3.665,3.6387,3.6165,3.6187,3.6255,3.6301,3.6444,3.6623,3.6681,3.7066,3.7411,3.7667,3.7914,3.8168,3.8366,3.8399,3.8399,3.8399,3.8052,3.7799,3.7799,3.707,3.6431,3.6045,3.5655,3.5283,3.4885,3.491,3.4759,3.4371,3.3918,3.3515,3.3108,3.2732,3.2543,3.2543,3.2583,3.2394,3.199,3.1586,3.1201,0.0,0.0,0.0,0.0,0.0,0.0,0.0,0.0,3.9255,3.9967,4.0956,4.222,4.4095,4.5069,4.6228,4.8299,4.9726,5.0926,5.1831,5.2538,5.2809,5.2318,5.2977,5.3247,5.2604,5.2384,5.1758,5.0405,5.0168,4.9779,4.9035,4.8866,4.8528,4.7906,4.7056,4.6295,4.572,4.4987,4.4615,4.4615,4.4615,4.4615,4.4615,4.4615,4.4615,4.4564,4.391,4.3527,4.3308,4.2134,4.1457,4.1136,4.057,4.0231,4.0096,4.0096,3.9723,3.9208,3.9208,3.8819,3.8328,3.8328,3.8717,3.9208,3.9208,3.9639,3.9977,3.9377,3.9106,3.8742,3.7581,3.7183,3.6966,3.6395,3.6273,3.6301,3.6301,3.6402,3.6523,3.6643,3.6891,3.7223,3.7577,3.7897,3.8168,3.8382,3.843,3.8465,3.8465,3.8465,3.8465,3.8465,3.7883,3.7426,3.7262,3.6574,3.6142,3.6142,3.6237,3.6303,3.6303,3.5642,3.5169,3.5004,3.4362,3.3972,3.3807,3.3972,3.3623,3.2839,3.2986,3.2546,3.2868,3.3591,3.4866,3.6257,3.7235,3.8179,0.0,0.0,4.2224,4.2953,4.4754,4.6444,4.7338,4.8117,4.911,5.0685,5.1188,5.1658,5.2407,5.2335,5.2202,5.2135,5.2943,5.3467,5.3382,5.2723,5.1961,5.115,5.0473,4.9779,4.9035,4.8392,4.7973,4.7889,4.6566,4.5788,4.5703,4.4987,4.4615,4.4615,4.4615,4.4615,4.4615,4.4615,4.4615,4.4598,4.4513,4.4062,4.3375,4.3206,4.2361,4.1187,4.1119,4.0679,4.0096,4.0096,4.0045,3.9977,3.9977,3.9926,3.9859,3.9859,3.991,3.9977,3.9977,4.0028,4.0079,4.0011,3.952,3.8979,3.8948,3.8029,3.7125,3.7146,3.6711,3.6301,3.6301,3.6402,3.6502,3.6523,3.6851,3.7167,3.7394,3.7791,3.8185,3.8462,3.8593,3.8676,3.8676,3.8676,3.8676,3.8676,3.8585,3.8236,3.7536,3.6729,3.627,3.627,3.6285,3.6303,3.6303,3.6211,3.5789,3.5023,3.4912,3.4509,3.3807,3.4509,3.4454,3.3678,3.4399,3.3922,3.3176,3.4717,3.6539,0.0,3.9553,4.0966,4.2038,4.3711,4.5268,4.6013,4.7239,4.8547,4.969,5.0154,5.0717,0.0,5.198,5.2001,5.1973,5.1828,5.1531,5.0891,5.1174,5.1594,5.2098,5.1877,5.1352,5.0625,5.027,4.9779,4.9035,4.8714,4.8359,4.7906,4.728,4.6786,4.6346,4.6024,4.5652,4.5229,4.5229,4.501,4.4615,4.4615,4.4615,4.4615,4.4615,4.4429,4.4062,4.3578,4.2794,4.1796,4.1373,4.0747,4.0096,4.0096,4.0096,4.0096,4.0096,4.0096,4.0096,4.0096,4.0096,4.0096,4.0096,4.0096,4.0096,4.0096,3.9893,3.9554,3.918,3.8772,3.8236,3.737,3.7102,3.687,3.6404,3.6343,3.6423,3.6602,3.7097,3.7659,3.8125,3.8815,3.9281,3.9148,3.8889,3.8707,3.8707,3.8707,3.8707,3.8707,3.8707,3.856,3.823,3.7881,3.7698,3.7698,3.7698,3.7698,3.7698,3.7239,3.6831,3.6468,3.6009,3.5587,3.5257,3.5587,3.5587,3.5238,3.5078,3.4637,3.4303,3.6324,0.0,4.0067,4.1955,4.3727,4.484,4.6527,4.7968,4.8514,4.9193,4.9972,5.0833,5.0982,5.1231,5.1995,5.2111,5.1947,5.1504,5.1141,5.0543,4.96,4.9192,4.9236,4.9917,5.0541,5.0676,5.0135,5.0084,4.9779,4.9035,4.9001,4.8765,4.824,4.799,4.7618,4.7107,4.6887,4.6532,4.6007,4.5805,4.5415,4.4919,4.4699,4.4615,4.4615,4.4615,4.4615,4.4564,4.3978,4.3166,4.2236,4.1711,4.0916,4.0096,4.0096,4.0096,4.0096,4.0096,4.0096,4.0096,4.0096,4.0096,4.0096,4.0096,4.0096,4.0096,4.0096,4.0096,3.9977,3.9477,3.9384,3.9125,3.8014,3.7784,3.7629,3.706,3.6922,3.7003,3.7228,3.7767,3.8345,3.8922,3.971,4.0095,3.9648,3.926,3.8946,3.8726,3.8707,3.8707,3.8707,3.8707,3.8707,3.8707,3.8707,3.8707,3.8707,3.8707,3.8707,3.8707,3.8138,3.7731,3.7492,3.6942,3.6505,3.6303,3.6505,3.6505,3.6285,3.5881,3.5573,3.6605,0.0,4.0796,4.292,4.4605,4.6262,4.8448,4.9558,5.0121,5.0137,5.0717,5.1015,5.0369,5.0237,5.0469,5.1232,5.1348,5.1332,5.1315,5.0191,4.9159,4.8619,4.7385,4.6692,0.0,4.8866,5.0118,5.0084,5.0084,4.9779,4.9035,4.9001,4.8984,4.8968,4.8291,4.7872,4.7855,4.7158,4.6786,4.6752,4.6041,4.5703,4.5652,4.4925,4.4615,4.4615,4.4615,4.4615,4.4615,4.4581,4.3684,4.2286,4.2269,4.1399,4.0096,4.0096,4.0096,4.0096,4.0096,4.0096,4.0096,4.0096,4.0096,4.0096,4.0096,4.0096,4.0096,4.0096,4.0096,4.0121,4.0246,3.9825,3.9405,3.9414,3.9003,3.8543,3.8525,3.8525,3.857,3.8698,3.8894,3.9172,3.9525,4.0031,4.0203,3.9599,3.9721,3.957,3.8799,3.8707,3.8707,3.8707,3.8707,3.8707,3.8707,3.8707,3.8707,3.8707,3.8707,3.8707,3.8707,3.8689,3.8303,3.7529,3.7474,3.7088,3.6303,3.7088,3.707,3.6321,3.707,3.7015,3.7147,0.0,4.293,4.522,4.7272,4.9044,5.027,5.0734,5.0783,5.032,4.9624,4.8879,4.815,4.8017,4.8084,4.8332,4.9076,4.9471,4.8975,4.8514,4.7885,4.6928,4.6143,0.0,0.0,0.0,0.0,4.8612,4.8646,4.8748,4.8984,4.9001,4.9001,4.9001,4.8765,4.8646,4.8646,4.8376,4.7767,4.6786,4.5551,4.4959,4.4942,4.4716,4.4615,4.4615,4.4615,4.4615,4.4615,4.4615,4.3701,4.2286,4.2286,4.1416,4.0096,4.0096,4.0096,4.0096,4.0096,4.0096,4.0096,4.0096,4.0096,4.0096,4.0096,4.0163,4.0213,4.0138,4.0238,4.0362,4.0313,4.029,4.0134,3.9626,3.9416,3.9198,3.8698,3.8594,3.8661,3.8877,3.9386,3.9956,4.0499,4.1286,4.1576,4.0676,3.9726,3.9019,3.8726,3.8707,3.8707,3.8707,3.8707,3.8707,3.8707,3.8707,3.8707,3.8707,3.8707,3.8707,3.8707,3.8707,3.8579,3.8303,3.8303,3.8157,3.79,3.8157,3.8157,3.7881,3.7621,3.7345,3.9161,4.2169,4.51,4.739,4.9241,5.0578,5.0989,5.089,5.0345,4.9124,4.7688,4.6367,4.536,4.5162,4.5344,4.5872,4.7078,4.7868,4.7654,4.7671,4.7275,4.6074,4.552,4.5307,0.0,0.0,0.0,4.7804,4.7889,4.821,4.8968,4.9001,4.9001,4.9001,4.9001,4.9001,4.9001,4.9001,4.8257,4.6786,4.5568,4.4869,4.4615,4.4615,4.4615,4.4615,4.4615,4.4615,4.4615,4.4615,4.3701,4.2286,4.2286,4.1416,4.0096,4.0096,4.0096,4.0096,4.0096,4.0096,4.0096,4.0096,4.0096,4.0096,4.0096,4.0188,4.028,4.0188,4.0337,4.0485,4.0436,4.0576,4.0577,4.0109,4.0083,4.0014,3.9531,3.9428,3.9491,3.971,4.0205,4.074,4.1254,4.1877,4.2102,4.1565,4.0382,3.935,3.8781,3.8707,3.8707,3.8707,3.8707,3.8707,3.8707,3.8707,3.8707,3.8707,3.8707,3.8707,3.8707,3.8707,3.8707,3.8707,3.8707,3.8707,3.8707,3.8707,3.8707,3.8689,3.8175,3.7933,4.2456,4.5085,4.7292,4.9434,5.0488,5.0947,5.0684,5.0009,4.8813,4.6667,4.5045,4.3567,0.0,0.0,4.2304,4.3764,4.5225,4.6438,4.7208,4.7456,4.7144,0.0,0.0,0.0,0.0,0.0,0.0,4.7787,0.0,4.821,4.8968,4.9001,4.9001,4.9001,4.9001,4.9001,4.9001,4.8934,4.8189,4.6786,4.6007,4.528,4.4615,4.4615,4.4615,4.4615,4.4615,4.4615,4.4615,4.4564,4.3639,4.2286,4.2252,4.1382,4.0096,4.0096,4.0096,4.0096,4.0096,4.0096,4.0096,4.0096,4.0096,4.0096,4.0096,4.0188,4.0305,4.0305,4.0387,4.0534,4.0673,4.0697,4.0745,4.0864,4.0912,4.0912,4.0912,4.0912,4.0935,4.107,4.1261,4.1515,4.1758,4.1785,4.1869,4.2153,4.1595,4.0581,3.8982,3.8762,3.8762,3.8707,3.8707,3.8707,3.8707,3.8707,3.8707,3.8707,3.8707,3.8707,3.8707,3.8707,3.8707,3.8707,3.8707,3.8707,3.8707,3.8707,3.8707,3.8707,3.8707,3.8707,4.403,4.6799,4.913,5.0404,5.085,5.0799,4.9938,4.8348,4.642,4.4105,4.1724,3.9805,0.0,0.0,0.0,3.9838,4.1522,0.0,4.448,4.5163,0.0,4.6321,0.0,4.5796,4.6169,4.6275,0.0,0.0,4.7889,4.821,4.8968,4.9001,4.9001,4.9001,4.9001,4.9001,4.9001,4.7902,4.7158,4.6769,4.5483,4.4801,4.4615,4.4615,4.4615,4.4615,4.4615,4.4615,4.4564,4.3944,4.3149,4.2236,4.1694,4.0899,4.0096,4.0096,4.0096,4.0096,4.0096,4.0096,4.0096,4.0096,4.0096,4.0096,4.0096,4.0188,4.0305,4.0305,4.0478,4.0673,4.0697,4.0769,4.0864,4.0888,4.0912,4.0912,4.0912,4.0912,4.0935,4.107,4.142,4.178,4.1995,4.2332,4.2468,4.2102,4.202,4.1405,3.979,3.9588,3.935,3.8762,3.8707,3.8707,3.8707,3.8707,3.8707,3.8707,3.8707,3.8707,3.8707,3.8707,3.8707,3.8707,3.8707,3.8707,3.8707,3.8707,3.8707,3.8707,3.8707,3.8707,4.6843,4.8954,5.0622,5.145,5.0926,4.9785,4.8407,4.6146,4.3638,4.1028,3.8544,0.0,3.6007,0.0,0.0,0.0,0.0,0.0,4.3718,4.4913,4.5827,0.0,4.6384,0.0,4.6776,4.7214,4.7723,0.0,4.8044,4.821,4.8968,4.9001,4.9001,4.9001,4.9001,4.9001,4.9001,4.753,4.6786,4.6769,4.5309,4.4615,4.4615,4.4615,4.4615,4.4615,4.4615,4.4615,4.4547,4.3741,4.298,4.2219,4.1491,4.0747,4.0096,4.0096,4.0096,4.0096,4.0096,4.0096,4.0096,4.0096,4.0096,4.0096,4.0096,4.0188,4.0305,4.0362,4.0551,4.0721,4.0769,4.084,4.0912,4.0912,4.0912,4.0912,4.0912,4.0912,4.0935,4.107,4.1632,4.2035,4.2009,4.2376,4.2642,4.2487,4.2664,4.2344,4.1111,4.0341,3.9717,3.9276,3.8909,3.8707,3.8707,3.8707,3.8707,3.8707,3.8707,3.8707,3.8707,3.8707,3.8707,3.8707,3.8707,3.8707,3.8707,3.8707,3.8707,3.8707,3.8707,3.8707,4.988,5.1029,5.1685,5.2189,5.0554,4.835,4.6464,4.3661,4.0672,3.7871,0.0,3.4027,3.3508,3.3772,3.4764,3.6937,0.0,4.167,4.3674,4.5287,4.6336,4.647,4.6749,4.7057,4.7265,4.8149,4.8707,4.8738,4.8304,4.8311,4.8968,4.9001,4.9001,4.9001,4.9001,4.9001,4.9001,4.753,4.6786,4.6769,4.5309,4.4615,4.4615,4.4615,4.4615,4.4615,4.4615,4.4615,4.4547,4.3741,4.3031,4.2371,4.1627,4.095,4.04,4.04,4.04,4.04,4.04,4.04,4.0367,4.0163,4.0096,4.013,4.0231,4.0341,4.0475,4.0709,4.0866,4.0971,4.1013,4.1026,4.1032,4.0929,4.0912,4.0912,4.0912,4.0981,4.1073,4.1202,4.1864,4.2288,4.1929,4.2151,4.2536,4.3012,4.3269,4.3173,4.2526,4.1148,4.0139,3.9918,3.9276,3.8817,3.8707,3.8707,3.8707,3.8707,3.8707,3.8707,3.8707,3.8707,3.8707,3.8707,3.8707,3.8707,3.8707,3.8707,3.8707,3.8707,3.8707,3.8707,5.0742,5.1582,5.1736,5.1426,4.9417,4.6918,4.4556,4.1259,0.0,0.0,3.3407,3.1962,3.1958,3.1865,3.2475,3.4705,0.0,0.0,0.0,0.0,4.511,0.0,0.0,0.0,0.0,0.0,0.0,0.0,4.862,4.8759,4.9001,4.9001,4.9001,4.9001,4.9001,4.9001,4.9001,4.753,4.6786,4.6769,4.5309,4.4615,4.4615,4.4615,4.4615,4.4615,4.4615,4.4615,4.4547,4.3741,4.3308,4.3149,4.2388,4.2016,4.1941,4.1941,4.1941,4.1941,4.1941,4.1941,4.1711,4.0502,4.0096,4.0214,4.0815,4.1044,4.1188,4.1928,4.2253,4.2227,4.1778,4.1729,4.1671,4.105,4.0912,4.0912,4.0912,4.1395,4.1826,4.185,4.2122,4.2242,4.1727,4.2068,4.2516,4.2881,4.3196,4.3356,4.3296,4.247,4.1368,4.0029,3.9772,3.9423,3.8762,3.8707,3.8707,3.8707,3.8707,3.8707,3.8707,3.8707,3.8707,3.8707,3.8707,3.8707,3.8707,3.8707,3.8707,3.8707,3.8707,3.8707,5.1195,5.1667,5.167,5.1284,4.8613,4.5468,4.3199,0.0,0.0,0.0,3.1972,3.0775,3.0991,0.0,0.0,0.0,0.0,0.0,0.0,0.0,0.0,0.0,0.0,0.0,0.0,0.0,0.0,4.8245,4.8868,4.9142,4.9018,4.9001,4.9001,4.9001,4.9001,4.9001,4.9001,4.7919,4.7378,4.7361,4.6261,4.572,4.572,4.5348,4.5162,4.5145,4.4784,4.4615,4.4547,4.3741,4.3392,4.3325,4.2591,4.2286,4.2286,4.2286,4.2286,4.2286,4.2286,4.2286,4.2168,4.1484,4.1221,4.1314,4.166,4.1762,4.1873,4.236,4.2593,4.2646,4.2414,4.2496,4.2534,4.2189,4.2102,4.2102,4.2102,4.2689,4.3086,4.2706,4.2816,4.2788,4.2223,4.2243,4.2454,4.275,4.3087,4.3358,4.3479,4.3149,4.247,4.1277,4.0763,4.0194,3.9386,3.9313,3.9148,3.8726,3.8707,3.8707,3.8707,3.8707,3.8707,3.8707,3.8707,3.8707,3.8707,3.8707,3.8707,3.8707,3.8707,3.8707,5.1111,5.132,5.1204,5.0951,4.7834,4.4238,4.206,3.828,0.0,0.0,3.1053,3.0046,3.0471,0.0,3.2306,0.0,0.0,0.0,0.0,0.0,0.0,0.0,0.0,0.0,0.0,0.0,0.0,4.7886,4.8842,4.9295,4.9004,4.9001,4.9001,4.9001,4.9001,4.9001,4.9001,4.8291,4.7889,4.7872,4.7141,4.6786,4.6769,4.6194,4.594,4.5889,4.5145,4.4852,4.4756,4.3978,4.3673,4.3606,4.3014,4.2777,4.2777,4.2777,4.2777,4.2777,4.2777,4.2777,4.2777,4.2777,4.2557,4.232,4.2489,4.254,4.2584,4.2877,4.3087,4.3193,4.3126,4.327,4.3396,4.3241,4.3189,4.3241,4.3396,4.3905,4.4172,4.3585,4.3687,4.3609,4.2818,4.2607,4.2609,4.2728,4.2995,4.3268,4.3462,4.3515,4.3259,4.2616,4.1846,4.1022,4.023,4.0157,3.9882,3.9258,3.9221,3.9148,3.8964,3.8964,3.8891,3.8707,3.8707,3.8707,3.8707,3.8707,3.8707,3.8707,3.8707,3.8707,4.9956,5.0275,5.0061,4.9727,4.6887,4.3548,4.1092,0.0,0.0,3.232,3.0628,2.9637,3.0514,3.1023,3.176,0.0,0.0,3.5862,0.0,0.0,0.0,0.0,0.0,0.0,0.0,0.0,0.0,4.7421,4.8326,4.8899,4.9018,4.9001,4.9001,4.9001,4.9001,4.9001,4.9001,4.8291,4.7889,4.7872,4.7141,4.6786,4.6786,4.6718,4.6684,4.665,4.5923,4.5602,4.5551,4.479,4.4496,4.4496,4.4429,4.4395,4.4395,4.4395,4.4395,4.4395,4.4395,4.4395,4.4395,4.4395,4.342,4.2422,4.3115,4.3291,4.3453,4.4209,4.4599,4.4646,4.398,4.4001,4.4035,4.3362,4.3189,4.3379,4.4052,4.4361,4.4454,4.4385,4.4684,4.4518,4.3105,4.3205,4.3337,4.2934,4.3068,4.3268,4.3462,4.3515,4.3478,4.3387,4.2671,4.1864,4.1058,4.0985,4.0948,4.0875,4.0875,4.0561,3.9808,3.979,3.9441,3.8707,3.8707,3.8707,3.8707,3.8707,3.8707,3.8707,3.8707,3.8707,4.7798,4.8565,4.8633,4.8013,4.5792,4.3024,4.0232,0.0,3.4318,3.2983,3.1653,3.0846,3.1393,3.1758,3.2215,3.2933,3.3772,0.0,0.0,0.0,0.0,0.0,0.0,0.0,0.0,0.0,4.632,4.7489,4.8227,4.8892,4.9521,4.9193,4.9001,4.9001,4.9001,4.9001,4.9001,4.8714,4.8578,4.8578,4.8257,4.8122,4.8105,4.7665,4.7462,4.7411,4.621,4.5703,4.5652,4.4919,4.4615,4.4615,4.4615,4.4615,4.4615,4.4615,4.4615,4.4615,4.4615,4.4615,4.4615,4.4615,4.4192,4.3752,4.4028,4.4113,4.4181,4.4513,4.4737,4.4845,4.4619,4.4747,4.4889,4.4596,4.4527,4.4613,4.4906,4.5062,4.519,4.5275,4.5215,4.4994,4.4475,4.445,4.4293,4.3714,4.387,4.3907,4.3552,4.3515,4.3515,4.3515,4.3221,4.269,4.1901,4.1827,4.1625,4.1132,4.1095,4.0744,3.9918,3.99,3.9515,3.8726,3.8707,3.8707,3.8707,3.8707,3.8707,3.8707,3.8707,3.8964,4.5358,4.6402,4.6834,4.6144,4.433,4.2053,0.0,0.0,3.4607,3.3494,3.2401,3.1806,3.2223,3.2482,3.2734,3.306,3.354,3.4077,0.0,0.0,0.0,0.0,0.0,0.0,0.0,4.5589,4.6358,4.7538,4.8163,4.8882,4.975,4.9299,4.9103,4.9323,4.912,4.9001,4.9001,4.9001,4.9001,4.9001,4.9001,4.9001,4.8984,4.8477,4.824,4.8173,4.6904,4.6244,4.5974,4.5213,4.4818,4.4615,4.4615,4.4615,4.4615,4.4615,4.4615,4.4615,4.4615,4.4615,4.4615,4.4615,4.4615,4.4615,4.4615,4.4615,4.4615,4.4615,4.4709,4.4831,4.5005,4.5194,4.5371,4.5397,4.5397,4.5397,4.5397,4.5528,4.5693,4.5837,4.5796,4.5687,4.5595,4.5581,4.5325,4.4644,4.4783,4.4693,4.3956,4.3846,4.3754,4.3533,4.3515,4.3276,4.269,4.2653,4.2415,4.1864,4.1809,4.146,4.0634,4.0598,4.023,3.9441,3.9184,3.9056,3.9056,3.8817,3.8817,3.9056,3.9056,3.9496,4.2753,4.383,4.4449,4.4105,4.2459,4.0511,0.0,0.0,3.4129,3.3523,3.2544,3.2071,3.2935,3.2983,3.311,3.3786,3.3668,0.0,0.0,0.0,0.0,0.0,0.0,0.0,0.0,4.6247,4.7285,4.7486,4.813,4.8802,4.9555,4.922,4.9323,5.005,4.9373,4.9001,4.9001,4.9001,4.9001,4.9001,4.9001,4.9001,4.9001,4.9001,4.8984,4.8951,4.8206,4.7462,4.6718,4.5991,4.5263,4.4615,4.4615,4.4615,4.4615,4.4615,4.4615,4.4615,4.4615,4.4615,4.4615,4.4615,4.4615,4.4615,4.4615,4.4615,4.4615,4.4615,4.4709,4.4858,4.514,4.5203,4.5247,4.5371,4.5397,4.5397,4.5397,4.5607,4.5846,4.5963,4.6525,4.6775,4.6118,4.6398,4.6433,4.5693,4.5698,4.5517,4.4783,4.469,4.4378,4.3589,4.3515,4.3515,4.3496,4.3496,4.3478,4.3478,4.3478,4.3112,4.2304,4.2286,4.1901,4.1095,4.0286,3.9882,3.9882,3.9093,3.9111,3.9882,3.9882,4.0322,4.0448,4.1252,4.1513,4.1534,4.0546,3.9159,3.7459,0.0,3.4888,3.4276,3.3656,3.3353,3.3719,3.3677,3.3666,3.3993,3.3873,3.3908,0.0,0.0,0.0,0.0,0.0,0.0,0.0,0.0,4.7319,4.7621,4.8628,4.9555,5.0324,4.9961,4.9847,5.0084,4.9373,4.9001,4.9001,4.9001,4.9001,4.9001,4.9001,4.9001,4.9001,4.9001,4.9001,4.8968,4.824,4.7479,4.6735,4.6007,4.5263,4.4615,4.4615,4.4615,4.4615,4.4615,4.4615,4.4615,4.4615,4.4615,4.4615,4.4615,4.4615,4.4615,4.4615,4.4615,4.4615,4.4615,4.4709,4.4831,4.5005,4.514,4.523,4.5371,4.5397,4.5397,4.5397,4.5607,4.5871,4.6087,4.6613,4.6999,4.7036,4.7342,4.7334,4.6647,4.6634,4.6415,4.5626,4.5516,4.5204,4.4415,4.4323,4.4103,4.3551,4.3515,4.3515,4.3515,4.3515,4.313,4.2323,4.2304,4.1919,4.1113,4.0838,4.0726,4.0726,4.0453,4.0471,4.0728,4.1277,4.168,0.0,3.8305,3.8462,3.8375,3.7806,0.0,0.0,0.0,3.4685,3.4595,3.4325,3.4151,3.4226,3.4176,3.4151,3.4176,3.405,3.4089,0.0,0.0,0.0,0.0,0.0,0.0,0.0,4.6348,4.742,4.7671,4.8546,4.944,5.0225,4.9878,4.975,5.0084,4.9373,4.9001,4.9001,4.9001,4.9001,4.9001,4.9001,4.9001,4.9001,4.9001,4.9001,4.8984,4.8528,4.7902,0.0,4.6413,4.5669,4.4976,4.4716,4.4615,4.4615,4.4615,4.4615,4.4615,4.4615,4.4615,4.4615,4.4615,4.4615,4.4615,4.4615,4.4615,4.4615,4.4615,4.4654,4.4765,4.4951,4.5059,4.5167,4.5371,4.5397,4.5397,4.5397,4.5607,4.5871,4.6137,4.6643,4.7143,4.7511,4.7847,4.7945,4.7549,4.7533,4.7259,4.6471,4.6361,4.6049,4.5241,4.4892,4.4507,4.3993,4.3663,4.3515,4.3515,4.3515,4.3277,4.2763,4.2745,4.2525,4.2029,4.1717,4.1535,4.1535,4.1535,4.1535,4.1572,4.2378,4.2745,0.0,3.5016,0.0,0.0,0.0,0.0,0.0,0.0,0.0,3.446,3.4529,3.4431,3.448,3.4497,3.4448,3.43,3.4176,0.0,0.0,0.0,0.0,0.0,0.0,0.0,4.5534,4.6742,4.7521,4.7671,4.805,4.8643,4.9555,4.9129,4.9251,5.0067,4.9373,4.9001,4.9001,4.9001,4.9001,4.9001,4.9001,4.9001,4.9001,4.9001,4.9001,4.9001,4.9001,4.8562,4.7753,4.7073,4.6329,4.5551,4.4886,4.4615,4.4615,4.4615,4.4615,4.4615,4.4615,4.4615,4.4615,4.4615,4.4615,4.4615,4.4615,4.4615,4.4615,4.4615,4.4615,4.4654,4.4913,4.4978,4.5076,4.5318,4.5397,4.5397,4.5397,4.5607,4.5871,4.6137,4.6672,4.7214,4.7636,4.7968,4.8226,4.8287,4.8306,4.8031,4.7278,4.7186,4.6874,4.6067,4.5278,4.4746,4.4691,4.3956,4.3515,4.3515,4.3515,4.3515,4.3515,4.3515,4.3515,4.3515,4.2763,4.2396,4.2396,4.2396,4.2396,4.2396,4.3149,4.3515,3.1358,0.0,3.3225,3.3673,3.3359,3.2958,0.0,0.0,0.0,0.0,0.0,0.0,0.0,3.4349,3.43,3.4176,3.4126,3.4426,0.0,0.0,0.0,0.0,0.0,4.436,4.5403,4.6421,4.7235,4.7671,4.8431,4.9077,4.9588,4.9616,4.9791,5.0084,4.9373,4.9001,4.9001,4.9001,4.9001,4.9001,4.9001,4.9001,4.9001,4.9001,4.9001,4.9001,4.9001,4.8257,4.7056,4.687,4.6024,4.4852,4.4682,4.4615,4.4615,4.4615,4.4615,4.4615,4.4615,4.4615,4.4615,4.4615,4.4615,4.4615,4.4615,4.4615,4.4615,4.4615,4.4615,4.4626,4.4803,4.4923,4.5032,4.522,4.5344,4.5397,4.5397,4.5607,4.5871,4.6137,4.6661,4.716,4.7615,4.7888,4.8092,4.8267,4.8306,4.8233,4.8049,4.8012,4.77,4.6892,4.6104,4.5369,4.4746,4.3956,4.3515,4.3515,4.3515,4.3515,4.3515,4.3515,4.3515,4.3515,4.3296,4.3222,4.3222,4.3222,4.3222,4.3222,4.3423,4.3515,3.0092,3.0719,3.1567,3.1956,3.1808,3.166,0.0,0.0,0.0,0.0,0.0,0.0,0.0,0.0,0.0,3.4226,3.4477,0.0,0.0,0.0,0.0,0.0,4.3365,4.4764,0.0,4.6496,4.7116,4.7671,4.8167,4.858,4.8925,4.9167,4.9159,4.8962,4.8987,4.9001,4.9001,4.9001,4.9001,4.9001,4.8663,4.8511,4.8511,4.8511,4.8511,4.8511,4.8511,4.8054,4.7259,4.6566,4.5821,4.506,4.4733,4.4615,4.4615,4.4615,4.4615,4.4615,4.4615,4.4615,4.4615,4.4615,4.4615,4.4615,4.4615,4.4615,4.4615,4.4615,4.4615,4.4626,4.4765,4.4913,4.5032,4.515,4.53,4.5397,4.5397,4.5607,4.5871,4.6137,4.6666,4.7187,4.7615,4.7927,4.8149,4.8287,4.8306,4.8306,4.8306,4.8306,4.8141,4.77,4.6948,4.6122,4.5333,4.4507,4.3883,4.3533,4.3515,4.3515,4.3515,4.3515,4.3515,4.3515,4.3515,4.3515,4.3515,4.3515,4.3515,4.3515,4.3515,4.3515,2.9562,2.986,3.0357,3.0472,3.0506,3.0654,3.1283,0.0,0.0,0.0,0.0,0.0,0.0,0.0,0.0,0.0,0.0,0.0,0.0,0.0,0.0,0.0,4.4169,0.0,4.6179,4.6598,4.7064,4.7621,4.7671,4.7803,4.8195,4.8271,4.8094,4.7628,4.8301,4.8731,4.8832,4.8951,4.8951,4.8832,4.8206,4.7821,4.775,4.775,4.775,4.775,4.775,4.7652,4.7479,4.6227,4.5635,4.5466,4.4823,4.4615,4.4615,4.4615,4.4615,4.4615,4.4615,4.4615,4.4615,4.4615,4.4615,4.4615,4.4615,4.4615,4.4615,4.4615,4.4615,4.4643,4.4737,4.4886,4.5032,4.514,4.5274,4.5397,4.5397,4.5607,4.5871,4.6137,4.6695,4.7236,4.7636,4.7968,4.8226,4.8287,4.8306,4.8306,4.8306,4.8306,4.8306,4.8306,4.7571,4.6764,4.5975,4.5168,4.436,4.3551,4.3515,4.3515,4.3515,4.3515,4.3515,4.3515,4.3515,4.3515,4.3515,4.3515,4.3515,4.3515,4.3515,4.3515,2.943,2.9479,2.9711,3.034,3.0506,3.0522,3.0638,0.0,0.0,0.0,0.0,0.0,0.0,0.0,0.0,0.0,0.0,0.0,0.0,0.0,0.0,4.378,0.0,4.5,4.6036,4.6298,4.6719,4.747,4.7537,4.7737,4.8163,4.7803,4.7575,4.7594,4.7305,4.7445,4.8041,4.8697,4.8697,4.8058,4.7939,4.7581,4.6972,4.6972,4.6972,4.6972,4.6972,4.6616,4.6024,4.5805,4.5331,4.4767,4.4649,4.4615,4.4615,4.4615,4.4615,4.4615,4.4615,4.4615,4.4615,4.4615,4.4615,4.4615,4.4615,4.4615,4.4615,4.4615,4.4615,4.4598,4.4643,4.4803,4.5005,4.5032,4.522,4.5397,4.5397,4.5607,4.5871,4.6137,4.6695,4.7236,4.7636,4.7968,4.8226,4.8287,4.8306,4.8306,4.8306,4.8306,4.8306,4.8306,4.7571,4.6764,4.5975,4.5168,4.436,4.3551,4.3515,4.3515,4.3515,4.3515,4.3515,4.3515,4.3515,4.3515,4.3515,4.3515,4.3515,4.3515,4.3515,4.3515,2.8853,2.9118,2.9579,3.0307,3.0506,3.0605,3.1002,0.0,0.0,0.0,0.0,0.0,0.0,0.0,3.6128,0.0,0.0,4.0482,4.174,4.2701,4.3539,0.0,0.0,4.5468,4.6285,4.6528,4.6892,4.7554,4.7621,4.7589,4.7501,4.7439,4.7074,4.6331,4.6634,4.6769,4.6718,4.7445,4.7851,4.7872,4.7107,4.6532,4.621,4.621,4.621,4.621,4.621,4.6007,4.5669,4.5263,4.4919,4.4615,4.4615,4.4615,4.4615,4.4615,4.4615,4.4615,4.4615,4.4615,4.4615,4.4615,4.4615,4.4615,4.4615,4.4615,4.4615,4.4615,4.4615,4.4615,4.4615,4.4765,4.4913,4.4978,4.514,4.5327,4.5476,4.5718,4.6005,4.635,4.6898,4.7428,4.7705,4.8032,4.8267,4.8287,4.8306,4.8306,4.8306,4.8306,4.8306,4.8306,4.7957,4.7406,4.6617,4.581,4.4819,4.3588,4.3515,4.3515,4.3515,4.3515,4.3515,4.3515,4.3515,4.3515,4.3515,4.3515,4.3515,4.3515,4.3515,4.3515,2.8144,2.8638,2.935,3.0059,3.0506,3.0903,0.0,0.0,0.0,0.0,0.0,0.0,0.0,3.5292,0.0,3.9752,4.1165,4.2281,4.3371,4.435,4.4957,4.5005,4.5592,4.6179,4.6703,4.6876,4.7167,4.7671,4.7539,4.7276,4.6924,4.6891,4.6374,4.5223,4.5929,4.6092,4.5703,4.6092,4.665,4.7365,4.6244,4.5618,4.5449,4.5449,4.5449,4.5449,4.5449,4.5449,4.5399,4.4852,4.4615,4.4615,4.4615,4.4615,4.4615,4.4615,4.4615,4.4615,4.4615,4.4615,4.4615,4.4615,4.4615,4.4615,4.4615,4.4615,4.4615,4.4615,4.4615,4.4615,4.4615,4.4709,4.4831,4.494,4.5086,4.5257,4.5511,4.5803,4.6137,4.6548,4.7102,4.7578,4.7811,4.8093,4.8306,4.8306,4.8306,4.8306,4.8306,4.8306,4.8306,4.8306,4.8306,4.7957,4.7168,4.6361,4.5296,4.3864,4.3606,4.3515,4.3515,4.3515,4.3515,4.3515,4.3515,4.3515,4.3515,4.3515,4.3515,4.3515,4.3515,4.3515,2.7365,2.7912,2.8641,2.9317,3.0506,0.0,3.1598,3.2663,0.0,3.4584,0.0,0.0,0.0,3.6746,3.8532,4.1206,4.2313,4.3393,4.5167,0.0,4.5914,4.6403,4.6671,4.6911,4.7132,4.7183,4.7302,4.7671,4.7078,4.6731,4.6891,4.5924,4.529,4.5189,4.4889,4.5043,4.5703,4.506,4.5111,4.5872,4.5754,4.5331,4.4682,4.4682,4.4682,4.4682,4.4682,4.4682,4.4682,4.4632,4.4615,4.4615,4.4615,4.4615,4.4615,4.4615,4.4615,4.4615,4.4615,4.4615,4.4615,4.4615,4.4615,4.4615,4.4615,4.4615,4.4615,4.4615,4.4615,4.4615,4.4615,4.4709,4.4803,4.4803,4.5005,4.523,4.5389,4.5709,4.6144,4.659,4.7129,4.76,4.7931,4.817,4.8306,4.8306,4.8306,4.8306,4.8306,4.8306,4.8306,4.8306,4.8306,4.7957,4.7168,4.6361,4.5535,4.4672,4.3901,4.3515,4.3515,4.3515,4.3515,4.3515,4.3515,4.3515,4.3515,4.3515,4.3515,4.3515,4.3515,4.3515,2.7182,2.7829,2.8558,2.9234,3.0858,0.0,0.0,3.4104,3.5512,3.6721,3.6953,0.0,0.0,0.0,4.0171,4.2419,4.3764,4.4998,4.6397,4.6742,4.6873,4.6963,4.7149,4.7352,4.7521,4.7504,4.7424,4.7209,4.6944,4.6413,4.5582,4.5186,4.4866,4.4532,4.445,4.4603,4.4993,4.475,4.475,4.501,4.501,4.4886,4.4615,4.4615,4.4615,4.4615,4.4615,4.4615,4.4615,4.4615,4.4615,4.4615,4.4615,4.4615,4.4615,4.4615,4.4615,4.4615,4.4615,4.4615,4.4615,4.4615,4.4615,4.4615,4.4615,4.4615,4.4615,4.4615,4.4615,4.4615,4.4615,4.4626,4.4709,4.4776,4.4886,4.5059,4.5441,4.5837,4.6291,4.684,4.7349,4.777,4.807,4.8209,4.8306,4.8306,4.8306,4.8306,4.8306,4.8306,4.8306,4.8306,4.8306,4.7957,4.7168,4.6819,4.6305,4.5498,4.469,4.4011,4.3533,4.3515,4.3515,4.3515,4.3515,4.3736,4.425,4.425,4.4507,4.4984,4.4984,4.4984,2.71,2.7829,2.8624,2.9512,0.0,0.0,3.4622,3.5867,3.7111,3.8347,3.883,3.9006,3.9006,0.0,0.0,0.0,4.4818,4.5976,4.7123,4.7454,4.7521,4.7386,4.7537,4.7704,4.7787,4.7572,4.7291,4.6941,4.646,4.5748,4.4738,4.464,4.444,4.4114,4.4224,4.4412,4.4615,4.4615,4.4615,4.4615,4.4615,4.4615,4.4615,4.4615,4.4615,4.4615,4.4615,4.4615,4.4615,4.4615,4.4615,4.4615,4.4615,4.4615,4.4615,4.4615,4.4615,4.4615,4.4615,4.4615,4.4615,4.4615,4.4615,4.4615,4.4615,4.4615,4.4615,4.4615,4.4615,4.4615,4.4615,4.4615,4.4626,4.4709,4.4776,4.494,4.5441,4.5862,4.6339,4.7017,4.7496,4.787,4.8169,4.8267,4.8306,4.8306,4.8526,4.8618,4.8343,4.8545,4.8618,4.8343,4.8306,4.8067,4.7516,4.748,4.7131,4.6342,4.5755,4.5112,4.4287,4.4267,4.4267,4.4267,4.4267,4.4525,4.5094,4.5094,4.5369,4.5902,4.5902,4.5902,2.7116,2.7845,2.8757,3.0162,0.0,0.0,3.6795,3.7894,3.8635,3.9385,4.0217,4.0836,4.0819,4.1439,0.0,4.4404,4.532,4.6186,4.734,4.7621,4.7704,4.7704,4.7886,4.8001,4.7984,4.7322,4.6891,4.6874,4.5516,4.4688,4.4702,4.4175,4.3956,4.4097,4.4224,4.4412,4.4615,4.4615,4.4615,4.4615,4.4598,4.4598,4.4615,4.4598,4.4598,4.4598,4.4598,4.4598,4.4598,4.4615,4.4615,4.4615,4.4615,4.4615,4.4615,4.4615,4.4615,4.4615,4.4615,4.4615,4.4615,4.4615,4.4615,4.4615,4.4615,4.4615,4.4615,4.4615,4.4615,4.4615,4.4615,4.4615,4.4615,4.4615,4.4709,4.4913,4.531,4.5709,4.6242,4.7125,4.7511,4.7845,4.8229,4.8306,4.8306,4.8306,4.904,4.9298,4.8416,4.9058,4.9262,4.8398,4.8306,4.8306,4.8306,4.8306,4.7957,4.7168,4.7113,4.6746,4.592,4.5902,4.5902,4.5902,4.5902,4.5902,4.5902,4.5902,4.592,4.592,4.592,4.592,2.7862,2.9031,0.0,3.0551,0.0,0.0,0.0,3.8806,0.0,0.0,4.2931,4.297,4.2451,4.2535,0.0,4.4783,4.5546,4.642,4.7801,4.7951,4.7886,4.7886,4.7968,4.7802,4.7272,4.7023,4.646,4.5417,4.4937,4.4473,4.3959,4.3774,4.3805,4.4097,4.4155,4.4298,4.4615,4.4615,4.4615,4.4598,4.4028,4.4045,4.4581,4.4012,4.3775,4.3775,4.3775,4.3775,4.3809,4.4378,4.4615,4.4615,4.4615,4.4615,4.4615,4.4615,4.4615,4.4615,4.4615,4.4615,4.4615,4.4615,4.4615,4.4615,4.4615,4.4615,4.4615,4.4615,4.4615,4.4615,4.4615,4.4615,4.4615,4.4615,4.4626,4.4776,4.515,4.5597,4.6165,4.7017,4.7496,4.7872,4.8248,4.8306,4.8306,4.8306,4.904,4.9519,4.9262,4.8893,4.86,4.8343,4.8306,4.8306,4.8306,4.8306,4.8214,4.7957,4.7938,4.7333,4.5957,4.5902,4.5902,4.5902,4.5902,4.6177,4.6727,4.6727,4.7021,4.759,4.759,4.759,2.8666,2.9769,0.0,3.1854,3.4186,3.6884,3.9303,0.0,0.0,0.0,4.4517,4.4265,4.4113,4.3827,0.0,4.5102,4.5537,4.6118,4.7178,4.7266,4.7187,4.7123,4.7123,4.6941,4.651,4.6195,4.5649,4.4785,4.4423,4.4075,4.3615,4.3598,4.3747,4.4097,4.4097,4.4241,4.4615,4.4265,4.4113,4.4113,4.3335,4.3217,4.3684,4.3183,4.2963,4.2963,4.2963,4.2963,4.3014,4.347,4.387,4.4113,4.4113,4.4316,4.4615,4.4615,4.4615,4.4615,4.4615,4.4615,4.4615,4.4615,4.4615,4.4615,4.4615,4.4615,4.4615,4.4615,4.4615,4.4615,4.4615,4.4615,4.4615,4.4615,4.4626,4.4776,4.5177,4.5641,4.6182,4.6954,4.7728,4.8325,4.8684,4.9038,4.9297,4.9297,4.9462,4.9721,5.0051,4.904,4.8306,4.8306,4.8306,4.8306,4.8306,4.8306,4.8306,4.8306,4.8306,4.7865,4.6893,4.6856,4.6856,4.6856,4.6856,4.7095,4.7571,4.7571,4.7828,4.8306,4.8306,4.8306,2.9473,0.0,0.0,3.3667,3.6118,0.0,4.2598,4.336,4.3788,4.537,0.0,4.4919,4.5585,4.5094,4.4778,4.5349,4.5421,4.5555,4.5988,4.6012,4.5951,4.5844,4.5829,4.5765,4.5698,4.5086,4.4655,4.4589,4.3992,4.3598,4.3598,4.3598,4.3713,4.3997,4.3997,4.4123,4.4395,4.3673,4.3291,4.3274,4.2557,4.2202,4.2202,4.2202,4.2202,4.2202,4.2202,4.2236,4.2286,4.2286,4.2692,4.3291,4.3358,4.3859,4.4513,4.4581,4.4615,4.4615,4.4615,4.4615,4.4615,4.4615,4.4615,4.4615,4.4615,4.4615,4.4615,4.4615,4.4615,4.4615,4.4615,4.4615,4.4615,4.4626,4.4737,4.494,4.5336,4.5735,4.6242,4.6972,4.8059,4.8983,4.9334,5.0171,5.08,5.0912,5.0215,5.0014,5.0802,4.9462,4.8416,4.8416,4.8361,4.8306,4.8306,4.8306,4.8306,4.8306,4.8306,4.8306,4.8306,4.8306,4.8306,4.8306,4.8306,4.8306,4.8306,4.8306,4.8306,4.8306,4.8306,4.8306,3.0238,3.1491,0.0,0.0,3.7415,4.0975,4.2953,4.3866,4.4559,4.5517,4.5568,4.5517,4.5669,4.5094,4.4823,4.551,4.5496,4.5614,4.6307,4.6166,4.5982,4.5951,4.5875,4.5566,4.4986,4.4771,4.4456,4.3893,4.3681,4.3598,4.3598,4.3598,4.3481,4.3243,4.3227,4.311,4.2794,4.2608,4.254,4.2523,4.1796,4.1441,4.1441,4.1441,4.1441,4.1441,4.1441,4.1762,4.2286,4.2286,4.2388,4.2591,4.3156,4.3521,4.3741,4.4378,4.4615,4.4615,4.4615,4.4615,4.4615,4.4615,4.4615,4.4615,4.4615,4.4615,4.4615,4.4615,4.4615,4.4615,4.4615,4.4615,4.4654,4.4858,4.494,4.5059,4.5468,4.5887,4.6339,4.6972,4.7971,4.8876,4.9314,5.0092,5.0884,5.1628,5.1059,5.082,5.1628,5.0306,4.9335,4.9335,4.871,4.8306,4.8306,4.8306,4.8306,4.8306,4.8306,4.8306,4.8306,4.8306,4.8306,4.8306,4.8306,4.8306,4.8306,4.8306,4.8306,4.8306,4.8306,4.8306,3.0533,0.0,0.0,3.6437,0.0,4.2117,4.3623,4.4282,4.4716,4.5077,4.5162,4.528,4.5635,4.5094,4.4733,4.5111,4.5105,4.512,4.5404,4.5307,4.5159,4.4997,4.4936,4.4713,4.4208,4.4175,4.4026,4.3631,4.3267,4.3069,4.3069,4.2738,4.2518,4.2473,4.2473,4.241,4.2286,4.1948,4.1762,4.1762,4.1018,4.0663,4.0663,4.0663,4.0663,4.0663,4.0663,4.0882,4.1264,4.1264,4.1441,4.1847,4.2591,4.3098,4.3494,4.4282,4.4615,4.4615,4.4615,4.4615,4.4615,4.4615,4.4615,4.4615,4.4615,4.4615,4.4615,4.4615,4.4615,4.4615,4.4615,4.4654,4.4748,4.5032,4.5123,4.531,4.5786,4.6211,4.6619,4.7084,4.8383,4.9456,4.9792,5.0905,5.1943,5.2488,5.1885,5.1518,5.194,5.0912,5.0013,4.9647,4.9206,4.8746,4.8343,4.8306,4.8306,4.8306,4.8306,4.8306,4.8306,4.8306,4.8306,4.8306,4.8306,4.8306,4.8306,4.8306,4.8306,4.8306,4.8306,4.8306,3.0443,0.0,3.4538,3.8845,4.1027,0.0,4.3887,4.431,4.4384,4.4384,4.4513,4.4801,4.5399,4.4993,4.4615,4.4615,4.4615,4.4542,4.4367,4.4338,4.4224,4.3998,4.3956,4.3852,4.3717,4.3542,4.3475,4.3475,4.275,4.2307,4.2307,4.1711,4.1488,4.1692,4.1603,4.1587,4.1728,4.1119,4.0832,4.0815,4.0333,4.0096,4.0096,4.0096,4.0096,4.0096,4.0096,4.0096,4.0096,4.0096,4.0468,4.1085,4.1813,4.2489,4.3149,4.4045,4.4384,4.4401,4.4564,4.4615,4.4615,4.4615,4.4615,4.4615,4.4615,4.4615,4.4615,4.4615,4.4615,4.4615,4.4615,4.4709,4.4886,4.5177,4.5415,4.5658,4.6161,4.6566,4.6916,4.7276,4.8836,5.0232,5.0486,5.1901,5.306,5.3185,5.2637,5.2197,5.2197,5.1499,5.0747,5.0088,4.9757,4.9317,4.8581,4.8398,4.8306,4.8306,4.8306,4.8306,4.8306,4.8306,4.8306,4.8306,4.8306,4.8306,4.8306,4.8306,4.8306,4.8306,4.8306,4.8306,0.0,0.0,3.5807,0.0,4.0257,4.1576,0.0,0.0,4.3572,0.0,4.4113,4.4632,4.4733,4.4682,4.4615,4.4615,4.4615,4.4598,4.457,4.4412,4.4281,4.4253,4.4155,4.4068,4.4039,4.3356,4.2903,4.2903,4.2045,4.1558,4.1558,4.1458,4.1266,4.0966,4.0347,3.9824,3.9428,3.9326,3.9276,3.9292,3.9842,4.0096,4.0096,4.0096,4.0096,4.0096,4.0096,4.0096,4.0096,4.0096,4.0163,4.0333,4.1052,4.1407,4.166,4.3064,4.3572,4.3673,4.435,4.4615,4.4615,4.4615,4.4615,4.4615,4.4615,4.4615,4.4615,4.4615,4.4615,4.4615,4.4615,4.4709,4.494,4.5441,4.5837,4.6186,4.6495,4.6772,4.707,4.7425,4.9003,5.0522,5.1285,5.2291,5.306,5.3185,5.3115,5.3041,5.3041,5.2344,5.1793,5.1703,5.038,4.9481,4.9445,4.8728,4.8306,4.8306,4.8306,4.8306,4.8306,4.8306,4.8306,4.8306,4.8306,4.8306,4.8306,4.8306,4.8306,4.8306,4.8306,4.8306,2.9839,3.2483,3.5335,0.0,3.9125,4.0798,4.1525,0.0,4.2777,4.2777,4.3064,4.342,4.3859,4.3927,4.3792,4.3396,4.3328,4.3328,4.3328,4.323,4.313,4.3065,4.3026,4.2942,4.2875,4.2534,4.2295,4.2295,4.1522,4.1061,4.1061,4.0294,3.979,3.968,3.8959,3.8521,3.8379,3.8379,3.8582,3.8988,3.9326,3.9706,4.0096,3.9673,3.9723,4.0096,4.0096,4.0096,4.0096,4.0096,4.0096,4.018,4.0916,4.1204,4.1339,4.2388,4.3064,4.3443,4.3809,4.4215,4.4615,4.4615,4.4615,4.4615,4.4615,4.4615,4.4615,4.4615,4.4615,4.4615,4.4615,4.4765,4.5032,4.5477,4.5963,4.6447,4.6842,4.7116,4.7607,4.875,4.9622,5.062,5.2036,5.2612,5.2955,5.3164,5.3185,5.3185,5.3185,5.2894,5.2509,5.205,5.1334,5.0545,4.9665,4.9262,4.882,4.8343,4.8306,4.8306,4.8306,4.8306,4.8306,4.8306,4.8306,4.8306,4.8306,4.8306,4.8306,4.8306,4.8306,4.8306,0.0,0.0,3.4337,3.5716,3.7634,3.9361,0.0,0.0,4.1457,0.0,4.1745,4.2066,4.2269,4.2743,4.2946,4.2388,4.2286,4.2286,4.2286,4.2286,4.226,4.2169,4.2142,4.2105,4.1997,4.1802,4.1674,4.1674,4.0776,4.023,4.023,3.9024,3.8388,3.8513,3.7797,3.7458,3.7618,3.7618,3.799,3.8717,3.8717,3.9005,3.9537,3.8954,3.9005,3.9554,3.974,3.9825,3.9842,4.0028,4.0096,4.0146,4.0696,4.0916,4.1001,4.1745,4.2371,4.2885,4.3257,4.3792,4.4344,4.4547,4.4615,4.4615,4.4615,4.4615,4.4615,4.4615,4.4615,4.4615,4.4615,4.4803,4.5113,4.5546,4.6062,4.6613,4.7156,4.7421,4.8009,4.951,4.9967,5.0591,5.2189,5.2656,5.289,5.3103,5.3185,5.3185,5.3185,5.3185,5.2968,5.2362,5.2105,5.1426,5.0033,4.9721,4.9224,4.8361,4.8306,4.8306,4.8306,4.8306,4.8306,4.8306,4.8306,4.8306,4.8306,4.8306,4.8306,4.8306,4.8306,4.8306,0.0,3.1812,0.0,3.4258,0.0,0.0,0.0,0.0,3.9157,3.9157,4.0273,4.0849,3.9478,4.0933,4.2337,4.2303,4.2286,4.2286,4.2286,4.2286,4.2286,4.2286,4.2286,4.2303,4.2286,4.1529,4.1045,4.1045,3.9587,3.8706,3.8706,3.7978,3.7634,3.7747,3.6982,3.6666,3.6863,3.6863,3.7212,3.7973,3.7973,3.799,3.8024,3.7973,3.799,3.8058,3.8751,3.9056,3.9106,3.9808,4.0096,4.0096,4.0146,4.0163,4.0248,4.0984,4.1288,4.1525,4.2902,4.3426,4.3606,4.4333,4.4615,4.4615,4.4615,4.4615,4.4615,4.4615,4.4615,4.4615,4.4615,4.4803,4.5123,4.5658,4.6211,4.6754,4.7341,4.7593,4.7932,4.88,4.9582,5.0405,5.1387,5.2243,5.285,5.2999,5.3124,5.3185,5.3185,5.3185,5.3167,5.313,5.2454,5.1646,5.082,5.0051,4.9224,4.8361,4.8306,4.8306,4.8306,4.8306,4.8306,4.8306,4.8306,4.8306,4.8306,4.8306,4.8306,4.8306,4.8306,4.8306,0.0,0.0,0.0,3.1951,3.3538,3.5087,3.524,3.6409,3.7479,3.7567,3.8379,3.892,3.8396,3.9715,4.0595,3.9631,3.9478,3.9478,3.9478,3.9478,3.9478,3.9478,3.9884,4.0172,4.0172,4.0333,4.024,3.9767,3.9193,3.8638,3.8183,3.7441,3.706,3.7131,3.6325,3.596,3.6045,3.6028,3.6417,3.7178,3.7178,3.7432,3.7889,3.7398,3.7178,3.7195,3.7472,3.8132,3.9056,3.9808,4.0096,4.0096,4.0096,4.0096,4.013,4.0417,4.0781,4.1288,4.1813,4.2625,4.3443,4.3741,4.4181,4.4615,4.4615,4.4615,4.4615,4.4615,4.4615,4.4615,4.4615,4.4803,4.5203,4.6112,4.669,4.7165,4.7533,4.7675,4.7932,4.8728,4.9546,5.0387,5.1332,5.2225,5.2846,5.2977,5.3103,5.3185,5.3185,5.3185,5.3185,5.3185,5.2949,5.2435,5.1628,5.082,5.0013,4.9187,4.8618,4.8306,4.8306,4.8306,4.8306,4.8306,4.8306,4.8306,4.8306,4.8306,4.8306,4.8306,4.8306,4.8306,2.8144,0.0,0.0,0.0,0.0,3.3433,3.3559,0.0,3.5525,3.5863,3.6551,3.7097,3.7091,3.8135,3.8751,3.8024,3.7905,3.7905,3.7905,3.7905,3.7905,3.7905,3.8328,3.8633,3.8633,3.9056,3.9157,3.8667,3.8396,3.8041,3.755,3.6806,3.64,3.64,3.5893,3.56,3.56,3.56,3.5876,3.64,3.64,3.6654,3.7127,3.662,3.64,3.64,3.6694,3.7371,3.8328,3.9334,3.974,3.9757,4.0011,4.0096,4.0096,4.0096,4.0417,4.0865,4.1119,4.1847,4.2733,4.3223,4.3775,4.4231,4.453,4.4615,4.4615,4.4615,4.4615,4.4615,4.4615,4.4923,4.5477,4.6381,4.6944,4.7385,4.7636,4.7717,4.7932,4.8728,4.9329,4.9967,5.0889,5.1784,5.2426,5.2513,5.2898,5.3185,5.3185,5.3185,5.3185,5.3185,5.3185,5.2876,5.2068,5.1261,5.0453,4.9647,4.8783,4.8306,4.8306,4.8306,4.8306,4.8306,4.8306,4.8306,4.8306,4.8306,4.8306,4.8306,4.8306,4.8306,0.0,0.0,0.0,0.0,0.0,0.0,3.1922,0.0,3.3254,3.4008,3.4858,3.5464,3.5492,3.6196,3.6992,3.7696,3.7814,3.7838,3.7838,3.7838,3.7838,3.7838,3.7855,3.7872,3.7872,3.7889,3.7889,3.7872,3.7195,3.6795,3.6778,3.6028,3.56,3.56,3.56,3.56,3.56,3.56,3.56,3.56,3.56,3.56,3.56,3.56,3.56,3.5633,3.6417,3.6761,3.688,3.8345,3.8971,3.9056,3.9791,4.0079,4.0096,4.0096,4.0096,4.0214,4.0916,4.1187,4.1441,4.2868,4.3358,4.3555,4.4344,4.4581,4.4615,4.4615,4.4615,4.4615,4.4598,4.5203,4.5938,4.6471,4.6944,4.7363,4.7636,4.7696,4.7913,4.871,4.8873,4.9166,4.9949,5.0904,5.1602,5.1602,5.249,5.3148,5.3148,5.313,5.313,5.317,5.3148,5.2858,5.2068,5.1261,5.0453,4.9647,4.8783,4.8306,4.8306,4.8306,4.8306,4.8306,4.8306,4.8306,4.8306,4.8306,4.8306,4.8306,4.8306,4.8306,2.8804,0.0,0.0,0.0,0.0,0.0,0.0,0.0,3.241,3.3227,3.4013,3.4706,3.5276,3.5637,3.5948,3.6127,3.6196,3.6225,3.6225,3.6225,3.6225,3.6225,3.6755,3.7117,3.7117,3.7584,3.7686,3.7127,3.6931,3.6558,3.596,3.5718,3.56,3.56,3.56,3.56,3.56,3.56,3.56,3.56,3.56,3.56,3.56,3.56,3.56,3.5616,3.5836,3.5943,3.6062,3.7584,3.8514,3.9005,3.9208,3.9639,4.0096,4.0096,4.0096,4.013,4.0333,4.0747,4.1271,4.1694,4.2513,4.3426,4.3673,4.413,4.4615,4.4615,4.4615,4.4654,4.4831,4.5257,4.5786,4.6332,4.6847,4.729,4.7508,4.7636,4.7772,4.7986,4.8493,4.9006,4.9331,5.0605,5.1624,5.1728,5.2095,5.2325,5.2325,5.183,5.1683,5.227,5.2325,5.2234,5.2013,5.1261,5.0453,4.9647,4.8783,4.8306,4.8306,4.8306,4.8306,4.8306,4.8306,4.8306,4.8306,4.8306,4.8306,4.8306,4.8306,4.8306,0.0,0.0,0.0,0.0,0.0,0.0,3.0609,3.0941,3.1494,3.2307,3.2856,3.3417,3.4152,3.4415,3.4583,3.4902,3.5049,3.5217,3.5549,3.56,3.56,3.56,3.6011,3.6299,3.6299,3.6705,3.6772,3.6332,3.6299,3.6096,3.5616,3.56,3.56,3.56,3.56,3.56,3.56,3.56,3.56,3.56,3.56,3.56,3.56,3.56,3.56,3.56,3.56,3.56,3.5667,3.6563,3.7398,3.8149,3.8751,3.9242,3.969,3.9994,4.0096,4.0096,4.0096,4.0383,4.0781,4.1102,4.1796,4.2581,4.3206,4.3741,4.4164,4.4513,4.4615,4.4654,4.4858,4.5257,4.5709,4.6211,4.6772,4.7263,4.7446,4.7615,4.7717,4.7717,4.8119,4.8617,4.9029,5.0268,5.1195,5.1276,5.1713,5.1867,5.1536,5.1096,5.0986,5.1444,5.1499,5.1499,5.1499,5.0747,5.0086,4.9629,4.8783,4.8306,4.8306,4.8306,4.8306,4.8306,4.8306,4.8489,4.8838,4.8838,4.8838,4.882,4.8471,4.8306,0.0,0.0,0.0,0.0,0.0,0.0,3.0506,3.0506,3.0704,3.1449,3.1684,3.2002,3.274,3.2983,3.3304,3.3952,3.4247,3.4661,3.5476,3.56,3.56,3.56,3.56,3.56,3.56,3.56,3.56,3.56,3.56,3.56,3.56,3.56,3.56,3.56,3.56,3.56,3.56,3.56,3.56,3.56,3.56,3.56,3.56,3.56,3.56,3.56,3.56,3.56,3.56,3.56,3.6079,3.6948,3.8328,3.892,3.9089,3.9842,4.0096,4.0096,4.0096,4.0096,4.0214,4.0865,4.1136,4.1441,4.275,4.3206,4.3436,4.413,4.4412,4.4507,4.4629,4.5125,4.5684,4.6087,4.6684,4.7223,4.7425,4.7575,4.7699,4.7717,4.7819,4.812,4.887,4.982,5.0456,5.0495,5.12,5.1463,5.0765,5.0582,5.0563,5.0655,5.0674,5.0674,5.0674,5.0014,4.9555,4.9463,4.8728,4.8306,4.8306,4.8306,4.8306,4.8306,4.8398,4.8875,4.9739,4.9647,4.961,4.9574,4.871,4.8306,0.0,0.0,0.0,0.0,0.0,0.0,3.0506,3.0506,3.0704,3.1449,3.162,3.1857,3.2591,3.2851,3.2989,3.3139,3.3762,3.4544,3.5397,3.5571,3.56,3.56,3.56,3.56,3.56,3.56,3.56,3.56,3.56,3.56,3.56,3.56,3.56,3.56,3.56,3.56,3.56,3.56,3.56,3.56,3.56,3.56,3.56,3.56,3.56,3.56,3.56,3.56,3.56,3.56,3.6079,3.6897,3.777,3.8481,3.9089,3.9842,4.0096,4.0096,4.0096,4.0096,4.013,4.0282,4.0713,4.1255,4.1542,4.2049,4.254,4.2692,4.3183,4.3684,4.3865,4.4668,4.5529,4.5938,4.6542,4.7093,4.7298,4.7533,4.7738,4.784,4.7881,4.7997,4.8327,4.9082,4.9671,4.9771,4.9958,5.0014,4.9849,4.9224,4.9058,4.9757,4.9831,4.9831,4.9831,4.9702,4.9317,4.86,4.8398,4.8306,4.8306,4.8306,4.8306,4.8306,4.8985,4.9738,5.0563,4.9922,4.961,4.9574,4.871,4.8306,0.0,0.0,0.0,3.1052,0.0,0.0,0.0,3.1052,3.1052,3.1052,3.1052,3.1151,3.1537,3.1646,3.1822,3.2187,3.2679,3.3289,3.4091,3.4981,3.5566,3.5566,3.5594,3.56,3.56,3.56,3.56,3.56,3.56,3.56,3.56,3.56,3.56,3.56,3.56,3.56,3.56,3.56,3.56,3.56,3.56,3.56,3.56,3.56,3.56,3.56,3.56,3.56,3.56,3.56,3.5836,3.6282,3.7043,3.7804,3.8531,3.9276,3.9791,4.0096,4.0096,4.0096,4.0096,4.0096,4.0367,4.0713,4.1085,4.1711,4.2286,4.2286,4.2898,4.359,4.3768,4.4706,4.5684,4.6013,4.6613,4.7133,4.7276,4.7511,4.7741,4.7907,4.7947,4.8115,4.8696,4.9179,4.9513,4.9591,4.961,4.9445,4.9003,4.8563,4.8471,4.8893,4.8948,4.8948,4.8948,4.8948,4.8765,4.8343,4.8306,4.8306,4.8306,4.8306,4.8508,4.893,4.9774,5.0582,5.1389,5.0582,5.0196,5.016,4.8893,4.8306,0.0,0.0,0.0,0.0,0.0,3.2365,0.0,0.0,0.0,3.1035,3.0803,0.0,0.0,0.0,0.0,3.1283,0.0,0.0,0.0,3.4019,0.0,3.5071,3.5105,3.5155,3.5177,3.5177,3.5177,3.5177,3.5295,3.538,3.538,3.5515,3.56,3.56,3.56,3.56,3.56,3.56,3.56,3.56,3.56,3.56,3.56,3.56,3.56,3.56,3.56,3.56,3.56,3.56,3.56,3.5667,3.6508,3.7144,3.7787,3.8667,3.9377,3.991,4.0045,4.0096,4.0096,4.0096,4.0096,4.0214,4.0798,4.139,4.1863,4.1863,4.2647,4.3503,4.3689,4.4768,4.5887,4.6211,4.6731,4.7223,4.732,4.7554,4.7783,4.797,4.8012,4.8291,4.9047,4.9275,4.9353,4.9353,4.9353,4.9115,4.8398,4.8306,4.8306,4.8306,4.8306,4.8306,4.8306,4.8306,4.8306,4.8306,4.8306,4.8306,4.8306,4.8471,4.8875,4.9592,5.0527,5.1353,5.1995,5.1187,5.0802,5.0765,4.9077,4.8306,0.0,0.0,0.0,0.0,3.1664,0.0,0.0,0.0,3.2547,3.2486,0.0,0.0,0.0,0.0,0.0,0.0,0.0,0.0,3.1735,3.2563,3.3272,3.3518,3.3561,3.3587,3.3639,3.366,3.366,3.366,3.4252,3.4624,3.4624,3.525,3.56,3.56,3.56,3.56,3.56,3.56,3.56,3.56,3.56,3.56,3.56,3.56,3.56,3.56,3.56,3.56,3.56,3.56,3.56,3.5667,3.6508,3.6846,3.71,3.8481,3.9039,3.9208,3.9876,4.0096,4.0096,4.0096,4.0096,4.013,4.0197,4.0282,4.035,4.035,4.1452,4.2678,4.2963,4.4413,4.5938,4.6429,4.6888,4.7245,4.7446,4.7678,4.7884,4.7972,4.809,4.8225,4.8396,4.8434,4.8453,4.8453,4.8453,4.8416,4.8324,4.8306,4.8306,4.8306,4.8306,4.8306,4.8306,4.8306,4.8306,4.8306,4.8306,4.8306,4.8306,4.904,4.95,4.961,5.1098,5.1903,5.1995,5.1187,5.0802,5.0765,4.9077,4.8306,0.0,0.0,0.0,0.0,0.0,0.0,3.3359,0.0,3.3232,0.0,0.0,0.0,0.0,0.0,0.0,0.0,3.1035,0.0,0.0,0.0,3.1903,3.2942,0.0,0.0,3.3385,3.3406,3.3406,3.3406,3.3694,3.4049,3.4472,3.4793,3.5165,3.5583,3.56,3.56,3.56,3.56,3.56,3.56,3.56,3.56,3.56,3.56,3.56,3.56,3.56,3.56,3.56,3.56,3.56,3.5633,3.5977,3.6383,3.6931,3.7973,3.8633,3.9106,3.9842,4.0096,4.0096,4.0096,4.0096,4.0096,4.0096,4.0096,4.0096,4.0096,4.1333,4.2766,4.3113,4.4595,4.6161,4.6708,4.7048,4.7316,4.7468,4.7717,4.7922,4.799,4.811,4.8226,4.8287,4.8306,4.8306,4.8306,4.8306,4.8306,4.8306,4.8306,4.8306,4.8306,4.8306,4.8306,4.8306,4.8306,4.8306,4.8306,4.8306,4.8526,4.9022,4.9408,5.0051,5.0987,5.1667,5.2234,5.2692,5.1885,5.1261,5.0765,4.9077,4.8306,3.1255,0.0,0.0,0.0,0.0,0.0,0.0,0.0,0.0,0.0,0.0,0.0,0.0,0.0,0.0,3.1631,0.0,3.0737,0.0,3.0506,0.0,0.0,0.0,0.0,0.0,3.2127,3.2212,3.2435,3.2658,3.322,3.415,3.4387,3.4844,3.5583,3.56,3.56,3.56,3.56,3.56,3.56,3.56,3.56,3.56,3.56,3.56,3.56,3.56,3.56,3.56,3.56,3.56,3.56,3.56,3.6096,3.6897,3.7635,3.8362,3.9106,3.9842,4.0096,4.0096,4.0096,4.0096,4.0096,4.0096,4.0096,4.0146,4.035,4.1503,4.2886,4.3539,4.4935,4.6308,4.6911,4.7183,4.7341,4.7511,4.7741,4.7927,4.7992,4.813,4.8228,4.8287,4.8306,4.8306,4.8306,4.8306,4.8306,4.8306,4.8306,4.8306,4.8306,4.8306,4.8306,4.8306,4.8306,4.8306,4.8306,4.8306,4.8691,4.9555,4.9812,5.0563,5.1958,5.2215,5.2619,5.3185,5.238,5.1591,5.0765,4.9334,4.8526,0.0,0.0,0.0,3.3597,0.0,0.0,0.0,0.0,3.4849,0.0,0.0,0.0,0.0,0.0,3.2431,3.1714,3.1581,0.0,0.0,0.0,0.0,0.0,0.0,0.0,0.0,2.8906,2.9248,2.9955,3.0777,3.1901,3.3372,3.4117,3.4844,3.5583,3.56,3.56,3.56,3.56,3.56,3.56,3.56,3.56,3.56,3.56,3.56,3.56,3.56,3.56,3.56,3.56,3.56,3.56,3.56,3.6096,3.6897,3.7635,3.8362,3.9106,3.9842,4.0096,4.0096,4.0096,4.0096,4.0096,4.0096,4.0096,4.0248,4.0967,4.1799,4.2808,4.4128,4.5237,4.6211,4.7002,4.7249,4.7363,4.7636,4.7847,4.7992,4.7992,4.817,4.8287,4.8306,4.8306,4.8306,4.8306,4.8306,4.8306,4.8306,4.8306,4.8306,4.8306,4.8306,4.8306,4.8306,4.8306,4.8306,4.8306,4.8306,4.8691,4.9555,5.0343,5.1151,5.1977,5.2766,5.3167,5.3185,5.238,5.1591,5.0784,4.9939,4.9095,3.2834,3.3066,3.3497,3.3723,3.4154,0.0,0.0,0.0,0.0,0.0,0.0,0.0,0.0,0.0,3.2613,3.2365,3.152,3.0787,0.0,0.0,0.0,0.0,0.0,0.0,0.0,0.0,0.0,2.9145,2.9909,3.0811,3.1884,3.3119,3.4117,3.4844,3.5346,3.56,3.56,3.56,3.56,3.56,3.56,3.56,3.56,3.56,3.56,3.56,3.56,3.56,3.56,3.56,3.56,3.56,3.56,3.6096,3.6897,3.7635,3.8362,3.9106,3.9842,4.0096,4.0096,4.0096,4.0096,4.0096,4.0096,4.0096,4.0265,4.0984,4.1833,4.2782,4.4035,4.5103,4.6062,4.6772,4.707,4.7312,4.7511,4.7762,4.7966,4.7992,4.813,4.8247,4.8287,4.8306,4.8306,4.8306,4.8306,4.8306,4.8306,4.8306,4.8306,4.8306,4.8306,4.8306,4.8306,4.8306,4.8306,4.8306,4.8306,4.893,5.0343,5.0655,5.1426,5.2766,5.3078,5.3185,5.3185,5.2931,5.238,5.1573,5.0765,4.9646,3.3613,3.3822,3.4187,3.4187,3.4551,3.4899,3.4899,0.0,3.4899,0.0,0.0,0.0,0.0,0.0,3.2911,3.2398,3.1499,3.0803,0.0,3.0092,0.0,0.0,0.0,0.0,0.0,0.0,2.7992,2.8352,2.9078,2.9993,3.114,3.2611,3.3744,3.4472,3.5211,3.56,3.56,3.56,3.56,3.56,3.56,3.56,3.56,3.56,3.56,3.56,3.56,3.56,3.56,3.56,3.56,3.56,3.56,3.6096,3.6897,3.7635,3.8531,3.9469,3.9943,4.0096,4.0096,4.0096,4.0096,4.0096,4.0096,4.0096,4.0316,4.1305,4.201,4.2762,4.4172,4.5131,4.5887,4.6518,4.6952,4.7263,4.7446,4.7717,4.7922,4.799,4.811,4.8226,4.8287,4.8306,4.8306,4.8306,4.8306,4.8306,4.8306,4.8306,4.8306,4.8306,4.8306,4.8306,4.8306,4.8306,4.8306,4.8306,4.86,4.937,5.0747,5.1077,5.1848,5.3167,5.3185,5.3185,5.3185,5.3185,5.2637,5.1555,5.1041,4.9903]}]]